Date StartTime U_cm/s V_cm/s W_cm/s Ustd_cm/s Vstd_cm/s Wstd_cm/s Uvar_(cm/s)^2 Vvar_(cm/s)^2 Wvar_(cm/s)^2 KE_(m/s)^2 TurbulentKE_(m/s)^2 HorizWindSpeed_cm/s FrictionSpeec_cm/s DragCoef SpeedOfSound_m/s SonicTemperature_C Pressure_mb 
04/28/2013  00:00:00     -220.581      -55.101      -10.032       67.967       80.950       46.372     4619.550     6552.846     2150.325        3.256        0.666      227.359       40.467        0.032      342.162       17.374      865.399
04/28/2013  00:01:00     -235.869      -53.863       -3.938      103.980       95.466       49.816    10811.802     9113.775     2481.619        4.047        1.120      241.941       52.910        0.048      342.321       17.646      865.392
04/28/2013  00:02:00     -248.488      -38.673      -16.645       73.596       91.523       37.089     5416.389     8376.379     1375.590        3.934        0.758      251.479       32.303        0.016      342.383       17.752      865.396
04/28/2013  00:03:00     -193.592      -52.460       -2.532       99.515       72.015       46.355     9903.322     5186.129     2148.795        2.873        0.862      200.574       48.502        0.058      342.357       17.707      865.400
04/28/2013  00:04:00     -230.084       -9.262      -18.753       52.884       60.700       29.920     2796.682     3684.477      895.221        3.037        0.369      230.270       20.198        0.008      342.458       17.877      865.403
04/28/2013  00:05:00     -126.166      -85.370        8.490      101.531       60.209       46.742    10308.554     3625.147     2184.850        1.970        0.806      152.335       52.285        0.118      342.605       18.129      865.383
04/28/2013  00:06:00      -70.411      -55.725       15.021       80.587       64.338       40.126     6494.307     4139.379     1610.080        1.026        0.612       89.794       39.180        0.190      342.714       18.316      865.368
04/28/2013  00:07:00     -276.815        2.061      -36.055       97.782       48.717       36.654     9561.369     2373.356     1343.534        4.560        0.664      276.822       38.190        0.019      342.583       18.092      865.381
04/28/2013  00:08:00     -262.182      -63.966       -4.943       92.102       78.354       57.549     8482.769     6139.369     3311.944        4.539        0.897      269.872       55.916        0.043      342.564       18.060      865.359
04/28/2013  00:09:00     -282.238      -52.190      -17.153       99.370       86.716       55.233     9874.456     7519.709     3050.721        5.156        1.022      287.022       49.816        0.030      342.562       18.055      865.347
04/28/2013  00:10:00     -311.305     -155.835      -10.389      112.273       73.355       44.832    12605.306     5380.973     2009.953        7.065        1.000      348.131       51.426        0.022      342.495       17.942      865.339
04/28/2013  00:11:00     -292.969      -84.986       -1.373       93.598       99.328       48.846     8760.667     9866.018     2385.967        5.703        1.051      305.046       40.955        0.018      342.423       17.819      865.356
04/28/2013  00:12:00     -255.177      -75.502       -9.474       80.670       51.010       32.683     6507.614     2601.993     1068.197        4.054        0.509      266.113       32.702        0.015      342.395       17.770      865.365
04/28/2013  00:13:00     -219.727       -5.831      -13.854       89.661       48.166       39.840     8039.162     2319.991     1587.248        3.022        0.597      219.804       45.016        0.042      342.466       17.895      865.349
04/28/2013  00:14:00     -183.322      -33.603       -5.423       63.994       62.203       34.978     4095.237     3869.165     1223.460        2.197        0.459      186.376       38.587        0.043      342.404       17.787      865.346
04/28/2013  00:15:00     -212.524      -58.595      -11.338       74.461       55.158       31.627     5544.460     3042.441     1000.283        2.916        0.479      220.454       26.500        0.014      342.401       17.781      865.352
04/28/2013  00:16:00     -203.310      -99.705       -3.888       63.892       51.619       38.924     4082.224     2664.474     1515.073        2.977        0.413      226.443       36.808        0.026      342.382       17.749      865.354
04/28/2013  00:17:00     -193.729      -89.336       -9.367       57.055       39.781       30.070     3255.273     1582.517      904.206        2.567        0.287      213.335       29.815        0.020      342.305       17.617      865.345
04/28/2013  00:18:00      -98.291      -72.262        3.139       66.210       55.338       25.599     4383.762     3062.287      655.303        1.150        0.405      121.996       27.752        0.052      342.364       17.722      865.349
04/28/2013  00:19:00     -112.682        4.725       -2.401       62.806       70.523       35.116     3944.628     4973.488     1233.108        1.144        0.508      112.781       35.455        0.099      342.246       17.523      865.376
04/28/2013  00:20:00     -183.469      -31.917      -10.859       52.360       42.463       22.446     2741.605     1803.104      503.804        1.992        0.252      186.225       23.133        0.015      342.199       17.439      865.378
04/28/2013  00:21:00     -159.987      -34.804      -10.103       48.083       33.668       22.796     2312.001     1133.564      519.669        1.544        0.198      163.729       19.655        0.014      342.290       17.595      865.375
04/28/2013  00:22:00      -45.923      -16.778       -2.821       59.107       35.088       30.037     3493.663     1231.187      902.214        0.401        0.281       48.892       27.352        0.313      342.544       18.030      865.364
04/28/2013  00:23:00      -90.830        1.309       -5.477       46.392       26.296       24.690     2152.246      691.484      609.586        0.587        0.173       90.839       27.212        0.090      342.429       17.832      865.365
04/28/2013  00:24:00     -110.034        8.328      -11.370       28.100       36.264       16.067      789.594     1315.075      258.150        0.733        0.118      110.348       13.228        0.014      342.346       17.691      865.361
04/28/2013  00:25:00     -127.341       94.311      -17.086       47.133       44.327       29.079     2221.555     1964.877      845.610        1.522        0.252      158.462       18.769        0.014      342.452       17.872      865.368
04/28/2013  00:26:00      -71.324       80.856       -0.523       48.559       52.623       34.454     2357.975     2769.142     1187.094        0.897        0.316      107.818       27.232        0.064      342.338       17.677      865.368
04/28/2013  00:27:00      -86.260       -8.547       -7.190       43.961       33.735       17.972     1932.553     1138.038      322.975        0.548        0.170       86.683       18.508        0.046      342.448       17.863      865.368
04/28/2013  00:28:00     -125.117       49.273      -22.218       47.789       42.733       24.010     2283.773     1826.070      576.482        1.163        0.234      134.470       20.672        0.024      342.417       17.811      865.367
04/28/2013  00:29:00     -156.919       23.401      -27.610       86.667       96.680       39.275     7511.170     9347.005     1542.494        2.216        0.920      158.654       46.982        0.088      342.516       17.976      865.355
04/28/2013  00:30:00     -114.117       22.046      -15.056       34.565       37.426       27.120     1194.772     1400.692      735.496        0.853        0.167      116.227       22.776        0.038      342.342       17.684      865.365
04/28/2013  00:31:00     -120.492      -38.012      -12.601       39.753       53.494       20.646     1580.308     2861.604      426.256        1.049        0.243      126.345       11.712        0.009      342.473       17.907      865.373
04/28/2013  00:32:00     -255.034       -2.710      -30.675      121.906       51.455       31.535    14861.168     2647.663      994.471        4.224        0.925      255.048       38.842        0.023      342.447       17.861      865.365
04/28/2013  00:33:00     -212.078      -57.391      -16.193      107.080       63.645       41.895    11466.185     4050.677     1755.155        3.290        0.864      219.706       54.150        0.061      342.354       17.703      865.359
04/28/2013  00:34:00     -130.587      -69.203       -2.315       64.298       40.266       26.149     4134.275     1621.335      683.753        1.414        0.322      147.790       29.125        0.039      342.247       17.522      865.355
04/28/2013  00:35:00     -105.581      -46.021        3.946       87.875       54.117       34.543     7721.999     2928.617     1193.211        1.256        0.592      115.175       35.569        0.095      342.260       17.545      865.349
04/28/2013  00:36:00     -157.361      -61.385       -0.340       60.809       38.488       27.040     3697.736     1481.301      731.167        1.722        0.296      168.910       28.667        0.029      342.332       17.664      865.358
04/28/2013  00:37:00     -137.283      -75.310        3.787       67.610       64.418       36.656     4571.176     4149.629     1343.662        1.730        0.503      156.583       32.490        0.043      342.301       17.613      865.351
04/28/2013  00:38:00     -222.014      -81.428      -10.293       83.469       73.841       36.059     6967.014     5452.523     1300.282        3.487        0.686      236.476       38.764        0.027      342.348       17.689      865.336
04/28/2013  00:39:00     -152.413      -81.565        5.678      101.567       58.391       35.387    10315.944     3409.537     1252.270        2.244        0.749      172.866       42.397        0.060      342.250       17.525      865.323
04/28/2013  00:40:00     -131.429      -87.458        5.163       96.445       75.426       48.094     9301.596     5689.121     2313.022        2.112        0.865      157.869       53.842        0.116      342.145       17.347      865.329
04/28/2013  00:41:00     -157.131     -104.799       -5.658       80.656       58.707       31.570     6505.429     3446.477      996.670        2.332        0.547      188.873       33.629        0.032      342.142       17.340      865.332
04/28/2013  00:42:00     -123.314     -116.214       -2.241       73.283       47.319       32.921     5370.470     2239.124     1083.809        1.870        0.435      169.446       34.188        0.041      342.060       17.203      865.332
04/28/2013  00:43:00     -189.054      -96.240       -0.916       93.085       53.959       39.492     8664.734     2911.531     1559.616        2.907        0.657      212.141       48.116        0.051      342.113       17.292      865.317
04/28/2013  00:44:00     -193.344      -20.121      -20.197       49.585       59.312       28.083     2458.707     3517.954      788.675        2.248        0.338      194.388       21.726        0.012      342.128       17.319      865.339
04/28/2013  00:45:00     -185.932      -25.588      -12.815       63.916       52.982       29.368     4085.236     2807.140      862.488        2.157        0.388      187.685       30.398        0.026      341.978       17.065      865.345
04/28/2013  00:46:00     -205.496      -54.332       -6.154       60.405       43.808       30.685     3648.720     1919.151      941.579        2.586        0.325      212.558       23.678        0.012      341.888       16.910      865.327
04/28/2013  00:47:00     -151.419      -72.277        7.063       71.975       57.402       34.353     5180.471     3295.034     1180.138        1.893        0.483      167.785       34.214        0.042      341.700       16.592      865.315
04/28/2013  00:48:00     -200.847      -53.653       -2.559       76.106       50.011       33.450     5792.124     2501.118     1118.911        2.632        0.471      207.889       35.304        0.029      341.765       16.702      865.320
04/28/2013  00:49:00     -207.320      -74.698       -1.604       52.584       56.536       32.197     2765.074     3196.266     1036.654        2.778        0.350      220.366       27.133        0.015      341.819       16.793      865.303
04/28/2013  00:50:00     -162.449      -67.051        4.738       83.616       74.763       40.320     6991.667     5589.526     1625.708        2.255        0.710      175.743       48.060        0.075      341.730       16.643      865.294
04/28/2013  00:51:00     -137.298      -97.589       -1.220       72.802       49.600       37.887     5300.164     2460.139     1435.423        1.878        0.460      168.447       43.084        0.065      341.790       16.746      865.276
04/28/2013  00:52:00     -131.120      -39.636        1.445       72.350       57.284       31.569     5234.508     3281.513      996.579        1.414        0.476      136.980       30.105        0.048      341.724       16.636      865.270
04/28/2013  00:53:00     -158.280      -85.851        5.336       73.667       57.795       31.269     5426.875     3340.274      977.750        2.110        0.487      180.064       32.456        0.032      341.717       16.621      865.263
04/28/2013  00:54:00     -118.936      -58.130       -3.549       70.907       52.641       30.271     5027.742     2771.065      916.334        1.312        0.436      132.382       35.356        0.071      341.690       16.577      865.238
04/28/2013  00:55:00     -183.564      -44.144       -7.434       60.035       59.791       33.532     3604.238     3574.925     1124.417        2.200        0.415      188.797       25.550        0.018      341.596       16.416      865.239
04/28/2013  00:56:00     -133.157      -30.661        7.850       71.930       47.486       35.057     5173.897     2254.918     1229.023        1.369        0.433      136.641       38.966        0.081      341.530       16.305      865.245
04/28/2013  00:57:00     -121.054      -33.411       11.435       66.371       47.508       28.980     4405.081     2257.030      839.815        1.170        0.375      125.580       33.596        0.072      341.512       16.275      865.246
04/28/2013  00:58:00      -75.515      -60.657        8.694       61.651       60.588       29.574     3800.819     3670.917      874.595        0.890        0.417       96.860       35.894        0.137      341.476       16.214      865.226
04/28/2013  00:59:00     -111.378     -107.015        1.514       68.867       53.676       30.727     4742.665     2881.086      944.153        1.621        0.428      154.458       34.074        0.049      341.580       16.390      865.207
04/28/2013  01:00:00     -164.571     -157.869      -17.343       62.966       64.554       46.665     3964.776     4167.236     2177.618        3.131        0.515      228.049       38.752        0.029      341.653       16.511      865.197
04/28/2013  01:01:00     -167.863      -84.333        1.094       89.086       67.241       42.809     7936.313     4521.377     1832.622        2.479        0.715      187.857       41.428        0.049      341.526       16.296      865.210
04/28/2013  01:02:00     -121.184     -119.021        4.078       86.124       87.989       43.025     7417.286     7742.055     1851.113        2.294        0.851      169.858       52.210        0.094      341.500       16.255      865.186
04/28/2013  01:03:00     -157.868      -93.769       -1.184       60.673       67.744       40.008     3681.180     4589.213     1600.608        2.179        0.494      183.616       38.807        0.045      341.470       16.202      865.183
04/28/2013  01:04:00     -153.925      -21.367       -6.991       51.984       46.435       33.756     2702.312     2156.187     1139.438        1.510        0.300      155.401       31.060        0.040      341.498       16.251      865.185
04/28/2013  01:05:00      -61.896      -53.845       -6.040       64.980       32.281       24.763     4222.380     1042.080      613.218        0.632        0.294       82.039       23.030        0.079      341.428       16.132      865.168
04/28/2013  01:06:00      -85.060      -28.890       -8.223       38.247       44.333       17.675     1462.828     1965.422      312.404        0.594        0.187       89.833       18.736        0.044      341.351       16.003      865.143
04/28/2013  01:07:00     -139.374      -46.355      -12.495       72.255       55.416       28.920     5220.801     3070.919      836.369        1.543        0.456      146.880       30.146        0.042      341.473       16.207      865.122
04/28/2013  01:08:00     -106.773      -11.758       -1.451       63.778       46.124       25.575     4067.651     2127.440      654.080        0.919        0.342      107.418       34.937        0.106      341.373       16.042      865.125
04/28/2013  01:09:00      -87.693       -2.336        0.150       39.230       44.840       21.632     1538.983     2010.616      467.934        0.586        0.201       87.725       21.467        0.060      341.202       15.751      865.122
04/28/2013  01:10:00      -60.312       -7.716       -4.063       26.258       29.286       14.255      689.505      857.644      203.209        0.273        0.088       60.803       10.599        0.030      341.248       15.829      865.121
04/28/2013  01:11:00      -63.551      -33.953       -0.762       46.893       23.446       20.147     2198.910      549.722      405.921        0.417        0.158       72.052       21.165        0.086      341.252       15.835      865.118
04/28/2013  01:12:00      -34.088       -9.440        4.875       35.372       23.611       12.703     1251.153      557.481      161.366        0.162        0.098       35.371       17.227        0.237      341.237       15.810      865.113
04/28/2013  01:13:00      -51.562       -4.063        6.824       22.198       27.567       19.883      492.763      759.914      395.328        0.218        0.082       51.721       11.772        0.052      341.229       15.796      865.106
04/28/2013  01:14:00      -28.338       -6.567        9.569       27.155       19.528       14.812      737.398      381.332      219.385        0.114        0.067       29.089       12.314        0.179      341.170       15.698      865.103
04/28/2013  01:15:00      -50.335      -55.649       -1.733       45.516       38.323       19.366     2071.715     1468.670      375.033        0.477        0.196       75.036       22.557        0.090      341.295       15.909      865.106
04/28/2013  01:16:00     -148.364      -52.574      -13.458       30.900       38.545       24.494      954.828     1485.699      599.957        1.400        0.152      157.404       15.853        0.010      341.283       15.888      865.115
04/28/2013  01:17:00      -91.111      -26.976      -15.705       53.249       31.316       19.445     2835.446      980.673      378.114        0.673        0.210       95.020       25.433        0.072      341.274       15.875      865.125
04/28/2013  01:18:00      -27.989       10.543        7.980       21.024       35.725       17.425      442.011     1276.249      303.641        0.149        0.101       29.908       14.185        0.225      341.149       15.661      865.135
04/28/2013  01:19:00      -24.972       18.530       -2.032       20.242       22.481       17.203      409.748      505.385      295.947        0.109        0.061       31.096       14.303        0.212      341.186       15.722      865.150
04/28/2013  01:20:00       -2.691       41.690       -3.491       10.533       13.584        9.870      110.942      184.534       97.417        0.108        0.020       41.776        7.013        0.028      341.147       15.657      865.152
04/28/2013  01:21:00      -31.103       14.135       -1.328       35.927       10.005        8.034     1290.727      100.106       64.546        0.131        0.073       34.165       11.633        0.116      341.200       15.748      865.148
04/28/2013  01:22:00      -76.975        9.019       -5.624       17.951       12.128        8.351      322.245      147.086       69.747        0.329        0.027       77.501        6.513        0.007      341.273       15.873      865.148
04/28/2013  01:23:00      -79.565       -5.766       -5.555       21.735       14.091       13.273      472.413      198.552      176.168        0.362        0.042       79.774       10.568        0.018      341.266       15.860      865.130
04/28/2013  01:24:00      -73.850      -25.346       -3.173       26.331       24.252       12.047      693.337      588.141      145.138        0.377        0.071       78.078        2.483        0.001      341.229       15.796      865.116
04/28/2013  01:25:00      -47.392      -69.219       -4.069       30.523       26.420       18.136      931.675      698.008      328.911        0.451        0.098       83.889       14.888        0.031      341.191       15.733      865.099
04/28/2013  01:26:00      -72.064      -77.297       -7.517       40.124       30.818       24.620     1609.930      949.750      606.149        0.719        0.158      105.679       22.140        0.044      341.264       15.856      865.072
04/28/2013  01:27:00      -66.308     -103.784       -8.858       40.069       27.829       20.808     1605.530      774.460      432.990        0.903        0.141      123.158       23.378        0.036      341.236       15.808      865.048
04/28/2013  01:28:00      -34.288     -100.530        1.010       49.380       45.846       23.969     2438.409     2101.900      574.499        0.820        0.256      106.216       19.406        0.033      341.286       15.892      865.039
04/28/2013  01:29:00      -27.118      -92.144        3.343       33.652       45.515       24.029     1132.465     2071.578      577.403        0.651        0.189       96.052       22.655        0.056      341.318       15.949      865.029
04/28/2013  01:30:00       -4.305      -11.424       17.168       33.243       29.256       18.091     1105.113      855.937      327.299        0.137        0.114       12.208       15.289        1.568      341.147       15.658      865.030
04/28/2013  01:31:00      -21.214       -5.824        3.702       27.905       14.553       15.683      778.702      211.800      245.959        0.087        0.062       21.998       17.377        0.624      341.105       15.589      865.033
04/28/2013  01:32:00       17.502      -34.999       -5.679       34.121       29.072       22.026     1164.267      845.158      485.153        0.203        0.125       39.131       20.243        0.268      341.092       15.563      865.016
04/28/2013  01:33:00      -46.655      -43.697       -5.379       36.396       30.653       24.514     1324.685      939.598      600.956        0.349        0.143       63.922       11.968        0.035      341.188       15.727      865.019
04/28/2013  01:34:00      -41.634      -27.916       -7.049       24.529       35.696       21.770      601.689     1274.191      473.927        0.246        0.117       50.127       12.316        0.060      341.194       15.739      865.012
04/28/2013  01:35:00      -53.358     -124.578       -4.418       43.816       49.263       17.418     1919.834     2426.840      303.385        1.152        0.233      135.525       15.289        0.013      341.257       15.846      865.004
04/28/2013  01:36:00      -40.263      -81.623        0.703       40.645       37.054       20.552     1652.052     1373.013      422.378        0.587        0.172       91.014       19.886        0.048      341.224       15.788      864.998
04/28/2013  01:37:00      -33.529     -100.398        5.593       37.446       48.104       24.408     1402.189     2314.041      595.745        0.777        0.216      105.848       25.607        0.059      341.166       15.689      864.996
04/28/2013  01:38:00      -16.952      -18.550        9.397       40.701       29.533       20.537     1656.551      872.171      421.788        0.183        0.148       25.129       20.968        0.696      341.103       15.583      864.999
04/28/2013  01:39:00      -16.282       -0.569        8.380       18.026       20.468       12.739      324.921      418.924      162.294        0.062        0.045       16.292       12.312        0.571      341.046       15.488      865.014
04/28/2013  01:40:00      -21.943      -21.361        4.134       14.754       17.808       12.719      217.679      317.130      161.767        0.083        0.035       30.623        5.101        0.028      341.203       15.754      865.040
04/28/2013  01:41:00      -36.147       38.918        5.877       27.710       37.286       19.430      767.871     1390.247      377.541        0.270        0.127       53.116       12.055        0.052      340.867       15.184      865.061
04/28/2013  01:42:00      -19.286       34.019       -7.909       19.866       22.651       12.003      394.677      513.056      144.082        0.132        0.053       39.106       12.670        0.105      340.866       15.180      865.070
04/28/2013  01:43:00      -16.669      -22.052       -8.623       13.688       17.574        9.901      187.360      308.829       98.021        0.072        0.030       27.643        9.013        0.106      340.908       15.254      865.069
04/28/2013  01:44:00       -3.976        3.808        2.359       11.756        5.050       10.021      138.205       25.501      100.422        0.015        0.013        5.505        9.624        3.056      340.800       15.070      865.076
04/28/2013  01:45:00       -2.503       26.317       -3.863        7.065       15.934        7.033       49.914      253.907       49.461        0.053        0.018       26.435        8.695        0.108      340.827       15.117      865.085
04/28/2013  01:46:00      -16.006       45.459      -13.236       12.635        9.824        5.081      159.643       96.509       25.819        0.139        0.014       48.194        4.616        0.009      340.836       15.132      865.096
04/28/2013  01:47:00        4.515       16.793       -1.413       22.773        9.933        6.646      518.595       98.673       44.168        0.048        0.033       17.390       11.292        0.422      340.873       15.194      865.100
04/28/2013  01:48:00        4.607       67.327       -1.150       12.337       39.216       16.133      152.194     1537.925      260.275        0.325        0.098       67.484       21.295        0.100      340.630       14.783      865.082
04/28/2013  01:49:00       -5.578       98.835      -14.110        9.597       33.177        6.877       92.099     1100.703       47.293        0.562        0.062       98.992        1.925        0.000      340.659       14.833      865.080
04/28/2013  01:50:00        1.296       49.041      -10.434       10.244       12.420        8.853      104.941      154.246       78.371        0.143        0.017       49.058        7.457        0.023      340.603       14.738      865.073
04/28/2013  01:51:00       11.214       48.741       -3.985        8.614        9.372        5.569       74.193       87.834       31.011        0.136        0.010       50.014        2.772        0.003      340.486       14.540      865.085
04/28/2013  01:52:00      -15.497       47.162       -5.423       16.493       14.695       10.684      272.033      215.955      114.145        0.155        0.030       49.643        9.178        0.034      340.581       14.700      865.093
04/28/2013  01:53:00      -16.776       47.934       -4.644       15.799       19.268       11.139      249.614      371.261      124.067        0.167        0.037       50.785        9.412        0.034      340.459       14.494      865.093
04/28/2013  01:54:00      -28.981       93.739      -13.196       21.636       14.470       10.981      468.109      209.382      120.580        0.530        0.040       98.117        7.024        0.005      340.534       14.621      865.087
04/28/2013  01:55:00      -29.294       56.148       -6.186       47.523       28.977       16.573     2258.441      839.656      274.651        0.371        0.169       63.330       16.326        0.066      340.377       14.355      865.116
04/28/2013  01:56:00       15.037      118.057      -13.111       33.563       47.978       23.812     1126.474     2301.919      566.989        0.916        0.200      119.010       29.075        0.060      340.602       14.735      865.097
04/28/2013  01:57:00      -32.465       42.989       -7.712       19.446       66.741       16.572      378.157     4454.386      274.622        0.403        0.255       53.870       17.429        0.105      340.553       14.655      865.120
04/28/2013  01:58:00      -28.508        5.201        3.720       16.976       17.750       11.744      288.184      315.063      137.926        0.080        0.037       28.978        8.012        0.076      340.396       14.389      865.124
04/28/2013  01:59:00      -33.856       -5.594        7.763       44.067       22.973       27.755     1941.867      527.736      770.365        0.224        0.162       34.315       16.129        0.221      340.275       14.181      865.128
04/28/2013  02:00:00      -95.809      -36.614       -5.696       16.476       18.480       12.652      271.462      341.522      160.072        0.566        0.039      102.566       12.140        0.014      340.148       13.970      865.119
04/28/2013  02:01:00      -65.100      -38.941      -10.210       20.699       13.789       10.933      428.452      190.124      119.527        0.330        0.037       75.858        5.720        0.006      340.159       13.986      865.122
04/28/2013  02:02:00      -51.966      -17.913      -11.195        8.063        7.059        5.555       65.015       49.828       30.859        0.165        0.007       54.967        4.216        0.006      340.265       14.166      865.117
04/28/2013  02:03:00      -31.543      -25.359       -4.645        7.435        7.379        5.499       55.277       54.457       30.236        0.090        0.007       40.473        2.218        0.003      340.413       14.420      865.129
04/28/2013  02:04:00      -47.616      -17.595       -8.664       11.578        8.854        6.075      134.059       78.390       36.904        0.145        0.012       50.763        2.524        0.002      340.412       14.416      865.124
04/28/2013  02:05:00      -47.131       -9.206      -10.969        7.129        8.508        5.982       50.821       72.387       35.785        0.129        0.008       48.022        2.803        0.003      340.599       14.733      865.129
04/28/2013  02:06:00      -53.217      -18.724       -9.456        7.803        6.130        4.506       60.879       37.582       20.302        0.170        0.006       56.415        1.269        0.001      340.538       14.629      865.124
04/28/2013  02:07:00      -76.797      -20.566      -12.308       10.226       12.118        8.386      104.563      146.841       70.326        0.340        0.016       79.503        5.490        0.005      340.428       14.442      865.119
04/28/2013  02:08:00     -119.840      -27.304      -11.439       24.983       21.331       13.112      624.154      454.999      171.936        0.824        0.063      122.911        7.345        0.004      340.114       13.912      865.107
04/28/2013  02:09:00      -69.501      -25.069      -12.505       13.868        9.576        7.085      192.331       91.691       50.199        0.297        0.017       73.884        4.593        0.004      340.126       13.931      865.095
04/28/2013  02:10:00      -70.188      -14.719      -16.558       16.161        9.329       11.473      261.176       87.023      131.619        0.295        0.024       71.714        4.232        0.003      340.214       14.080      865.072
04/28/2013  02:11:00      -51.638      -17.905      -10.331        8.495        9.304        7.216       72.169       86.561       52.065        0.165        0.011       54.654        2.958        0.003      340.275       14.184      865.053
04/28/2013  02:12:00      -62.348      -13.650      -10.680       10.476       12.846        9.307      109.739      165.030       86.624        0.227        0.018       63.825        6.343        0.010      340.253       14.146      865.042
04/28/2013  02:13:00     -108.890      -15.779      -18.025       21.930       12.375        9.502      480.929      153.143       90.284        0.658        0.036      110.027        9.193        0.007      340.199       14.055      865.047
04/28/2013  02:14:00      -90.737      -42.339      -13.597       20.541       19.952       12.888      421.950      398.094      166.107        0.560        0.049      100.129       13.181        0.017      340.231       14.108      865.041
04/28/2013  02:15:00      -51.756      -29.521       -6.723       20.486       19.366       11.718      419.689      375.060      137.309        0.226        0.047       59.583        8.196        0.019      340.073       13.843      865.037
04/28/2013  02:16:00      -18.533      -11.966        1.567       12.181       11.566       10.065      148.372      133.779      101.300        0.044        0.019       22.060        6.504        0.087      340.040       13.786      865.039
04/28/2013  02:17:00      -18.837      -13.882       -0.152       28.471       15.698       16.030      810.619      246.431      256.964        0.093        0.066       23.400       16.416        0.492      340.037       13.781      865.049
04/28/2013  02:18:00      -12.107      -37.871        9.727       18.626       22.547       17.868      346.911      508.361      319.262        0.142        0.059       39.760       11.393        0.082      340.150       13.973      865.037
04/28/2013  02:19:00        0.460      -45.030       -4.668       15.373       11.804       14.506      236.337      139.345      210.429        0.132        0.029       45.033        9.934        0.049      340.314       14.249      865.031
04/28/2013  02:20:00      -35.276      -25.483       -6.011       24.792       14.206        8.533      614.651      201.805       72.817        0.141        0.044       43.518        8.732        0.040      340.446       14.472      865.024
04/28/2013  02:21:00      -83.869      -17.727      -13.245       12.681       13.886        7.096      160.796      192.826       50.354        0.396        0.020       85.722        4.823        0.003      340.384       14.367      865.026
04/28/2013  02:22:00     -116.531      -11.170      -15.253       15.966       19.306       14.328      254.929      372.737      205.300        0.738        0.042      117.065       11.949        0.010      340.243       14.130      865.029
04/28/2013  02:23:00      -94.863      -37.509       -2.090       21.500       15.785       12.910      462.237      249.167      166.675        0.564        0.044      102.010       12.891        0.016      340.308       14.239      865.019
04/28/2013  02:24:00      -72.018      -32.464       -7.050       16.159       16.500        9.251      261.112      272.257       85.583        0.345        0.031       78.997        8.854        0.013      340.292       14.213      865.012
04/28/2013  02:25:00     -131.392       -5.520      -12.010       30.919       20.261       18.747      955.981      410.507      351.444        0.958        0.086      131.508       14.022        0.011      340.073       13.842      865.013
04/28/2013  02:26:00     -125.288      -31.240       -0.395       40.282       31.981       19.147     1622.671     1022.777      366.608        0.984        0.151      129.125       19.414        0.023      340.038       13.783      864.993
04/28/2013  02:27:00     -142.202      -28.993       -7.877       49.632       28.588       18.243     2463.352      817.254      332.811        1.237        0.181      145.128       23.891        0.027      340.007       13.731      865.000
04/28/2013  02:28:00     -101.515      -20.965       -4.589       35.603       26.180       18.868     1267.570      685.368      356.017        0.654        0.115      103.658       18.705        0.033      339.952       13.637      864.995
04/28/2013  02:29:00      -50.865      -43.071       -2.017       24.052       30.428       13.669      578.512      925.846      186.851        0.307        0.085       66.651       14.628        0.048      340.019       13.752      864.987
04/28/2013  02:30:00     -112.999      -36.224       -8.160       23.833       16.804       11.790      567.999      282.373      139.009        0.757        0.049      118.663        5.097        0.002      340.093       13.875      864.994
04/28/2013  02:31:00     -110.165      -36.634       -2.439       33.171       24.581       20.153     1100.341      604.222      406.125        0.780        0.106      116.097       18.929        0.027      339.983       13.691      864.986
04/28/2013  02:32:00      -75.479       15.787       -4.699       43.174       45.329       21.659     1863.995     2054.727      469.091        0.518        0.219       77.112       22.317        0.084      339.890       13.533      864.996
04/28/2013  02:33:00     -141.803       32.076      -13.670       28.049       29.460       19.081      786.765      867.899      364.079        1.167        0.101      145.386       14.826        0.010      340.131       13.939      864.985
04/28/2013  02:34:00     -135.753       -4.514      -15.977       24.839       23.400       17.557      616.960      547.582      308.257        1.009        0.074      135.828        8.030        0.003      340.165       13.997      864.976
04/28/2013  02:35:00     -123.473      -22.534       -6.056       33.893       23.500       18.738     1148.716      552.253      351.126        0.892        0.103      125.512       17.283        0.019      340.070       13.837      864.959
04/28/2013  02:36:00     -118.563      -25.899       -8.029       31.588       38.634       16.407      997.774     1492.559      269.181        0.878        0.138      121.359       15.521        0.016      340.028       13.765      864.949
04/28/2013  02:37:00     -155.709       39.504      -16.531       26.397       25.437       12.424      696.777      647.058      154.359        1.379        0.075      160.642        4.177        0.001      340.048       13.800      864.950
04/28/2013  02:38:00     -113.605       12.783      -14.785       33.743       35.813       19.485     1138.585     1282.592      379.671        0.804        0.140      114.322       14.070        0.015      340.112       13.908      864.947
04/28/2013  02:39:00     -141.030      -37.246       -8.279       42.427       29.455       21.220     1800.058      867.595      450.270        1.223        0.156      145.866       18.074        0.015      340.006       13.728      864.943
04/28/2013  02:40:00      -98.141      -51.340       -0.243       40.246       42.255       23.752     1619.744     1785.504      564.154        0.812        0.198      110.758       17.740        0.026      339.990       13.703      864.938
04/28/2013  02:41:00     -106.538      -20.776       -5.744       35.218       32.382       18.329     1240.301     1048.600      335.944        0.722        0.131      108.545       12.094        0.012      339.916       13.577      864.934
04/28/2013  02:42:00     -135.251       33.730      -14.209       32.700       30.369       17.167     1069.279      922.289      294.703        1.096        0.114      139.393        8.764        0.004      339.935       13.609      864.943
04/28/2013  02:43:00     -153.386       18.881      -14.371       37.526       40.263       19.522     1408.237     1621.080      381.121        1.375        0.171      154.544       18.405        0.014      339.978       13.683      864.955
04/28/2013  02:44:00      -93.729       -4.321       -8.356       40.039       28.779       22.301     1603.128      828.252      497.352        0.590        0.146       93.828       17.905        0.036      339.941       13.619      864.942
04/28/2013  02:45:00     -158.392       -2.364      -14.579       29.210       21.327       16.205      853.197      454.826      262.599        1.344        0.079      158.409       13.444        0.007      340.068       13.832      864.951
04/28/2013  02:46:00      -97.859      -14.721       -7.795       67.112       29.094       28.949     4504.024      846.453      838.028        0.802        0.309       98.960       36.019        0.132      340.008       13.733      864.968
04/28/2013  02:47:00     -175.504       17.434      -14.586       84.359       69.783       33.615     7116.499     4869.727     1129.997        2.221        0.656      176.368       41.036        0.054      340.011       13.737      864.970
04/28/2013  02:48:00     -162.270        4.620      -19.061       57.128       47.305       29.126     3263.588     2237.780      848.301        1.653        0.317      162.335       24.353        0.023      339.999       13.717      864.985
04/28/2013  02:49:00     -102.941       64.482      -11.236       46.765       48.293       29.867     2186.979     2332.252      892.032        1.015        0.271      121.469       26.778        0.049      340.028       13.765      864.984
04/28/2013  02:50:00     -109.519      103.201      -27.231       50.591       31.967       26.762     2559.403     1021.912      716.214        1.384        0.215      150.482       29.790        0.039      340.300       14.224      864.993
04/28/2013  02:51:00      -62.578      157.461       -8.562       48.049       51.173       26.076     2308.737     2618.671      679.984        1.719        0.280      169.440       25.669        0.023      340.182       14.025      864.988
04/28/2013  02:52:00      -89.630       89.242      -14.300       31.275       51.630       22.801      978.128     2665.655      519.889        1.018        0.208      126.482       18.777        0.022      340.114       13.911      864.985
04/28/2013  02:53:00      -97.381       48.377       -8.980       35.886       29.237       24.969     1287.822      854.812      623.471        0.733        0.138      108.735       25.185        0.054      340.038       13.784      864.971
04/28/2013  02:54:00      -90.224       26.340      -11.700       17.495       24.391       14.490      306.061      594.932      209.974        0.504        0.056       93.990       11.430        0.015      340.042       13.789      864.964
04/28/2013  02:55:00     -101.179      -39.146       -4.563       39.856       35.624       17.022     1588.505     1269.047      289.756        0.747        0.157      108.488       14.205        0.017      339.992       13.703      864.960
04/28/2013  02:56:00     -138.842      -63.594       -1.699       43.922       26.914       17.104     1929.118      724.337      292.535        1.313        0.147      152.713       19.782        0.017      339.869       13.496      864.944
04/28/2013  02:57:00     -121.612      -32.432       -4.461       37.836       30.808       17.904     1431.580      949.145      320.554        0.928        0.135      125.862       16.741        0.018      339.859       13.481      864.923
04/28/2013  02:58:00      -56.172      -16.082        4.836       39.884       30.068       19.659     1590.725      904.071      386.481        0.316        0.144       58.429       16.526        0.080      339.813       13.404      864.908
04/28/2013  02:59:00      -80.087      -36.040       -6.485       19.877       17.561       12.093      395.100      308.392      146.236        0.430        0.042       87.823        8.498        0.009      339.927       13.595      864.891
04/28/2013  03:00:00      -70.081      -24.408       -5.662       19.804       21.624       14.842      392.191      467.596      220.284        0.331        0.054       74.210       14.545        0.038      339.990       13.702      864.876
04/28/2013  03:01:00      -34.314      -18.416        3.192       30.360       18.753       14.464      921.700      351.678      209.215        0.150        0.074       38.944       14.062        0.130      340.009       13.734      864.881
04/28/2013  03:02:00      -13.799        3.650        7.754       22.711       32.556       16.912      515.795     1059.886      286.030        0.106        0.093       14.273       21.394        2.247      339.897       13.546      864.888
04/28/2013  03:03:00      -24.367       15.553       -1.189       19.693       14.996       11.646      387.831      224.880      135.632        0.079        0.037       28.908       11.708        0.164      339.833       13.438      864.891
04/28/2013  03:04:00      -42.991        6.050        0.525       20.432       18.450       13.314      417.464      340.412      177.268        0.141        0.047       43.414        8.436        0.038      339.885       13.525      864.906
04/28/2013  03:05:00      -31.972      -19.595        1.588       19.014       14.670       13.013      361.531      215.200      169.326        0.108        0.037       37.499       12.981        0.120      339.907       13.562      864.916
04/28/2013  03:06:00      -28.082      -14.926        6.535       16.243       18.503       13.005      263.821      342.348      169.131        0.091        0.039       31.802        8.197        0.066      339.897       13.544      864.903
04/28/2013  03:07:00       -4.577      -38.530        8.283       24.881       29.414       15.731      619.065      865.170      247.477        0.165        0.087       38.801       14.235        0.135      339.931       13.602      864.894
04/28/2013  03:08:00      -22.068      -31.035       -1.889       29.706       26.426       18.120      882.450      698.350      328.344        0.168        0.095       38.081       15.879        0.174      339.905       13.558      864.890
04/28/2013  03:09:00      -65.671       -5.571       -1.311       14.359       15.612       13.449      206.180      243.737      180.867        0.249        0.032       65.907        9.911        0.023      340.001       13.719      864.879
04/28/2013  03:10:00      -42.852      -24.994        4.117       25.169       19.610        9.698      633.461      384.571       94.059        0.179        0.056       49.608       10.679        0.046      339.909       13.566      864.878
04/28/2013  03:11:00      -36.677      -29.556        6.422       37.179       23.129       15.267     1382.311      534.961      233.091        0.220        0.108       47.104       15.865        0.113      339.856       13.477      864.881
04/28/2013  03:12:00      -32.447      -37.253        0.714       23.589       16.376       14.802      556.423      268.187      219.098        0.174        0.052       49.403       11.330        0.053      339.963       13.656      864.860
04/28/2013  03:13:00      -55.844      -56.536       -2.903       18.144       15.827        9.905      329.198      250.490       98.118        0.350        0.034       79.466        7.833        0.010      339.970       13.668      864.840
04/28/2013  03:14:00      -83.386      -47.686        2.695       42.693       22.208       21.500     1822.667      493.210      462.256        0.601        0.139       96.058       23.358        0.059      339.858       13.481      864.844
04/28/2013  03:15:00      -95.612      -15.391       -1.376       33.682       26.759       16.959     1134.465      716.044      287.605        0.576        0.107       96.842       14.031        0.021      339.622       13.080      864.836
04/28/2013  03:16:00      -10.680      -14.671        3.839       25.315       27.158       16.472      640.835      737.554      271.327        0.100        0.082       18.147       11.887        0.429      339.515       12.901      864.816
04/28/2013  03:17:00      -64.928      -22.404        0.122       13.272       14.732       15.337      176.146      217.025      235.220        0.267        0.031       68.684        8.569        0.016      339.526       12.921      864.810
04/28/2013  03:18:00      -23.240      -15.885        5.545       11.814       12.486       10.697      139.574      155.889      114.419        0.062        0.020       28.150        9.458        0.113      339.492       12.862      864.789
04/28/2013  03:19:00      -19.206      -19.167       -1.076       14.204       14.878        6.296      201.740      221.357       39.641        0.060        0.023       27.134        7.125        0.069      339.614       13.068      864.778
04/28/2013  03:20:00      -23.235       -7.862        0.096       15.845       18.174       11.503      251.080      330.308      132.310        0.066        0.036       24.529        8.539        0.121      339.793       13.370      864.773
04/28/2013  03:21:00      -74.593        8.258       -8.767       20.070       12.394        9.814      402.824      153.607       96.305        0.318        0.033       75.049        6.576        0.008      339.738       13.279      864.769
04/28/2013  03:22:00      -86.055       14.861       -6.611       13.481       11.852        8.603      181.732      140.462       74.010        0.403        0.020       87.329        8.407        0.009      339.601       13.045      864.763
04/28/2013  03:23:00      -89.390       -1.868       -6.288       26.197       13.020        9.978      686.270      169.515       99.555        0.449        0.048       89.409       12.852        0.021      339.664       13.154      864.765
04/28/2013  03:24:00      -89.346      -21.279       -0.354       20.076       19.406       12.191      403.036      376.608      148.620        0.468        0.046       91.845       10.749        0.014      339.536       12.935      864.761
04/28/2013  03:25:00     -105.530      -10.803       -2.804       43.367       32.978       22.529     1880.738     1087.516      507.568        0.737        0.174      106.082       21.813        0.042      339.298       12.534      864.748
04/28/2013  03:26:00     -116.561      -49.547        4.577       57.874       44.233       20.792     3349.405     1956.537      432.288        1.090        0.287      126.654       22.682        0.032      339.084       12.175      864.747
04/28/2013  03:27:00     -130.323      -13.998       -5.265       48.266       32.520       24.753     2329.598     1057.563      612.719        1.060        0.200      131.072       28.658        0.048      339.004       12.040      864.738
04/28/2013  03:28:00     -123.335        0.971      -13.900       32.685       24.010       14.764     1068.336      576.456      217.962        0.863        0.093      123.339       12.308        0.010      339.016       12.061      864.722
04/28/2013  03:29:00     -135.467       20.551      -11.196       60.383       20.768       18.819     3646.135      431.297      354.145        1.166        0.222      137.017       22.099        0.026      338.909       11.881      864.730
04/28/2013  03:30:00     -115.788      -10.558       -4.479       32.623       28.538       18.698     1064.246      814.397      349.597        0.788        0.111      116.268       17.384        0.022      338.940       11.933      864.726
04/28/2013  03:31:00      -86.897      -29.773        5.443       35.543       29.182       21.370     1263.329      851.594      456.694        0.552        0.129       91.856       21.937        0.057      338.966       11.977      864.717
04/28/2013  03:32:00      -87.877      -23.454       -7.021       37.564       26.887       16.730     1411.017      722.914      279.883        0.537        0.121       90.953       20.299        0.050      338.962       11.971      864.727
04/28/2013  03:33:00     -114.158       19.097      -10.688       30.444       18.703       15.129      926.828      349.787      228.872        0.751        0.075      115.744       14.331        0.015      338.999       12.032      864.740
04/28/2013  03:34:00     -116.891        8.047      -12.321       25.915       34.985       13.698      671.577     1223.971      187.645        0.798        0.104      117.168       11.691        0.010      339.027       12.079      864.739
04/28/2013  03:35:00      -64.694      -32.945       -2.044       36.289       20.559       18.693     1316.893      422.660      349.442        0.368        0.104       72.600       20.202        0.077      338.961       11.969      864.748
04/28/2013  03:36:00      -96.784      -17.558       -5.199       28.506       19.432       11.249      812.598      377.618      126.529        0.551        0.066       98.364       11.780        0.014      339.012       12.052      864.755
04/28/2013  03:37:00      -67.513      -25.916       -0.558       18.990       18.583       12.520      360.604      345.323      156.740        0.305        0.043       72.316        8.115        0.013      338.956       11.959      864.749
04/28/2013  03:38:00      -76.167      -26.612      -10.572       10.734       13.033        8.262      115.218      169.856       68.269        0.349        0.018       80.682        3.691        0.002      339.096       12.196      864.760
04/28/2013  03:39:00      -71.372      -25.322       -1.794       22.426       21.024       14.763      502.920      442.014      217.935        0.345        0.058       75.731       13.798        0.033      339.072       12.155      864.754
04/28/2013  03:40:00      -98.624      -51.912       -1.674       28.982       26.638       18.245      839.985      709.573      332.896        0.715        0.094      111.451       10.652        0.009      339.059       12.132      864.748
04/28/2013  03:41:00      -77.072      -47.427        2.726       37.242       29.382       19.150     1386.971      863.309      366.711        0.541        0.131       90.495       20.445        0.051      339.039       12.098      864.727
04/28/2013  03:42:00      -95.012      -71.289        5.624       45.486       37.273       29.970     2069.009     1389.312      898.196        0.925        0.218      118.783       26.728        0.051      339.106       12.211      864.718
04/28/2013  03:43:00     -127.972      -93.243       -1.090       45.186       32.098       25.164     2041.751     1030.310      633.227        1.439        0.185      158.339       25.792        0.027      339.276       12.499      864.705
04/28/2013  03:44:00     -114.450      -86.506        3.054       67.163       52.555       32.287     4510.885     2762.025     1042.472        1.445        0.416      143.464       31.960        0.050      339.312       12.557      864.704
04/28/2013  03:45:00     -133.431      -83.468       -0.166       69.298       59.129       36.124     4802.260     3496.224     1304.912        1.719        0.480      157.387       43.621        0.077      339.195       12.361      864.707
04/28/2013  03:46:00     -171.480     -133.135      -12.003       77.473       70.446       43.647     6002.141     4962.661     1905.055        3.007        0.643      217.095       42.513        0.038      339.212       12.387      864.704
04/28/2013  03:47:00     -110.345      -76.955        9.259       74.497       66.000       33.652     5549.800     4356.020     1132.481        1.461        0.552      134.529       30.187        0.050      339.358       12.635      864.703
04/28/2013  03:48:00      -77.246      -74.420       13.421       63.704       38.720       34.333     4058.237     1499.255     1178.727        0.921        0.337      107.263       37.052        0.119      339.262       12.474      864.696
04/28/2013  03:49:00     -100.261      -71.962       -0.785       56.408       40.074       28.274     3181.880     1605.951      799.413        1.041        0.279      123.413       26.759        0.047      339.148       12.283      864.687
04/28/2013  03:50:00      -96.310      -40.815       -3.323       49.348       36.089       24.803     2435.233     1302.416      615.182        0.765        0.218      104.601       21.046        0.040      339.142       12.273      864.681
04/28/2013  03:51:00     -137.369      -69.671        0.370       73.980       62.495       34.601     5473.036     3905.636     1197.254        1.715        0.529      154.027       31.649        0.042      339.038       12.097      864.677
04/28/2013  03:52:00     -120.639      -10.855       -4.769       65.715       41.766       27.063     4318.441     1744.403      732.421        1.074        0.340      121.126       31.211        0.066      338.984       12.008      864.665
04/28/2013  03:53:00     -146.486      -57.345       -7.475       43.742       62.459       33.787     1913.391     3901.121     1141.535        1.588        0.348      157.311       30.306        0.037      338.929       11.916      864.670
04/28/2013  03:54:00     -167.969      -98.746      -15.822       46.306       32.377       25.155     2144.255     1048.267      632.761        2.102        0.191      194.844       26.414        0.018      338.918       11.895      864.671
04/28/2013  03:55:00     -183.047      -79.839      -16.828       47.551       58.125       33.274     2261.099     3378.467     1107.140        2.345        0.337      199.701       28.869        0.021      338.911       11.882      864.662
04/28/2013  03:56:00     -108.448      -81.271        8.500       69.473       50.819       35.949     4826.503     2582.607     1292.359        1.357        0.435      135.522       28.116        0.043      338.922       11.903      864.662
04/28/2013  03:57:00      -91.646     -119.426        1.551       47.383       59.155       30.438     2245.160     3499.357      926.461        1.467        0.334      150.537       25.042        0.028      339.047       12.113      864.663
04/28/2013  03:58:00     -135.329      -99.676        3.936       71.538       60.014       34.922     5117.631     3601.723     1219.523        1.910        0.497      168.075       38.753        0.053      339.086       12.178      864.656
04/28/2013  03:59:00     -126.265      -86.999       -9.269       59.169       65.627       39.068     3500.940     4306.942     1526.295        1.646        0.467      153.335       37.508        0.060      338.970       11.982      864.656
04/28/2013  04:00:00     -102.368     -115.818       15.242       83.367       60.568       41.127     6950.063     3668.450     1691.470        1.822        0.615      154.574       44.059        0.081      338.961       11.967      864.666
04/28/2013  04:01:00     -131.562      -60.585      -10.949       40.451       64.657       31.997     1636.252     4180.532     1023.831        1.397        0.342      144.842       22.845        0.025      338.949       11.947      864.659
04/28/2013  04:02:00      -70.530      -55.480       -4.988       60.640       41.232       20.935     3677.197     1700.117      438.255        0.695        0.291       89.736       24.708        0.076      338.908       11.879      864.649
04/28/2013  04:03:00     -101.319      -38.089      -18.782       37.289       23.892       17.068     1390.483      570.814      291.305        0.716        0.113      108.242       18.074        0.028      338.884       11.838      864.646
04/28/2013  04:04:00      -47.545      -52.861      -11.074       22.093       31.010       14.828      488.113      961.617      219.857        0.342        0.083       71.097        8.440        0.014      338.945       11.940      864.647
04/28/2013  04:05:00      -18.844      -71.294        2.221       22.953       38.225       17.953      526.818     1461.123      322.313        0.388        0.116       73.742        9.796        0.018      338.967       11.977      864.656
04/28/2013  04:06:00      -25.544      -68.330        2.100       40.585       19.459       21.058     1647.149      378.662      443.450        0.390        0.123       72.948       18.513        0.064      338.956       11.960      864.658
04/28/2013  04:07:00      -27.143      -67.611        9.134       38.180       45.932       20.064     1457.731     2109.731      402.560        0.468        0.199       72.856       16.035        0.048      338.974       11.990      864.660
04/28/2013  04:08:00      -86.984     -110.610       -2.212       56.572       49.019       36.458     3200.380     2402.897     1329.161        1.337        0.347      140.716       34.492        0.060      338.902       11.869      864.671
04/28/2013  04:09:00      -38.384      -68.266       13.225       62.192       38.820       34.874     3867.793     1507.015     1216.169        0.645        0.330       78.317       26.654        0.116      338.930       11.917      864.670
04/28/2013  04:10:00      -59.445      -57.999        3.967       68.682       40.352       24.507     4717.153     1628.303      600.602        0.693        0.347       83.052       10.018        0.015      338.961       11.969      864.664
04/28/2013  04:11:00      -45.507      -47.272       -3.065       68.137       43.966       32.029     4642.587     1933.023     1025.849        0.596        0.380       65.616       29.512        0.202      338.952       11.953      864.664
04/28/2013  04:12:00       18.632      -38.072       15.891       41.984       44.749       26.814     1762.694     2002.469      719.001        0.327        0.224       42.386       24.721        0.340      338.986       12.011      864.669
04/28/2013  04:13:00      -30.468      -44.888        2.424       53.363       30.864       24.978     2847.586      952.595      623.917        0.369        0.221       54.252       21.789        0.161      338.963       11.971      864.670
04/28/2013  04:14:00      -76.512      -42.618        3.998       56.623       45.057       28.914     3206.201     2030.126      836.039        0.688        0.304       87.580       27.058        0.095      338.831       11.749      864.682
04/28/2013  04:15:00      -76.975      -45.332        5.776       45.075       34.749       23.208     2031.784     1207.507      538.628        0.590        0.189       89.332       19.627        0.048      338.805       11.706      864.700
04/28/2013  04:16:00      -99.315      -59.355        3.905       51.575       38.241       24.352     2660.018     1462.348      593.014        0.906        0.236      115.700       24.864        0.046      338.781       11.666      864.708
04/28/2013  04:17:00      -66.482      -65.663       10.239       51.233       39.836       28.825     2624.853     1586.905      830.876        0.694        0.252       93.442       27.133        0.084      338.761       11.632      864.709
04/28/2013  04:18:00      -90.367      -83.298        3.231       52.613       41.885       28.801     2768.176     1754.339      829.482        1.023        0.268      122.901       32.610        0.070      338.848       11.778      864.715
04/28/2013  04:19:00     -113.171     -100.821       -4.827       42.012       31.769       26.471     1764.972     1009.258      700.689        1.323        0.174      151.567       20.148        0.018      338.940       11.933      864.722
04/28/2013  04:20:00     -124.811      -89.568       -7.590       47.006       38.221       28.540     2209.601     1460.848      814.556        1.407        0.224      153.623       20.754        0.018      339.041       12.102      864.715
04/28/2013  04:21:00     -118.781      -89.573        2.789       46.935       39.873       32.108     2202.920     1589.845     1030.896        1.348        0.241      148.769       28.142        0.036      338.929       11.914      864.704
04/28/2013  04:22:00     -109.469      -63.655       -0.131       51.821       52.076       28.660     2685.433     2711.871      821.400        1.113        0.311      126.631       29.231        0.053      338.921       11.900      864.695
04/28/2013  04:23:00     -117.928      -19.706       -8.887       37.086       27.890       19.537     1375.386      777.873      381.690        0.845        0.127      119.563       19.219        0.026      338.653       11.451      864.696
04/28/2013  04:24:00     -152.569      -13.634      -10.614       41.472       30.913       23.612     1719.947      955.611      557.519        1.340        0.162      153.177       23.944        0.024      338.531       11.246      864.695
04/28/2013  04:25:00     -101.398      -24.272        4.150       44.816       39.161       26.326     2008.501     1533.607      693.060        0.756        0.212      104.263       24.220        0.054      338.415       11.052      864.694
04/28/2013  04:26:00     -120.249      -26.003        0.085       42.385       37.124       21.901     1796.488     1378.157      479.651        0.939        0.183      123.029       23.377        0.036      338.480       11.161      864.712
04/28/2013  04:27:00      -97.185      -33.275       -1.466       38.663       37.257       17.688     1494.830     1388.059      312.878        0.687        0.160      102.724       16.261        0.025      338.675       11.487      864.718
04/28/2013  04:28:00     -133.444      -19.163       -1.018       38.422       34.742       22.859     1476.236     1206.998      522.516        1.069        0.160      134.813       22.492        0.028      338.455       11.118      864.724
04/28/2013  04:29:00     -153.056      -31.814       -1.906       40.719       29.973       19.273     1658.039      898.394      371.448        1.368        0.146      156.328       16.956        0.012      338.418       11.056      864.726
04/28/2013  04:30:00      -95.962      -34.286        8.947       47.466       46.901       25.156     2253.047     2199.747      632.802        0.777        0.254      101.903       26.817        0.069      338.369       10.973      864.723
04/28/2013  04:31:00     -114.795      -53.634        6.072       53.126       36.780       28.376     2822.412     1352.779      805.198        1.053        0.249      126.706       29.533        0.054      338.470       11.144      864.720
04/28/2013  04:32:00     -154.875      -64.505        0.462       49.481       32.027       23.060     2448.388     1025.710      531.771        1.608        0.200      167.771       24.484        0.021      338.428       11.071      864.707
04/28/2013  04:33:00      -97.583      -29.432        6.407       53.977       39.633       25.692     2913.493     1570.758      660.093        0.779        0.257      101.925       28.647        0.079      338.449       11.108      864.704
04/28/2013  04:34:00      -93.008      -48.419        6.967       48.990       35.717       25.297     2399.992     1275.679      639.961        0.768        0.216      104.857       22.936        0.048      338.488       11.172      864.682
04/28/2013  04:35:00     -104.968      -74.508        1.052       38.894       37.689       18.486     1512.771     1420.490      341.717        0.992        0.164      128.723       13.677        0.011      338.591       11.345      864.673
04/28/2013  04:36:00     -159.273     -131.722        0.449       49.108       48.460       38.071     2411.605     2348.332     1449.387        2.446        0.310      206.685       30.548        0.022      338.581       11.327      864.664
04/28/2013  04:37:00     -126.050     -108.017        5.874       67.595       51.311       32.926     4569.027     2632.771     1084.103        1.794        0.414      166.001       31.614        0.036      338.565       11.302      864.663
04/28/2013  04:38:00     -126.727     -104.810        6.294       71.474       66.788       39.291     5108.576     4460.576     1543.779        1.910        0.556      164.453       35.500        0.047      338.546       11.270      864.656
04/28/2013  04:39:00     -163.514      -83.626        1.182       77.264       52.421       41.744     5969.745     2747.944     1742.562        2.209        0.523      183.658       45.709        0.062      338.549       11.274      864.648
04/28/2013  04:40:00     -153.802     -118.507       -7.223       55.379       62.094       32.696     3066.853     3855.606     1069.051        2.287        0.400      194.162       28.265        0.021      338.535       11.251      864.661
04/28/2013  04:41:00     -104.492      -98.614       -6.143       67.894       44.955       29.270     4609.631     2020.982      856.761        1.408        0.374      143.678       28.059        0.038      338.530       11.245      864.665
04/28/2013  04:42:00     -109.663      -63.301        1.038       55.445       40.281       26.550     3074.129     1622.597      704.900        1.072        0.270      126.621       24.702        0.038      338.479       11.158      864.654
04/28/2013  04:43:00     -150.193     -112.471      -13.769       41.480       55.318       33.727     1720.609     3060.108     1137.500        2.066        0.296      187.637       28.385        0.023      338.522       11.229      864.644
04/28/2013  04:44:00      -99.642     -100.980       -7.533       54.035       49.533       28.702     2919.831     2453.543      823.807        1.319        0.310      141.864       30.631        0.047      338.507       11.205      864.639
04/28/2013  04:45:00      -88.485     -111.807        3.525       63.400       49.647       32.850     4019.552     2464.789     1079.140        1.395        0.378      142.585       36.903        0.067      338.535       11.251      864.627
04/28/2013  04:46:00     -159.532     -126.560       -8.025       70.652       67.683       33.074     4991.743     4581.016     1093.912        2.610        0.533      203.637       32.357        0.025      338.519       11.224      864.602
04/28/2013  04:47:00     -142.741      -94.898       -0.059       60.775       65.992       32.032     3693.658     4354.943     1026.017        1.923        0.454      171.408       32.820        0.037      338.482       11.162      864.599
04/28/2013  04:48:00     -135.036      -78.963        0.282       65.601       51.341       31.242     4303.457     2635.892      976.076        1.619        0.396      156.428       27.467        0.031      338.415       11.050      864.605
04/28/2013  04:49:00     -159.641      -91.860       -2.025       54.207       50.882       38.061     2938.427     2589.026     1448.646        2.045        0.349      184.183       32.042        0.030      338.404       11.031      864.600
04/28/2013  04:50:00     -140.949      -99.765      -11.955       48.164       51.433       33.228     2319.809     2645.394     1104.086        1.801        0.303      172.684       30.538        0.031      338.388       11.005      864.600
04/28/2013  04:51:00     -140.215     -121.331        6.238       67.690       58.317       41.953     4581.884     3400.851     1760.070        2.208        0.487      185.422       40.806        0.048      338.308       10.868      864.607
04/28/2013  04:52:00     -125.539     -103.712       -7.770       90.209       66.235       35.038     8137.739     4387.087     1227.668        2.016        0.688      162.838       39.123        0.058      338.389       11.006      864.603
04/28/2013  04:53:00     -178.103      -79.556      -10.327       65.707       46.908       33.760     4317.392     2200.322     1139.761        2.291        0.383      195.064       32.467        0.028      338.379       10.987      864.596
04/28/2013  04:54:00     -149.309      -29.772       -9.598       55.573       39.079       30.645     3088.309     1527.183      939.122        1.441        0.278      152.248       31.334        0.042      338.302       10.860      864.582
04/28/2013  04:55:00     -175.461      -62.745       -4.385       63.145       56.976       24.676     3987.228     3246.220      608.919        2.129        0.392      186.343       27.335        0.022      338.222       10.725      864.572
04/28/2013  04:56:00     -184.355      -94.085        4.918       51.172       46.788       30.446     2618.588     2189.117      926.954        2.430        0.287      206.975       32.436        0.025      338.164       10.626      864.548
04/28/2013  04:57:00     -145.990      -74.221        2.906       62.866       57.078       30.002     3952.086     3257.936      900.149        1.747        0.406      163.774       33.153        0.041      338.184       10.662      864.545
04/28/2013  04:58:00     -147.323      -54.641       -1.362       68.103       59.675       32.385     4638.075     3561.056     1048.803        1.697        0.462      157.129       39.376        0.063      338.185       10.664      864.545
04/28/2013  04:59:00     -193.170      -57.862       -6.278       38.234       39.260       24.316     1461.873     1541.386      591.279        2.215        0.180      201.650       15.860        0.006      338.151       10.606      864.541
04/28/2013  05:00:00     -170.374      -81.568        0.417       43.177       38.149       28.053     1864.296     1455.338      786.974        1.989        0.205      188.893       26.062        0.019      338.142       10.591      864.549
04/28/2013  05:01:00     -152.420      -61.068        3.362       53.537       28.851       20.852     2866.218      832.365      434.798        1.555        0.207      164.199       24.628        0.022      338.137       10.584      864.551
04/28/2013  05:02:00     -166.595      -57.297       -2.927       41.665       27.012       19.521     1735.948      729.631      381.084        1.695        0.142      176.173       13.207        0.006      338.157       10.618      864.547
04/28/2013  05:03:00     -137.600      -12.727       -0.188       63.596       38.833       30.367     4044.393     1507.970      922.161        1.278        0.324      138.187       34.798        0.063      338.106       10.531      864.556
04/28/2013  05:04:00     -119.793      -47.127        3.984       56.933       43.168       27.147     3241.417     1863.487      736.976        1.121        0.292      128.729       25.309        0.039      338.106       10.532      864.537
04/28/2013  05:05:00     -134.354      -66.665        3.834       41.764       31.211       28.318     1744.218      974.113      801.891        1.301        0.176      149.984       25.225        0.028      338.183       10.660      864.522
04/28/2013  05:06:00     -105.872      -39.677        3.040       39.548       33.973       20.579     1564.019     1154.164      423.484        0.797        0.157      113.063       17.609        0.024      338.155       10.614      864.526
04/28/2013  05:07:00      -98.366      -47.538        3.743       44.835       29.760       21.049     2010.180      885.673      443.062        0.764        0.167      109.251       23.122        0.045      338.194       10.680      864.517
04/28/2013  05:08:00      -88.203      -57.836       -2.824       39.348       28.150       17.476     1548.283      792.450      305.425        0.689        0.132      105.474       14.990        0.020      338.247       10.770      864.525
04/28/2013  05:09:00      -82.406      -29.629       -2.563       25.891       20.472       14.210      670.346      419.113      201.929        0.448        0.065       87.571        9.895        0.013      338.231       10.743      864.537
04/28/2013  05:10:00     -111.530      -49.293       -2.862       26.518       19.456       15.473      703.220      378.529      239.420        0.810        0.066      121.938       12.892        0.011      338.236       10.750      864.550
04/28/2013  05:11:00      -68.472      -20.759       -6.044       37.540       26.331       19.282     1409.233      693.338      371.787        0.381        0.124       71.550       20.297        0.080      338.154       10.614      864.588
04/28/2013  05:12:00      -90.669       -6.331       -3.661       28.955       14.524       17.019      838.408      210.950      289.631        0.481        0.067       90.890       16.863        0.034      338.016       10.381      864.614
04/28/2013  05:13:00     -114.247      -29.526       -8.358       15.924       14.003       11.203      253.581      196.082      125.497        0.728        0.029      118.001        2.859        0.001      338.136       10.582      864.629
04/28/2013  05:14:00      -82.371      -39.458        6.192       28.071       19.525       15.864      787.994      381.219      251.658        0.490        0.071       91.334       16.850        0.034      338.197       10.686      864.638
04/28/2013  05:15:00      -82.036      -40.965        0.096       31.341       26.272       16.723      982.278      690.207      279.655        0.518        0.098       91.695       14.453        0.025      338.263       10.795      864.633
04/28/2013  05:16:00     -112.169      -38.740        2.380       43.276       30.061       20.514     1872.834      903.637      420.835        0.864        0.160      118.671       21.768        0.034      338.233       10.746      864.618
04/28/2013  05:17:00      -75.222      -52.040       -2.167       33.129       29.785       15.812     1097.559      887.145      250.004        0.530        0.112       91.468       10.714        0.014      338.237       10.751      864.617
04/28/2013  05:18:00      -78.461      -33.055        0.916       38.066       23.677       16.281     1449.021      560.582      265.063        0.476        0.114       85.139       18.181        0.046      338.202       10.693      864.613
04/28/2013  05:19:00      -69.219      -42.715        1.338       37.151       28.718       17.086     1380.233      824.748      291.919        0.456        0.125       81.338       14.147        0.030      338.154       10.612      864.605
04/28/2013  05:20:00      -82.299      -52.508       -1.234       45.136       34.894       19.023     2037.236     1217.589      361.865        0.657        0.181       97.623       14.111        0.021      338.276       10.818      864.610
04/28/2013  05:21:00      -70.279      -52.128        6.426       33.963       26.960       16.192     1153.510      726.859      262.187        0.492        0.107       87.501       13.525        0.024      338.317       10.887      864.621
04/28/2013  05:22:00      -35.995      -49.915       10.514       44.671       30.455       20.351     1995.464      927.534      414.159        0.362        0.167       61.540       27.260        0.196      338.408       11.040      864.612
04/28/2013  05:23:00      -41.783      -43.605        0.602       47.800       22.970       24.972     2284.802      527.635      623.595        0.354        0.172       60.392       23.835        0.156      338.375       10.982      864.612
04/28/2013  05:24:00      -72.440      -73.359      -11.592       45.132       41.715       32.424     2036.889     1740.149     1051.291        0.779        0.241      103.097       28.068        0.074      338.351       10.943      864.609
04/28/2013  05:25:00      -85.754      -96.734       -5.529       43.364       39.282       27.938     1880.435     1543.047      780.542        1.047        0.210      129.272       17.882        0.019      338.442       11.096      864.614
04/28/2013  05:26:00     -133.372      -98.152       -9.215       72.973       44.564       30.897     5325.118     1985.965      954.613        1.788        0.413      165.595       26.853        0.026      338.350       10.940      864.616
04/28/2013  05:27:00     -131.998     -103.845        2.602       66.481       47.060       35.682     4419.713     2214.640     1273.195        1.806        0.395      167.950       34.202        0.041      338.319       10.888      864.608
04/28/2013  05:28:00     -115.660     -101.493       -8.906       45.960       49.901       29.002     2112.279     2490.079      841.096        1.460        0.272      153.877       26.032        0.029      338.305       10.867      864.619
04/28/2013  05:29:00      -93.976      -78.091        4.109       47.084       36.107       27.026     2216.921     1303.707      730.378        0.960        0.213      122.187       25.302        0.043      338.245       10.766      864.637
04/28/2013  05:30:00      -90.850      -48.751        1.971       40.480       27.379       21.078     1638.644      749.611      444.280        0.673        0.142      103.104       21.461        0.043      338.244       10.764      864.648
04/28/2013  05:31:00      -91.764      -65.003        0.225       31.983       25.929       20.328     1022.901      672.321      413.240        0.738        0.105      112.454       19.567        0.030      338.266       10.800      864.648
04/28/2013  05:32:00     -116.069      -59.290       -2.570       43.625       29.244       21.996     1903.163      855.197      483.825        1.012        0.162      130.335       13.560        0.011      338.250       10.773      864.648
04/28/2013  05:33:00     -133.460      -70.435       -2.787       37.765       27.316       20.352     1426.226      746.162      414.220        1.268        0.129      150.907       21.322        0.020      338.211       10.709      864.649
04/28/2013  05:34:00      -67.656      -55.482       14.232       71.998       47.940       34.459     5183.694     2298.266     1187.450        0.826        0.433       87.496       39.992        0.209      338.172       10.641      864.653
04/28/2013  05:35:00     -186.272     -125.092       -5.815       79.263       48.949       40.872     6282.568     2396.041     1670.508        3.036        0.517      224.378       38.251        0.029      338.183       10.657      864.643
04/28/2013  05:36:00     -161.651      -99.787       -7.185       56.357       57.963       33.622     3176.079     3359.660     1130.436        2.190        0.383      189.969       33.043        0.030      338.158       10.618      864.637
04/28/2013  05:37:00     -174.848     -139.556       -6.094       77.111       54.253       45.013     5946.094     2943.396     2026.185        3.050        0.546      223.714       44.709        0.040      338.127       10.564      864.649
04/28/2013  05:38:00     -154.818     -134.263       -3.025       80.732       63.602       39.265     6517.597     4045.260     1541.766        2.705        0.605      204.927       38.426        0.035      338.096       10.511      864.655
04/28/2013  05:39:00     -183.374     -147.071       -5.376       61.088       58.565       37.777     3731.726     3429.890     1427.135        3.194        0.429      235.066       26.783        0.013      338.081       10.485      864.665
04/28/2013  05:40:00     -103.133      -94.115        7.068       64.021       40.462       29.449     4098.709     1637.192      867.231        1.307        0.330      139.621       27.719        0.039      338.084       10.494      864.664
04/28/2013  05:41:00      -63.517      -72.641       -3.333       38.489       32.543       22.970     1481.404     1059.039      527.598        0.619        0.153       96.494       15.976        0.027      338.175       10.648      864.672
04/28/2013  05:42:00      -87.963      -44.074        2.596       61.339       47.118       28.996     3762.412     2220.103      840.781        0.825        0.341       98.387       29.922        0.092      338.089       10.504      864.677
04/28/2013  05:43:00     -100.905      -12.851       -7.107       47.124       34.448       21.958     2220.670     1186.674      482.149        0.714        0.194      101.720       20.262        0.040      337.941       10.257      864.686
04/28/2013  05:44:00     -132.499      -43.300      -16.044       28.347       22.314       17.630      803.528      497.934      310.830        1.065        0.081      139.394       12.176        0.008      337.968       10.299      864.683
04/28/2013  05:45:00     -112.370      -53.572       -0.339       31.086       26.247       18.949      966.314      688.903      359.067        0.876        0.101      124.487        9.426        0.006      338.016       10.383      864.662
04/28/2013  05:46:00     -101.336      -90.207      -10.596       31.656       23.708       13.957     1002.122      562.055      194.785        1.014        0.088      135.670       13.367        0.010      338.058       10.454      864.649
04/28/2013  05:47:00     -132.492      -83.998        3.492       84.579       42.163       34.063     7153.568     1777.721     1160.277        1.735        0.505      156.876       45.975        0.086      337.960       10.285      864.638
04/28/2013  05:48:00     -151.779      -58.436       -4.587       33.743       29.701       27.049     1138.593      882.153      731.631        1.461        0.138      162.639       19.939        0.015      337.943       10.258      864.615
04/28/2013  05:49:00     -143.956      -77.029       -2.385       55.294       37.914       23.981     3057.432     1437.490      575.071        1.587        0.253      163.270       25.905        0.025      337.905       10.194      864.608
04/28/2013  05:50:00     -143.657     -117.929       -6.070       79.392       45.908       39.705     6303.136     2107.540     1576.465        2.228        0.499      185.862       36.522        0.039      337.910       10.202      864.603
04/28/2013  05:51:00     -132.789     -100.821       -5.874       63.533       61.913       33.746     4036.500     3833.189     1138.807        1.842        0.450      166.726       36.643        0.048      337.893       10.172      864.595
04/28/2013  05:52:00     -143.530     -116.378        3.840       58.888       43.296       29.704     3467.753     1874.507      882.336        2.019        0.311      184.783       29.941        0.026      337.877       10.146      864.583
04/28/2013  05:53:00     -121.882     -113.687       -7.253       59.122       51.094       35.732     3495.429     2610.585     1276.759        1.761        0.369      166.673       29.506        0.031      337.876       10.146      864.579
04/28/2013  05:54:00     -115.118      -43.687        2.853       57.196       39.465       25.641     3271.343     1557.477      657.468        1.033        0.274      123.129       26.089        0.045      337.909       10.201      864.573
04/28/2013  05:55:00     -122.078      -75.300        2.012       49.804       43.658       30.899     2480.395     1906.026      954.766        1.296        0.267      143.433       27.219        0.036      337.908       10.201      864.558
04/28/2013  05:56:00     -105.377      -78.417       -3.155       42.426       36.840       22.004     1799.936     1357.200      484.167        1.045        0.182      131.353       14.626        0.012      337.940       10.253      864.548
04/28/2013  05:57:00      -62.152      -51.764       10.644       49.107       32.703       22.223     2411.468     1069.457      493.874        0.531        0.199       80.885       24.707        0.093      337.920       10.219      864.529
04/28/2013  05:58:00     -117.024      -96.776        1.323       68.213       53.609       32.959     4652.964     2873.899     1086.296        1.584        0.431      151.856       33.437        0.048      337.911       10.205      864.528
04/28/2013  05:59:00     -145.233     -109.237        2.541       61.390       51.496       37.946     3768.759     2651.861     1439.919        2.044        0.393      181.728       39.317        0.047      337.857       10.114      864.519
04/28/2013  06:00:00     -120.611     -109.176       -1.500       71.799       47.079       39.913     5155.144     2216.447     1593.035        1.771        0.448      162.685       38.391        0.056      337.861       10.120      864.516
04/28/2013  06:01:00     -106.472      -87.703        0.529       71.673       51.937       37.926     5137.059     2697.496     1438.400        1.415        0.464      137.943       41.278        0.090      337.843       10.091      864.523
04/28/2013  06:02:00      -92.363      -33.632       -3.470       55.757       48.118       21.985     3108.822     2315.381      483.346        0.779        0.295       98.295       19.300        0.039      337.808       10.032      864.538
04/28/2013  06:03:00     -166.518      -60.140       -9.457       36.020       39.954       21.520     1297.442     1596.284      463.102        1.740        0.168      177.045       12.951        0.005      337.684        9.824      864.540
04/28/2013  06:04:00     -131.340      -78.045        3.607       59.324       41.070       30.360     3519.309     1686.705      921.741        1.474        0.306      152.779       36.442        0.057      337.665        9.793      864.537
04/28/2013  06:05:00     -109.080      -69.583       -2.473       52.288       24.629       24.088     2734.054      606.571      580.219        1.033        0.196      129.384       26.363        0.042      337.714        9.874      864.542
04/28/2013  06:06:00     -113.877      -80.045       -8.717       37.725       30.443       20.250     1423.177      926.791      410.053        1.111        0.138      139.195       19.575        0.020      337.743        9.924      864.528
04/28/2013  06:07:00      -91.185      -51.549        0.436       46.436       41.773       19.965     2156.262     1744.983      398.582        0.764        0.215      104.748       23.080        0.049      337.769        9.966      864.509
04/28/2013  06:08:00     -102.470      -55.229       -2.320       40.372       42.597       24.435     1629.859     1814.481      597.082        0.880        0.202      116.405       25.624        0.048      337.797       10.013      864.517
04/28/2013  06:09:00     -134.692      -60.506       -9.556       65.807       44.577       32.493     4330.615     1987.112     1055.771        1.463        0.369      147.658       41.954        0.081      337.823       10.054      864.522
04/28/2013  06:10:00     -118.337      -66.031        6.637       68.585       58.006       33.198     4703.911     3364.732     1102.109        1.379        0.459      135.513       41.795        0.095      337.759        9.950      864.528
04/28/2013  06:11:00     -149.627     -104.760       -5.604       55.012       43.496       39.607     3026.300     1891.941     1568.709        1.994        0.324      182.655       29.915        0.027      337.787        9.996      864.552
04/28/2013  06:12:00     -145.448     -128.167       -8.040       53.923       52.832       36.766     2907.636     2791.183     1351.710        2.235        0.353      193.861       36.576        0.036      337.838       10.080      864.569
04/28/2013  06:13:00     -121.497      -95.380       -1.739       75.590       53.837       41.006     5713.864     2898.465     1681.497        1.708        0.515      154.463       39.909        0.067      337.883       10.156      864.572
04/28/2013  06:14:00     -100.348      -36.707        6.261       86.086       57.586       40.460     7410.875     3316.173     1637.015        1.191        0.618      106.851       42.606        0.159      337.931       10.239      864.577
04/28/2013  06:15:00     -157.731     -103.947       -2.017       62.581       55.248       36.620     3916.331     3052.345     1341.036        2.200        0.415      188.902       31.448        0.028      337.901       10.186      864.579
04/28/2013  06:16:00     -113.913      -78.861        0.853       60.135       49.997       34.478     3616.257     2499.690     1188.717        1.325        0.365      138.547       36.802        0.071      337.880       10.153      864.569
04/28/2013  06:17:00     -112.316     -101.095        2.233       58.366       48.908       32.763     3406.631     2391.955     1073.417        1.485        0.344      151.113       30.704        0.041      337.877       10.148      864.576
04/28/2013  06:18:00     -111.584      -92.709        3.127       58.465       49.519       32.597     3418.142     2452.157     1062.578        1.399        0.347      145.072       30.022        0.043      337.914       10.209      864.584
04/28/2013  06:19:00     -120.994      -37.836       -7.338       68.664       33.542       26.521     4714.751     1125.072      703.351        1.133        0.327      126.772       33.992        0.072      337.907       10.199      864.581
04/28/2013  06:20:00      -78.954      -51.478       -2.759       44.635       28.299       25.247     1992.252      800.823      637.411        0.616        0.172       94.254       23.885        0.064      337.909       10.201      864.570
04/28/2013  06:21:00      -90.168      -62.020        3.708       49.192       42.875       26.738     2419.809     1838.261      714.943        0.848        0.249      109.438       21.833        0.040      337.914       10.210      864.567
04/28/2013  06:22:00     -150.863     -113.274       -8.557       72.159       61.254       32.229     5206.967     3752.024     1038.710        2.283        0.500      188.655       37.441        0.039      337.861       10.117      864.558
04/28/2013  06:23:00     -151.164      -48.210       -8.700       48.353       37.764       27.715     2338.024     1426.133      768.145        1.489        0.227      158.665       24.857        0.025      337.847       10.097      864.554
04/28/2013  06:24:00     -171.585      -74.066      -15.498       55.028       45.541       30.629     3028.126     2073.991      938.141        2.060        0.302      186.888       28.455        0.023      337.850       10.102      864.552
04/28/2013  06:25:00      -78.946      -15.635        1.482       41.048       29.053       22.871     1684.924      844.068      523.078        0.476        0.153       80.479       21.500        0.071      337.846       10.097      864.558
04/28/2013  06:26:00      -67.670      -30.406        4.989       42.318       46.829       25.673     1790.825     2192.970      659.089        0.508        0.232       74.187       26.041        0.123      337.806       10.029      864.563
04/28/2013  06:27:00      -72.568      -56.980       -3.403       51.496       27.944       19.588     2651.798      780.894      383.696        0.617        0.191       92.265       20.707        0.050      337.829       10.067      864.575
04/28/2013  06:28:00      -81.221      -49.292        7.872       49.920       28.784       26.477     2491.962      828.512      701.025        0.655        0.201       95.008       28.961        0.093      337.824       10.060      864.595
04/28/2013  06:29:00     -123.456      -83.224       -2.968       46.018       43.486       28.371     2117.650     1890.993      804.893        1.349        0.241      148.888       26.473        0.032      337.733        9.907      864.610
04/28/2013  06:30:00      -65.667      -48.270        5.513       52.438       46.694       28.065     2749.744     2180.342      787.658        0.619        0.286       81.499       26.614        0.107      337.743        9.923      864.623
04/28/2013  06:31:00      -88.545      -58.962       -2.739       48.140       34.554       14.650     2317.461     1193.995      214.612        0.752        0.186      106.381       13.847        0.017      337.733        9.907      864.628
04/28/2013  06:32:00     -101.556      -93.375       -2.973       61.142       49.898       25.388     3738.392     2489.845      644.555        1.296        0.344      137.958       26.421        0.037      337.739        9.917      864.630
04/28/2013  06:33:00     -119.980      -85.811        1.054       54.323       38.315       31.528     2950.990     1468.014      993.991        1.359        0.271      147.508       26.705        0.033      337.743        9.924      864.640
04/28/2013  06:34:00     -131.054     -103.241        5.633       66.406       49.540       35.883     4409.744     2454.205     1287.603        1.801        0.408      166.835       28.910        0.030      337.681        9.819      864.644
04/28/2013  06:35:00      -91.386      -56.329        6.612       80.500       57.562       30.368     6480.265     3313.340      922.230        1.114        0.536      107.351       37.628        0.123      337.753        9.940      864.648
04/28/2013  06:36:00     -127.245      -98.266       -7.783       56.848       54.283       28.606     3231.659     2946.619      818.304        1.645        0.350      160.772       22.221        0.019      337.694        9.841      864.656
04/28/2013  06:37:00     -144.733     -129.513      -10.327       59.095       48.711       25.497     3492.241     2372.749      650.119        2.217        0.326      194.219       26.611        0.019      337.641        9.750      864.660
04/28/2013  06:38:00     -148.456     -119.479      -10.571       50.215       49.521       27.751     2521.549     2452.290      770.135        2.108        0.287      190.563       18.758        0.010      337.632        9.735      864.679
04/28/2013  06:39:00     -126.070      -79.836       -0.628       57.425       45.861       33.752     3297.679     2103.229     1139.166        1.440        0.327      149.223       31.254        0.044      337.667        9.797      864.692
04/28/2013  06:40:00     -114.447      -73.870       -0.596       56.620       39.065       22.855     3205.861     1526.064      522.349        1.190        0.263      136.217       27.235        0.040      337.687        9.830      864.710
04/28/2013  06:41:00      -71.591      -85.605        6.362       42.441       51.093       22.156     1801.201     2610.463      490.876        0.870        0.245      111.595        9.589        0.007      337.752        9.938      864.716
04/28/2013  06:42:00     -109.250      -90.028       -2.224       61.323       54.380       26.222     3760.530     2957.171      687.611        1.372        0.370      141.565       27.628        0.038      337.700        9.851      864.714
04/28/2013  06:43:00     -103.457     -103.549       -3.587       46.245       42.509       23.160     2138.597     1806.978      536.398        1.296        0.224      146.375       19.008        0.017      337.754        9.943      864.716
04/28/2013  06:44:00     -130.639     -136.414        3.169       77.087       60.165       41.152     5942.390     3619.788     1693.522        2.347        0.563      188.879       40.346        0.046      337.734        9.906      864.706
04/28/2013  06:45:00     -162.612     -125.531       -0.027       81.676       56.659       42.161     6670.897     3210.226     1777.514        2.693        0.583      205.428       44.220        0.046      337.711        9.867      864.688
04/28/2013  06:46:00     -129.240     -122.485       -4.539       60.563       50.025       35.812     3667.910     2502.479     1282.480        1.959        0.373      178.061       35.876        0.041      337.748        9.930      864.690
04/28/2013  06:47:00      -94.124      -75.361       -0.030       52.711       40.792       31.528     2778.433     1663.964      993.999        0.999        0.272      120.576       31.376        0.068      337.832       10.072      864.705
04/28/2013  06:48:00     -120.134      -70.178       -3.991       76.477       43.739       33.876     5848.695     1913.137     1147.610        1.414        0.445      139.129       39.818        0.082      337.826       10.063      864.723
04/28/2013  06:49:00     -120.395      -37.166       -1.550       40.318       37.370       25.649     1625.559     1396.511      657.848        0.978        0.184      126.001       21.945        0.030      337.836       10.079      864.735
04/28/2013  06:50:00      -53.888      -49.044        9.250       45.303       38.647       24.191     2052.368     1493.557      585.222        0.476        0.207       72.865       28.865        0.157      337.941       10.254      864.760
04/28/2013  06:51:00      -69.953      -45.062       -1.633       32.357       26.405       16.094     1046.977      697.243      259.029        0.446        0.100       83.211       14.115        0.029      337.937       10.248      864.790
04/28/2013  06:52:00      -43.338      -34.525        7.115       38.887       28.618       23.120     1512.229      818.968      534.557        0.299        0.143       55.409       23.813        0.185      338.008       10.367      864.813
04/28/2013  06:53:00      -52.349      -50.590       10.756       46.826       34.836       29.794     2192.701     1213.555      887.658        0.485        0.215       72.800       28.826        0.157      338.029       10.404      864.820
04/28/2013  06:54:00      -47.297      -51.697        5.319       42.624       41.443       28.344     1816.798     1717.531      803.379        0.464        0.217       70.069       30.704        0.192      337.971       10.306      864.821
04/28/2013  06:55:00      -88.270      -66.699       -0.668       55.912       39.494       25.131     3126.146     1559.807      631.548        0.878        0.266      110.636       23.670        0.046      337.933       10.242      864.816
04/28/2013  06:56:00      -70.653      -71.742        2.754       40.080       50.071       28.167     1606.412     2507.104      793.400        0.753        0.245      100.692       26.160        0.067      338.017       10.383      864.807
04/28/2013  06:57:00      -59.220      -45.703       -3.747       48.297       36.103       23.524     2332.603     1303.439      553.380        0.490        0.209       74.805       26.480        0.125      338.023       10.393      864.793
04/28/2013  06:58:00      -32.883      -37.867       10.177       36.631       34.244       20.006     1341.847     1172.634      400.257        0.277        0.146       50.152       18.429        0.135      338.107       10.533      864.792
04/28/2013  06:59:00      -38.982      -40.394       11.919       46.847       53.437       33.521     2194.627     2855.518     1123.664        0.473        0.309       56.137       29.540        0.277      338.085       10.497      864.769
04/28/2013  07:00:00      -95.107      -58.876      -11.305       49.868       40.373       26.023     2486.769     1629.991      677.194        0.872        0.240      111.856       22.066        0.039      338.002       10.358      864.767
04/28/2013  07:01:00      -27.230      -58.084       17.098       50.986       46.896       30.187     2599.607     2199.236      911.243        0.506        0.286       64.150       24.362        0.144      338.021       10.389      864.765
04/28/2013  07:02:00     -127.767     -107.711       -9.728       61.876       50.616       31.666     3828.594     2562.018     1002.757        1.771        0.370      167.111       31.909        0.036      337.974       10.310      864.769
04/28/2013  07:03:00     -137.011     -119.107      -16.991       39.120       46.723       33.796     1530.379     2183.000     1142.136        1.905        0.243      181.545       18.720        0.011      337.953       10.275      864.767
04/28/2013  07:04:00     -107.110      -94.365       -4.248       48.827       40.123       29.870     2384.056     1609.849      892.213        1.264        0.244      142.750       24.713        0.030      338.005       10.363      864.781
04/28/2013  07:05:00      -98.368      -75.377        7.517       60.055       43.051       33.264     3606.618     1853.379     1106.471        1.099        0.328      123.927       29.176        0.055      338.078       10.485      864.787
04/28/2013  07:06:00     -113.232      -74.875       -9.353       36.686       49.250       25.875     1345.893     2425.557      669.516        1.148        0.222      135.749       21.964        0.026      338.105       10.529      864.800
04/28/2013  07:07:00      -86.397      -80.425        2.939       49.545       46.344       33.647     2454.691     2147.723     1132.116        0.984        0.287      118.037       27.494        0.054      338.112       10.543      864.806
04/28/2013  07:08:00      -55.330      -49.180        4.219       33.449       28.719       20.182     1118.852      824.794      407.320        0.392        0.118       74.028       16.360        0.049      338.142       10.593      864.815
04/28/2013  07:09:00      -36.112      -26.059        7.385       33.036       21.453       20.391     1091.407      460.252      415.800        0.200        0.098       44.533       21.800        0.240      338.353       10.946      864.801
04/28/2013  07:10:00      -39.089       13.240        9.508       25.764       17.682       14.779      663.798      312.669      218.410        0.149        0.060       41.271       12.056        0.085      338.383       10.997      864.792
04/28/2013  07:11:00      -63.029        7.868       -1.379       35.678       16.862       18.268     1272.891      284.324      333.727        0.296        0.095       63.518       22.416        0.125      338.402       11.029      864.793
04/28/2013  07:12:00      -32.988      -15.636       -7.664       21.191       18.388       11.246      449.051      338.122      126.482        0.115        0.046       36.506        9.989        0.075      338.322       10.895      864.791
04/28/2013  07:13:00      -68.713      -34.410       -4.720       29.733       16.085       12.720      884.050      258.742      161.793        0.362        0.065       76.847       10.153        0.017      338.333       10.913      864.793
04/28/2013  07:14:00      -73.729      -32.948       -5.802       21.036       28.207       15.296      442.500      795.631      233.975        0.401        0.074       80.756       10.207        0.016      338.319       10.891      864.795
04/28/2013  07:15:00      -42.637      -35.533       -1.969       42.200       18.713       20.916     1780.810      350.176      437.461        0.283        0.128       55.502       20.545        0.137      338.427       11.072      864.800
04/28/2013  07:16:00      -23.777      -37.213        0.908       20.842       15.511       15.514      434.381      240.576      240.697        0.143        0.046       44.160       12.804        0.084      338.438       11.089      864.812
04/28/2013  07:17:00      -48.721      -11.723       -1.996       16.067       14.523        9.740      258.132      210.920       94.865        0.154        0.028       50.111        6.932        0.019      338.473       11.150      864.828
04/28/2013  07:18:00      -69.419        2.718       -6.890       31.016       15.520       14.069      961.968      240.881      197.943        0.314        0.070       69.472       12.926        0.035      338.428       11.073      864.838
04/28/2013  07:19:00      -91.756        8.778       -8.976       19.396       23.923       13.220      376.204      572.331      174.767        0.485        0.056       92.175        9.565        0.011      338.405       11.034      864.850
04/28/2013  07:20:00      -70.842       -2.873       -2.450       28.709       27.391       14.810      824.188      750.278      219.325        0.341        0.090       70.900       17.589        0.062      338.486       11.172      864.856
04/28/2013  07:21:00      -60.678       -7.800       -7.140       18.929       20.991       10.712      358.326      440.607      114.737        0.235        0.046       61.177        8.632        0.020      338.489       11.175      864.868
04/28/2013  07:22:00      -43.332       35.518      -13.291       14.056       20.304        9.810      197.562      412.261       96.227        0.201        0.035       56.028        5.841        0.011      338.619       11.394      864.886
04/28/2013  07:23:00      -51.509        7.466       -6.135       29.045       20.997       12.175      843.614      440.890      148.236        0.209        0.072       52.047        8.874        0.029      338.702       11.534      864.888
04/28/2013  07:24:00      -41.996       -6.984        9.290       32.341       22.803       16.054     1045.915      519.993      257.729        0.186        0.091       42.573       19.887        0.218      339.051       12.119      864.891
04/28/2013  07:25:00      -25.730        4.624        1.774       21.846       19.532       16.009      477.264      381.492      256.282        0.090        0.056       26.142       13.320        0.260      339.083       12.173      864.892
04/28/2013  07:26:00       -9.417       71.967        5.602       20.727       47.854       22.188      429.600     2289.971      492.302        0.425        0.161       72.580       26.212        0.130      339.180       12.338      864.895
04/28/2013  07:27:00        2.898       15.889       17.234       15.263       21.876       16.568      232.964      478.557      274.508        0.077        0.049       16.151       15.920        0.972      339.405       12.716      864.897
04/28/2013  07:28:00        2.972       39.135        6.077       16.020       28.094       16.298      256.654      789.262      265.621        0.144        0.066       39.248       15.068        0.147      339.126       12.245      864.902
04/28/2013  07:29:00       -1.509       28.775       11.525       16.086       17.115       20.125      258.766      292.921      405.015        0.096        0.048       28.815       11.613        0.162      339.339       12.604      864.909
04/28/2013  07:30:00       16.768       40.835        6.363       24.804       27.817       18.834      615.231      773.797      354.722        0.187        0.087       44.143       18.458        0.175      339.160       12.302      864.922
04/28/2013  07:31:00        0.377       26.832        5.330       23.746       27.747       22.339      563.851      769.920      499.047        0.129        0.092       26.835       17.821        0.441      339.311       12.556      864.949
04/28/2013  07:32:00       16.481       33.167        7.271       17.205       20.989       18.198      296.003      440.544      331.169        0.125        0.053       37.036       13.020        0.124      339.260       12.472      864.962
04/28/2013  07:33:00       -9.527       66.061        3.424       18.298       32.659       18.731      334.825     1066.603      350.843        0.311        0.088       66.745       15.817        0.056      339.263       12.476      864.970
04/28/2013  07:34:00        7.419       51.002        4.674       24.434       27.144       18.782      597.030      736.804      352.759        0.218        0.084       51.539       16.140        0.098      339.276       12.499      864.986
04/28/2013  07:35:00       -4.169       52.363        1.933       18.834       34.049       18.952      354.714     1159.301      359.187        0.232        0.094       52.528       15.681        0.089      339.374       12.664      864.995
04/28/2013  07:36:00        8.370       73.418        0.034       15.096       30.714       23.638      227.896      943.341      558.772        0.359        0.087       73.894       21.737        0.087      339.435       12.766      864.999
04/28/2013  07:37:00       10.130       44.386        7.333       22.608       26.710       22.324      511.121      713.420      498.369        0.192        0.086       45.527       19.283        0.179      339.648       13.127      865.005
04/28/2013  07:38:00       -8.991       58.443       -3.766       18.950       29.473       21.238      359.105      868.628      451.052        0.259        0.084       59.130       11.505        0.038      339.509       12.891      865.018
04/28/2013  07:39:00       -7.349       60.488       -0.598       18.916       43.022       19.364      357.814     1850.853      374.975        0.315        0.129       60.933       17.706        0.084      339.556       12.970      865.039
04/28/2013  07:40:00      -15.342       62.674        4.941       23.520       39.589       23.560      553.169     1567.292      555.065        0.343        0.134       64.525       21.078        0.107      339.575       13.003      865.040
04/28/2013  07:41:00      -10.396      109.969       -8.560       18.181       23.822       16.818      330.545      567.483      282.855        0.673        0.059      110.459       12.735        0.013      339.253       12.460      865.039
04/28/2013  07:42:00       38.748       57.181       -3.769       31.907       26.986       24.536     1018.049      728.268      601.993        0.357        0.117       69.073       13.750        0.040      339.374       12.664      865.031
04/28/2013  07:43:00       19.422       33.976        9.092       22.575       24.179       15.066      509.635      584.632      226.969        0.147        0.066       39.136       12.339        0.099      339.535       12.936      865.022
04/28/2013  07:44:00       -8.012       51.443       12.738       22.008       33.588       25.994      484.355     1128.171      675.690        0.258        0.114       52.064       23.549        0.205      339.841       13.452      865.011
04/28/2013  07:45:00       54.694       22.368       10.667       37.442       25.634       27.416     1401.868      657.126      751.645        0.321        0.141       59.091       21.340        0.130      339.671       13.164      865.007
04/28/2013  07:46:00       29.584       37.620       10.605       41.967       32.474       31.871     1761.234     1054.581     1015.740        0.312        0.192       47.859        8.960        0.035      339.660       13.147      865.004
04/28/2013  07:47:00       37.357       28.947       -4.903       25.022       27.067       16.195      626.083      732.618      262.275        0.194        0.081       47.260       14.265        0.091      339.555       12.969      865.011
04/28/2013  07:48:00       -2.188        9.721       23.518       19.654       18.353       12.954      386.265      336.830      167.813        0.077        0.045        9.965        7.376        0.548      340.288       14.205      865.018
04/28/2013  07:49:00       70.924       40.900       16.107       25.218       15.516       24.674      635.966      240.759      608.800        0.422        0.074       81.872        7.611        0.009      339.615       13.070      865.028
04/28/2013  07:50:00       65.367       52.701       23.908       18.302       15.142       19.211      334.953      229.293      369.053        0.428        0.047       83.965        8.594        0.010      339.444       12.781      865.038
04/28/2013  07:51:00       34.165       34.941       23.012       27.993       23.407       22.119      783.584      547.871      489.229        0.237        0.091       48.869       20.384        0.174      339.881       13.518      865.042
04/28/2013  07:52:00       15.015       25.974       34.400       15.708       17.826       12.210      246.756      317.752      149.094        0.140        0.036       30.001        5.616        0.035      340.101       13.889      865.036
04/28/2013  07:53:00       14.696       28.278       20.213       20.383       27.531       19.555      415.480      757.939      382.412        0.149        0.078       31.869       19.467        0.373      340.328       14.274      865.035
04/28/2013  07:54:00       35.711       43.007        3.480       24.574       32.153       26.788      603.878     1033.804      717.613        0.275        0.118       55.900       22.340        0.160      339.849       13.465      865.037
04/28/2013  07:55:00       45.821       22.375        7.724       19.269       17.442       19.643      371.280      304.213      385.863        0.186        0.053       50.992        8.615        0.029      339.768       13.328      865.035
04/28/2013  07:56:00       42.858       43.763       -0.606       25.835       20.007       26.302      667.442      400.288      691.773        0.276        0.088       61.254       14.815        0.059      339.956       13.645      865.038
04/28/2013  07:57:00        2.686       30.555        0.594       14.773       18.411       26.466      218.231      338.957      700.425        0.110        0.063       30.672       17.244        0.316      340.014       13.743      865.034
04/28/2013  07:58:00       -8.654       15.083       -0.059       21.018       11.494       19.976      441.769      132.115      399.031        0.064        0.049       17.389       16.023        0.849      340.044       13.793      865.026
04/28/2013  07:59:00      -15.618      -17.819       16.250       26.478       30.091       19.912      701.103      905.450      396.488        0.141        0.100       23.695       12.361        0.272      340.130       13.940      865.022
04/28/2013  08:00:00       -7.516       -6.291       33.600       17.945       26.457       20.018      322.014      699.979      400.709        0.132        0.071        9.802       17.548        3.205      340.717       14.932      865.005
04/28/2013  08:01:00       -8.864       23.830       46.993       10.568       25.538       14.339      111.686      652.165      205.605        0.191        0.048       25.425       13.256        0.272      340.568       14.679      864.997
04/28/2013  08:02:00        1.663        5.686       37.698       13.706       18.835       12.954      187.862      354.754      167.807        0.108        0.036        5.924       10.324        3.037      340.426       14.438      864.983
04/28/2013  08:03:00        6.936       14.385       27.228       22.110       22.965       19.901      488.865      527.375      396.066        0.120        0.071       15.970       13.343        0.698      340.187       14.034      864.975
04/28/2013  08:04:00       -1.858       20.331       48.277       22.266       32.069       30.896      495.792     1028.424      954.537        0.261        0.124       20.416       24.087        1.392      340.387       14.373      864.974
04/28/2013  08:05:00       17.624       17.722       34.133       29.635       52.495       32.867      878.237     2755.696     1080.208        0.325        0.236       24.994       26.983        1.166      340.182       14.024      864.983
04/28/2013  08:06:00        4.352       11.480       33.623       24.385       25.522       13.855      594.635      651.383      191.964        0.136        0.072       12.277       10.867        0.783      340.319       14.258      864.985
04/28/2013  08:07:00       -5.667      -24.194       16.251       13.134       14.609       14.704      172.490      213.418      216.219        0.074        0.030       24.849        6.102        0.060      340.065       13.828      864.998
04/28/2013  08:08:00        9.481       10.665       22.674       22.761       19.854       15.043      518.065      394.163      226.292        0.093        0.057       14.270        5.291        0.137      340.304       14.233      865.018
04/28/2013  08:09:00       15.852       35.292       18.931       17.580       23.572       17.571      309.042      555.656      308.752        0.151        0.059       38.688        9.219        0.057      340.009       13.735      865.032
04/28/2013  08:10:00       26.238       -1.124       24.950       22.059       32.092       25.167      486.580     1029.886      633.397        0.173        0.107       26.262       19.943        0.577      340.146       13.966      865.062
04/28/2013  08:11:00       37.346       30.049       22.572       33.529       22.943       26.332     1124.188      526.390      693.398        0.258        0.117       47.934       23.426        0.239      339.891       13.535      865.078
04/28/2013  08:12:00       40.417       16.993        8.632       25.059       17.524       19.478      627.937      307.094      379.390        0.166        0.066       43.844        9.912        0.051      339.830       13.434      865.092
04/28/2013  08:13:00       17.835       -8.656       21.145       25.573       20.545       23.634      653.990      422.116      558.545        0.124        0.082       19.825       17.280        0.760      340.685       14.876      865.098
04/28/2013  08:14:00        8.609       10.535       17.408       14.632       20.613       21.302      214.093      424.890      453.785        0.079        0.055       13.605       11.330        0.694      340.741       14.973      865.086
04/28/2013  08:15:00       12.455       23.538        6.405       19.125       21.683       17.503      365.750      470.159      306.341        0.095        0.057       26.631       16.330        0.376      340.839       15.136      865.071
04/28/2013  08:16:00        7.938        0.434       19.674       22.641       26.587       14.922      512.632      706.885      222.654        0.095        0.072        7.950       12.525        2.482      340.732       14.957      865.061
04/28/2013  08:17:00        7.216        5.664       36.328       15.313       24.501       11.294      234.488      600.295      127.563        0.118        0.048        9.174        5.537        0.364      340.900       15.240      865.048
04/28/2013  08:18:00       -5.486      -30.399       23.492       25.039       55.581       26.810      626.973     3089.298      718.790        0.297        0.222       30.890       14.118        0.209      340.622       14.769      865.027
04/28/2013  08:19:00       30.730      -26.210       16.267       41.353       43.857       41.612     1710.097     1923.441     1731.598        0.363        0.268       40.389       32.029        0.629      340.678       14.865      865.016
04/28/2013  08:20:00        8.797       41.770       49.172       29.782       24.698       20.744      886.989      609.968      430.319        0.308        0.096       42.686       13.076        0.094      340.750       14.987      865.013
04/28/2013  08:21:00       47.676       30.508       34.786       31.494       34.396       26.231      991.851     1183.107      688.053        0.364        0.143       56.602       18.695        0.109      340.280       14.193      865.012
04/28/2013  08:22:00        5.067       10.180       21.861       28.636       29.312       24.802      820.034      859.201      615.140        0.145        0.115       11.371       15.502        1.858      340.806       15.081      865.021
04/28/2013  08:23:00      -13.944      -19.070       35.862       15.983       39.701       19.930      255.441     1576.132      397.205        0.204        0.111       23.624       15.369        0.423      340.965       15.350      865.029
04/28/2013  08:24:00      -29.600        8.153       15.599       25.857       17.447       21.658      668.569      304.409      469.064        0.131        0.072       30.702       12.454        0.165      340.633       14.788      865.039
04/28/2013  08:25:00        7.099      -17.858        2.105       31.131       30.796       20.362      969.126      948.375      414.629        0.135        0.117       19.217       15.601        0.659      340.409       14.411      865.035
04/28/2013  08:26:00      -33.156      -42.948        3.746       35.087       24.806       20.711     1231.073      615.319      428.947        0.262        0.114       54.257       19.546        0.130      340.518       14.594      865.035
04/28/2013  08:27:00      -52.259      -20.556       12.888       40.661       32.696       21.030     1653.354     1069.033      442.240        0.324        0.158       56.157       24.876        0.196      340.822       15.109      865.034
04/28/2013  08:28:00      -18.670      -20.457       17.652       30.554       32.891       19.977      933.538     1081.806      399.080        0.175        0.121       27.696       17.955        0.420      340.731       14.955      865.036
04/28/2013  08:29:00       -9.744       -7.459       17.313       43.702       31.871       25.753     1909.881     1015.747      663.219        0.202        0.179       12.271       17.498        2.033      340.931       15.293      865.035
04/28/2013  08:30:00      -25.773      -28.281        6.628       45.806       34.826       36.141     2098.205     1212.880     1306.181        0.306        0.231       38.263       29.594        0.598      340.870       15.191      865.029
04/28/2013  08:31:00      -10.260      -21.871        2.623       59.477       33.445       28.333     3537.524     1118.594      802.770        0.302        0.273       24.157        9.032        0.140      340.693       14.889      865.027
04/28/2013  08:32:00      -18.994      -16.785       15.235       39.828       26.130       22.520     1586.256      682.799      507.154        0.182        0.139       25.348       22.791        0.808      340.885       15.216      865.026
04/28/2013  08:33:00      -24.684       -7.070       12.397       63.442       41.336       37.741     4024.916     1708.640     1424.398        0.398        0.358       25.677       23.891        0.866      340.888       15.219      865.020
04/28/2013  08:34:00       -7.196       -7.223        9.059       19.296       22.305       22.559      372.316      497.508      508.893        0.078        0.069       10.196       16.443        2.601      341.279       15.881      865.022
04/28/2013  08:35:00       -9.883       19.973        9.112       21.850       22.265       26.349      477.407      495.743      694.265        0.112        0.083       22.285       11.446        0.264      341.260       15.850      865.017
04/28/2013  08:36:00      -20.145        3.267        1.606       20.223       19.315       22.068      408.954      373.051      486.995        0.084        0.063       20.408        9.596        0.221      341.165       15.690      865.016
04/28/2013  08:37:00      -37.325       -2.887       -3.908       32.176       20.484       17.148     1035.273      419.604      294.052        0.158        0.087       37.436       15.001        0.161      340.984       15.383      865.013
04/28/2013  08:38:00      -23.674      -10.685        1.972       19.648       20.878       17.606      386.061      435.909      309.978        0.091        0.057       25.973       12.574        0.234      341.144       15.653      865.016
04/28/2013  08:39:00      -37.621        0.020        4.827       15.241       14.555       10.056      232.283      211.838      101.123        0.099        0.027       37.621        8.059        0.046      340.809       15.086      865.011
04/28/2013  08:40:00      -44.944       25.921       16.364       44.929       35.568       28.355     2018.577     1265.100      804.018        0.352        0.204       51.883       24.065        0.215      341.011       15.430      865.014
04/28/2013  08:41:00      -41.571       12.287        8.918       17.567       17.220       22.419      308.597      296.515      502.630        0.153        0.055       43.349       17.098        0.156      340.782       15.040      865.004
04/28/2013  08:42:00      -32.727       -1.451       11.268       16.689       14.348       22.815      278.518      205.853      520.537        0.110        0.050       32.759       17.270        0.278      341.021       15.447      864.989
04/28/2013  08:43:00       -8.935       29.089       37.510       12.351       25.416       24.661      152.535      645.985      608.168        0.187        0.070       30.431       14.719        0.234      341.544       16.331      864.978
04/28/2013  08:44:00        3.348       28.672       54.341       22.026       27.447       17.520      485.127      753.360      306.937        0.267        0.077       28.867       14.844        0.264      341.497       16.252      864.959
04/28/2013  08:45:00       46.337        3.220       18.887       43.274       31.211       32.743     1872.611      974.114     1072.112        0.322        0.196       46.449       21.884        0.222      340.926       15.285      864.947
04/28/2013  08:46:00       68.588       -7.815       24.210       37.484       27.730       30.151     1405.083      768.930      909.089        0.422        0.154       69.032       22.850        0.110      340.902       15.244      864.929
04/28/2013  08:47:00       19.305      -15.771        9.657       23.916       28.534       25.512      571.982      814.183      650.887        0.138        0.102       24.929       17.097        0.470      341.105       15.588      864.928
04/28/2013  08:48:00        2.640       16.724        0.684       18.853       42.316       25.439      355.425     1790.680      647.132        0.154        0.140       16.932       19.240        1.291      341.196       15.743      864.924
04/28/2013  08:49:00       -7.233       27.373       19.745       18.934       26.831       24.799      358.489      719.882      614.981        0.144        0.085       28.312       15.303        0.292      341.893       16.922      864.933
04/28/2013  08:50:00      -10.701       -2.794       -1.117       18.808       13.354       16.225      353.755      178.341      263.264        0.046        0.040       11.060        9.169        0.687      341.382       16.055      864.949
04/28/2013  08:51:00      -40.165      -49.473      -17.650       75.504       36.665       16.984     5700.799     1344.342      288.466        0.585        0.367       63.724        8.221        0.017      340.994       15.399      864.956
04/28/2013  08:52:00      -76.729      -45.188      -12.904       12.701       13.119       12.514      161.326      172.112      156.588        0.429        0.025       89.047        7.144        0.006      340.962       15.344      864.960
04/28/2013  08:53:00      -38.379      -37.795       -8.127       24.201       19.430       15.497      585.710      377.521      240.167        0.209        0.060       53.865       15.257        0.080      340.986       15.384      864.958
04/28/2013  08:54:00      -30.437      -35.783        7.257       34.016       21.176       18.655     1157.109      448.444      348.012        0.211        0.098       46.977       15.645        0.111      341.162       15.683      864.957
04/28/2013  08:55:00      -81.671      -49.324       -3.994       17.298       15.707       12.762      299.222      246.720      162.869        0.491        0.035       95.409        6.310        0.004      341.016       15.434      864.953
04/28/2013  08:56:00      -53.775      -37.787       -3.165       20.200       16.719       13.670      408.044      279.532      186.880        0.260        0.044       65.724       14.715        0.050      341.059       15.507      864.950
04/28/2013  08:57:00      -53.067      -28.771      -13.596       21.945       18.217       10.534      481.576      331.867      110.975        0.238        0.046       60.364        5.473        0.008      341.118       15.609      864.947
04/28/2013  08:58:00      -13.119       -3.099       20.859       25.161       21.757       21.587      633.064      473.347      465.988        0.109        0.079       13.481       19.031        1.993      341.945       17.013      864.945
04/28/2013  08:59:00      -12.292      -29.347       -1.809       28.593       25.294       15.274      817.544      639.761      233.308        0.135        0.085       31.817       10.580        0.111      341.523       16.295      864.936
04/28/2013  09:00:00      -15.695      -27.849        6.269       32.978       23.670       19.827     1087.537      560.285      393.118        0.155        0.102       31.968       22.184        0.482      341.611       16.446      864.943
04/28/2013  09:01:00      -57.241       -5.748       -8.946       13.036       20.392       11.671      169.933      415.852      136.204        0.206        0.036       57.529        9.440        0.027      341.340       15.985      864.935
04/28/2013  09:02:00      -47.132      -17.315       -4.825       25.099       19.762       12.719      629.950      390.532      161.784        0.186        0.059       50.212       10.089        0.040      341.422       16.124      864.920
04/28/2013  09:03:00      -41.901       -7.776        7.184       21.287       25.066       15.278      453.142      628.279      233.428        0.159        0.066       42.617       12.231        0.082      341.708       16.610      864.917
04/28/2013  09:04:00      -41.648       -7.317       -3.135       17.931       14.960       11.126      321.534      223.791      123.781        0.123        0.033       42.286        7.121        0.028      341.443       16.161      864.910
04/28/2013  09:05:00      -41.879      -15.343        1.940       17.350       13.729        9.517      301.009      188.476       90.578        0.129        0.029       44.601        3.018        0.005      341.376       16.046      864.902
04/28/2013  09:06:00      -12.882       -6.431       -1.619       12.259       15.030       17.014      150.288      225.899      289.490        0.044        0.033       14.398       10.552        0.537      341.770       16.714      864.899
04/28/2013  09:07:00       32.374       30.721       11.040       37.216       25.117       22.765     1385.050      630.841      518.262        0.232        0.127       44.630       13.954        0.098      342.308       17.627      864.902
04/28/2013  09:08:00        5.325       28.973       24.508       22.398       22.560       24.422      501.648      508.943      596.430        0.154        0.080       29.458       17.915        0.370      342.315       17.639      864.895
04/28/2013  09:09:00       -6.083       50.359        2.321       13.325       25.436       20.497      177.549      646.975      420.113        0.191        0.062       50.725       15.764        0.097      342.042       17.176      864.907
04/28/2013  09:10:00      -14.470       17.270       14.359       21.110       18.608       21.760      445.632      346.275      473.491        0.099        0.063       22.531       15.063        0.447      342.468       17.900      864.911
04/28/2013  09:11:00      -35.998        9.645      -10.230       15.633       16.734       15.015      244.386      280.031      225.441        0.112        0.037       37.268        8.013        0.046      341.692       16.582      864.908
04/28/2013  09:12:00      -30.735        6.064      -10.689       17.479       14.935       18.082      305.510      223.052      326.971        0.098        0.043       31.328       13.388        0.183      341.696       16.588      864.894
04/28/2013  09:13:00       37.705       27.495       24.393       34.888       28.144       23.822     1217.170      792.070      567.494        0.267        0.129       46.666       17.617        0.143      342.373       17.739      864.881
04/28/2013  09:14:00      101.786       76.642       31.289       43.232       35.285       31.973     1868.984     1245.061     1022.250        1.067        0.207      127.415       20.876        0.027      341.832       16.819      864.864
04/28/2013  09:15:00       80.271       84.657       55.081       72.895       46.408       48.494     5313.732     2153.684     2351.629        1.323        0.491      116.663       42.076        0.130      341.828       16.813      864.848
04/28/2013  09:16:00      101.532       91.208       -0.231       39.715       27.823       32.574     1577.301      774.116     1061.052        1.102        0.171      136.483       11.703        0.007      341.623       16.464      864.845
04/28/2013  09:17:00       81.595       48.750       -9.292       30.961       21.654       16.944      958.579      468.899      287.089        0.542        0.086       95.049       10.186        0.011      341.397       16.080      864.829
04/28/2013  09:18:00       17.829       31.183       13.949       23.361       30.737       25.475      545.716      944.759      648.967        0.181        0.107       35.920       12.035        0.112      341.827       16.811      864.819
04/28/2013  09:19:00        8.690      -26.577       30.586       24.467       47.068       25.137      598.643     2215.392      631.861        0.258        0.172       27.962       20.625        0.544      341.913       16.957      864.804
04/28/2013  09:20:00       24.524       17.223       36.015       30.645       28.091       23.716      939.099      789.094      562.465        0.224        0.115       29.968       17.408        0.337      342.248       17.525      864.789
04/28/2013  09:21:00       80.747       82.184       56.417       44.105       40.999       31.619     1945.288     1680.885      999.746        1.054        0.231      115.214       17.411        0.023      341.834       16.821      864.774
04/28/2013  09:22:00       75.938      -14.551        1.324       46.027       66.772       32.881     2118.531     4458.510     1081.138        0.682        0.383       77.319       23.339        0.091      341.733       16.651      864.775
04/28/2013  09:23:00       59.882      -20.624       18.253       64.885       90.628       47.578     4210.035     8213.354     2263.657        0.951        0.734       63.334       41.156        0.422      341.862       16.870      864.770
04/28/2013  09:24:00       14.037      -16.783       32.298       31.813       51.358       44.849     1012.056     2637.682     2011.408        0.359        0.283       21.880       33.828        2.390      342.362       17.719      864.770
04/28/2013  09:25:00       46.850      -34.232       18.777       44.500       68.407       40.007     1980.259     4679.452     1600.593        0.599        0.413       58.024       47.403        0.667      341.856       16.859      864.773
04/28/2013  09:26:00       58.989        1.157       34.040       60.881       60.958       33.835     3706.441     3715.822     1144.832        0.660        0.428       59.001       31.328        0.282      341.897       16.930      864.768
04/28/2013  09:27:00       54.902       89.581       94.293       67.232       68.029       49.544     4520.080     4627.952     2454.600        1.576        0.580      105.066       42.613        0.164      341.939       16.998      864.769
04/28/2013  09:28:00      155.133       89.165       30.632       27.842       43.202       33.482      775.151     1866.453     1121.030        1.836        0.188      178.932       25.464        0.020      341.668       16.539      864.784
04/28/2013  09:29:00      101.834       66.327       -0.883       38.516       39.833       28.629     1483.449     1586.705      819.618        0.933        0.194      121.529       21.488        0.031      341.875       16.891      864.791
04/28/2013  09:30:00       79.103       86.259        2.653       57.319       69.049       39.662     3285.422     4767.762     1573.044        1.166        0.481      117.038       32.574        0.077      342.071       17.222      864.790
04/28/2013  09:31:00       20.780      -50.359       -2.455       51.552       48.045       24.495     2657.559     2308.318      600.026        0.427        0.278       54.478       22.857        0.176      341.912       16.955      864.798
04/28/2013  09:32:00       50.517      -29.943       21.480       57.027       87.963       52.811     3252.100     7737.510     2788.985        0.884        0.689       58.724       66.011        1.264      342.441       17.854      864.798
04/28/2013  09:33:00        8.699        8.227       49.211       33.536       54.084       34.434     1124.653     2925.092     1185.728        0.390        0.262       11.973       35.248        8.667      342.649       18.207      864.794
04/28/2013  09:34:00       26.310       46.061       31.703       41.251       36.908       35.675     1701.626     1362.212     1272.727        0.408        0.217       53.046       18.501        0.122      342.494       17.945      864.801
04/28/2013  09:35:00       49.837       76.658       64.326       52.445       46.550       51.197     2750.517     2166.947     2621.137        1.002        0.377       91.434       40.015        0.192      342.331       17.665      864.800
04/28/2013  09:36:00       18.007        0.765       29.238       38.496       32.032       19.343     1481.945     1026.025      374.167        0.203        0.144       18.024       13.479        0.559      342.609       18.140      864.802
04/28/2013  09:37:00       32.143      -34.425       19.498       48.728       75.281       57.088     2374.392     5667.208     3259.043        0.695        0.565       47.098       32.901        0.488      342.545       18.031      864.796
04/28/2013  09:38:00       27.541      -21.661       43.129       38.783       46.791       37.098     1504.152     2189.385     1376.295        0.408        0.253       35.039       28.125        0.644      342.357       17.711      864.816
04/28/2013  09:39:00       23.694       -6.134       39.449       49.840       58.834       45.615     2483.976     3461.386     2080.684        0.509        0.401       24.475       15.840        0.419      342.601       18.126      864.813
04/28/2013  09:40:00       44.182      -19.580       14.168       55.980       56.561       45.690     3133.808     3199.094     2087.573        0.548        0.421       48.326       34.205        0.501      342.370       17.733      864.812
04/28/2013  09:41:00       90.789      -62.033       14.885       54.171       49.569       36.270     2934.515     2457.055     1315.485        0.951        0.335      109.958       31.147        0.080      342.188       17.424      864.814
04/28/2013  09:42:00       66.975      -50.183       13.588       45.477       50.972       34.324     2068.125     2598.156     1178.115        0.652        0.292       83.690       36.541        0.191      342.156       17.369      864.804
04/28/2013  09:43:00       38.984      -87.271       -3.500       35.192       41.846       25.430     1238.450     1751.050      646.691        0.639        0.182       95.582       19.660        0.042      342.423       17.823      864.801
04/28/2013  09:44:00        2.001        9.530       37.019       27.321       35.003       20.305      746.416     1225.200      412.296        0.192        0.119        9.737       19.523        4.020      342.920       18.668      864.798
04/28/2013  09:45:00       47.365      -25.330       14.716       45.304       43.212       30.230     2052.418     1867.242      913.827        0.397        0.242       53.713       34.109        0.403      342.561       18.058      864.798
04/28/2013  09:46:00       27.484       12.381       14.158       32.198       20.162       21.944     1036.720      406.515      481.560        0.152        0.096       30.145        8.407        0.078      342.900       18.634      864.805
04/28/2013  09:47:00        8.104       40.263       11.569       29.926       46.922       32.324      895.555     2201.668     1044.853        0.298        0.207       41.070       32.841        0.639      343.211       19.162      864.793
04/28/2013  09:48:00       24.107       38.321       13.148       53.711       50.621       28.836     2884.890     2562.442      831.514        0.425        0.314       45.273       25.318        0.313      343.609       19.842      864.789
04/28/2013  09:49:00       71.567       77.738       57.038       86.101       41.693       39.835     7413.361     1738.335     1586.818        1.258        0.537      105.664       35.299        0.112      343.043       18.876      864.776
04/28/2013  09:50:00      133.741       99.585       26.539       44.106       42.381       34.253     1945.369     1796.144     1173.249        1.671        0.246      166.745       14.138        0.007      342.634       18.180      864.786
04/28/2013  09:51:00       32.813       38.730       55.281       46.201       47.315       43.349     2134.550     2238.710     1879.166        0.594        0.313       50.762       17.713        0.122      342.910       18.652      864.782
04/28/2013  09:52:00       65.169       42.806       15.194       24.291       25.098       27.738      590.077      629.922      769.414        0.415        0.099       77.970        8.492        0.012      342.423       17.822      864.778
04/28/2013  09:53:00       63.770       57.865        7.603       46.950       31.101       39.759     2204.308      967.277     1580.802        0.611        0.238       86.110       35.254        0.168      342.598       18.120      864.777
04/28/2013  09:54:00       52.058      -12.103       -2.376       37.994       61.307       23.376     1443.506     3758.498      546.441        0.430        0.287       53.447       20.220        0.143      342.570       18.072      864.763
04/28/2013  09:55:00       20.929      -33.118       19.429       48.730       56.084       34.197     2374.605     3145.382     1169.418        0.430        0.334       39.177       11.516        0.086      342.930       18.684      864.747
04/28/2013  09:56:00       69.656       -7.830       16.374       51.694       51.061       39.084     2672.297     2607.251     1527.596        0.599        0.340       70.095       22.501        0.103      342.824       18.505      864.736
04/28/2013  09:57:00        7.014      -22.317        1.639       26.489       36.726       35.229      701.675     1348.807     1241.105        0.192        0.165       23.393       15.781        0.455      342.985       18.777      864.733
04/28/2013  09:58:00      -29.790      -14.751       10.015       27.146       27.804       17.925      736.918      773.049      321.309        0.152        0.092       33.242       13.623        0.168      342.966       18.747      864.735
04/28/2013  09:59:00       11.413       30.447       20.351       36.249       33.185       23.572     1313.970     1101.267      555.649        0.222        0.149       32.516       23.349        0.516      343.818       20.199      864.732
04/28/2013  10:00:00       53.741       42.381       12.050       52.103       36.315       41.808     2714.726     1318.762     1747.902        0.530        0.289       68.442       17.048        0.062      343.758       20.096      864.728
04/28/2013  10:01:00        7.049       21.341       13.128       55.249       43.001       33.839     3052.443     1849.062     1145.052        0.336        0.302       22.475       23.432        1.087      343.319       19.347      864.724
04/28/2013  10:02:00       65.402       67.879       18.568       35.084       28.862       30.861     1230.900      833.024      952.376        0.612        0.151       94.260       12.141        0.017      342.885       18.607      864.725
04/28/2013  10:03:00       77.090       55.248       40.141       66.942       60.955       37.405     4481.271     3715.496     1399.153        1.010        0.480       94.843       15.740        0.028      343.426       19.529      864.717
04/28/2013  10:04:00      117.092      118.814       69.150       65.570       49.143       51.321     4299.481     2415.017     2633.805        2.098        0.467      166.815       24.674        0.022      342.894       18.621      864.715
04/28/2013  10:05:00       20.082        6.652       30.097       33.449       55.332       44.757     1118.829     3061.647     2003.215        0.377        0.309       21.155       42.356        4.009      342.858       18.563      864.720
04/28/2013  10:06:00      -19.486       22.287       23.495       26.925       55.013       26.438      724.942     3026.476      698.989        0.294        0.223       29.605       19.954        0.454      343.410       19.502      864.710
04/28/2013  10:07:00       20.651       60.912       26.402       49.877       69.673       41.020     2487.692     4854.289     1682.668        0.693        0.451       64.317       40.747        0.401      343.901       20.339      864.695
04/28/2013  10:08:00       -1.189       78.514       20.729       34.278       77.924       35.235     1174.948     6072.221     1241.513        0.754        0.424       78.523       36.826        0.220      343.971       20.461      864.686
04/28/2013  10:09:00       58.189       64.901       -7.913       40.431       59.076       40.885     1634.631     3490.003     1671.608        0.723        0.340       87.168       40.628        0.217      343.522       19.695      864.680
04/28/2013  10:10:00       18.246      -22.227       23.848       38.127       45.400       33.842     1453.654     2061.202     1145.272        0.303        0.233       28.757       16.602        0.333      343.502       19.659      864.659
04/28/2013  10:11:00       32.917      -58.918       24.082       46.214       71.968       44.098     2135.758     5179.380     1944.593        0.720        0.463       67.490       39.311        0.339      343.525       19.699      864.636
04/28/2013  10:12:00       40.447       20.336       24.760       58.347      104.548       47.882     3404.393    10930.363     2292.674        0.964        0.831       45.271       33.471        0.547      343.545       19.732      864.623
04/28/2013  10:13:00       56.492       52.974       29.226       64.955       48.897       45.781     4219.187     2390.895     2095.887        0.778        0.435       77.444       18.428        0.057      343.477       19.617      864.642
04/28/2013  10:14:00      -26.093       70.971       -0.481       24.510       47.720       29.298      600.754     2277.191      858.388        0.473        0.187       75.616       19.431        0.066      343.435       19.545      864.649
04/28/2013  10:15:00      -50.267       36.582       -2.226       53.757       33.547       28.638     2889.858     1125.406      820.160        0.435        0.242       62.169       15.185        0.060      343.289       19.296      864.636
04/28/2013  10:16:00       45.837       51.183       12.573       54.632       32.480       33.967     2984.640     1054.964     1153.786        0.504        0.260       68.708       23.007        0.112      343.884       20.311      864.632
04/28/2013  10:17:00      118.281       68.147       35.988       54.947       59.405       38.167     3019.220     3528.970     1456.737        1.397        0.400      136.507       27.368        0.040      343.708       20.011      864.620
04/28/2013  10:18:00       46.244       62.855       87.783       61.029       89.745       64.085     3724.508     8054.091     4106.829        1.484        0.794       78.034       63.706        0.666      343.363       19.422      864.612
04/28/2013  10:19:00       52.998      -72.728       15.190       53.843       75.861       39.609     2899.122     5754.853     1568.834        0.927        0.511       89.990       40.256        0.200      343.320       19.350      864.610
04/28/2013  10:20:00       43.928        8.738       47.365       72.431       92.950       47.821     5246.291     8639.657     2286.874        1.021        0.809       44.788       46.276        1.068      343.690       19.980      864.600
04/28/2013  10:21:00       57.130       62.995       42.359       49.676       54.057       29.560     2467.664     2922.109      873.814        0.764        0.313       85.043       25.883        0.093      343.609       19.841      864.596
04/28/2013  10:22:00       -0.379      -15.821       -0.336       26.065       21.655       20.537      679.376      468.957      421.767        0.091        0.079       15.825       12.050        0.580      343.611       19.844      864.587
04/28/2013  10:23:00       62.751       28.492       20.979       60.271       49.660       34.193     3632.573     2466.127     1169.146        0.623        0.363       68.916       16.651        0.058      343.782       20.136      864.573
04/28/2013  10:24:00      122.390       67.495        0.118       59.094       52.967       43.992     3492.120     2805.482     1935.274        1.388        0.412      139.767       11.835        0.007      343.782       20.136      864.570
04/28/2013  10:25:00      112.353       91.768       15.460       57.064       44.808       40.971     3256.335     2007.739     1678.596        1.411        0.347      145.067       22.912        0.025      343.573       19.778      864.561
04/28/2013  10:26:00      133.896       89.664       19.339       37.261       48.608       38.450     1388.403     2362.737     1478.432        1.578        0.261      161.145       22.027        0.019      343.251       19.231      864.571
04/28/2013  10:27:00       33.402       81.229        3.270       34.524       38.966       34.758     1191.883     1518.350     1208.109        0.582        0.196       87.829       24.072        0.075      343.449       19.569      864.573
04/28/2013  10:28:00      -49.723       42.695       12.757       49.188       36.784       33.019     2419.478     1353.080     1090.253        0.466        0.243       65.538       24.981        0.145      343.737       20.061      864.559
04/28/2013  10:29:00      -37.022      -13.193        9.151       45.310       23.629       22.318     2052.973      558.337      498.074        0.237        0.155       39.302       19.761        0.253      343.637       19.889      864.554
04/28/2013  10:30:00       17.005      -54.216       -2.549       38.989       37.771       26.261     1520.147     1426.622      689.616        0.344        0.182       56.821       20.818        0.134      343.687       19.975      864.554
04/28/2013  10:31:00      -56.047      -19.543        0.570       41.392       32.289       19.996     1713.260     1042.574      399.835        0.334        0.158       59.356       13.676        0.053      343.626       19.870      864.552
04/28/2013  10:32:00      -54.571       -6.610        4.606       34.962       20.810       20.391     1222.364      433.049      415.785        0.256        0.104       54.970       17.947        0.107      343.788       20.146      864.548
04/28/2013  10:33:00      -50.024       -6.264       12.752       23.630       22.148       14.669      558.393      490.524      215.166        0.198        0.063       50.415       14.821        0.086      343.639       19.893      864.544
04/28/2013  10:34:00      -33.493        7.578       18.801       45.089       24.372       30.696     2033.001      594.008      942.250        0.255        0.178       34.340       33.278        0.939      343.922       20.377      864.543
04/28/2013  10:35:00      -15.205       -6.169       13.837       71.816       40.460       28.832     5157.562     1637.020      831.263        0.404        0.381       16.409       18.146        1.223      344.059       20.609      864.520
04/28/2013  10:36:00        2.002       13.854       33.410       31.121       23.404       19.328      968.518      547.744      373.579        0.160        0.094       13.998       17.113        1.495      344.621       21.570      864.516
04/28/2013  10:37:00       19.397       89.136       14.158       41.005       79.143       36.495     1681.412     6263.666     1331.853        0.890        0.464       91.222       36.520        0.160      344.453       21.281      864.502
04/28/2013  10:38:00       -5.066      100.779        0.050       36.152       69.392       36.692     1306.992     4815.225     1346.280        0.882        0.373      100.906       40.107        0.158      344.311       21.041      864.495
04/28/2013  10:39:00      -42.455       27.873        2.615       44.680       60.327       35.470     1996.287     3639.309     1258.153        0.474        0.345       50.787       29.781        0.344      344.295       21.014      864.480
04/28/2013  10:40:00       -0.507      -42.121       16.747       79.352       82.312       50.322     6296.789     6775.270     2532.307        0.883        0.780       42.124       48.022        1.300      344.175       20.806      864.454
04/28/2013  10:41:00      114.599       87.338       60.206       68.735       48.838       46.117     4724.549     2385.149     2126.802        1.681        0.462      144.087       39.337        0.075      344.189       20.831      864.451
04/28/2013  10:42:00       96.037       94.622       60.819       47.135       37.597       46.630     2221.674     1413.521     2174.342        1.384        0.290      134.820       31.252        0.054      343.965       20.449      864.452
04/28/2013  10:43:00      116.696       65.338       27.679       51.966       35.435       36.443     2700.505     1255.621     1328.058        1.197        0.264      133.743       19.232        0.021      343.679       19.960      864.442
04/28/2013  10:44:00      113.714       88.191       22.414       61.067       53.525       55.116     3729.227     2864.919     3037.817        1.542        0.482      143.904       36.193        0.063      344.133       20.734      864.436
04/28/2013  10:45:00       71.063      184.919      -11.505       52.505       80.537       56.189     2756.749     6486.247     3157.198        2.589        0.620      198.104       51.646        0.068      344.096       20.668      864.422
04/28/2013  10:46:00      124.002      126.943       -3.322       64.116       54.412       51.252     4110.862     2960.639     2626.786        2.060        0.485      177.457       37.756        0.045      343.988       20.487      864.426
04/28/2013  10:47:00      135.145       83.572        2.813       59.510       32.331       40.783     3541.418     1045.316     1663.233        1.575        0.312      158.898       28.362        0.032      343.723       20.034      864.418
04/28/2013  10:48:00       65.431       88.889      -13.706       30.700       53.971       43.523      942.480     2912.849     1894.281        0.906        0.287      110.374       36.203        0.108      343.772       20.120      864.410
04/28/2013  10:49:00       80.963      -75.541       -9.736       49.951       52.789       37.316     2495.084     2786.651     1392.471        0.951        0.334      110.731       26.711        0.058      343.715       20.022      864.378
04/28/2013  10:50:00       16.881      -25.798       47.263       34.308       40.607       29.106     1177.032     1648.902      847.136        0.343        0.184       30.830       20.946        0.462      344.583       21.506      864.354
04/28/2013  10:51:00        2.802       91.969       17.505       39.144       57.994       41.876     1532.291     3363.256     1753.614        0.771        0.332       92.012       35.167        0.146      344.484       21.337      864.361
04/28/2013  10:52:00      -33.425       24.634        7.026       36.381       37.602       26.922     1323.607     1413.910      724.801        0.262        0.173       41.522       18.250        0.193      344.395       21.185      864.366
04/28/2013  10:53:00      -36.771       32.495       14.120       27.692       28.115       24.634      766.851      790.446      606.821        0.239        0.108       49.071       18.348        0.140      344.515       21.389      864.347
04/28/2013  10:54:00      -12.229       43.466       17.164       30.045       32.468       34.772      902.688     1054.187     1209.103        0.275        0.158       45.154       16.108        0.127      344.936       22.110      864.339
04/28/2013  10:55:00       -7.279      -23.764       -5.372       42.054       43.963       26.605     1768.558     1932.703      707.824        0.253        0.220       24.854       25.600        1.061      344.329       21.070      864.328
04/28/2013  10:56:00        0.983       -3.999       23.232       41.421       58.543       37.574     1715.704     3427.310     1411.811        0.355        0.328        4.118       29.945       52.873      344.596       21.527      864.336
04/28/2013  10:57:00       54.736        6.468      -19.488       51.871       57.652       33.352     2690.578     3323.736     1112.370        0.527        0.356       55.117       25.645        0.216      344.109       20.695      864.325
04/28/2013  10:58:00       47.034        5.280       18.764       62.264       41.440       42.035     3876.829     1717.306     1766.959        0.498        0.368       47.329       32.337        0.467      344.481       21.331      864.310
04/28/2013  10:59:00       42.312       43.117        7.763       33.832       32.223       28.051     1144.621     1038.297      786.880        0.334        0.148       60.410       15.187        0.063      344.707       21.717      864.301
04/28/2013  11:00:00       37.447       14.456       28.229       37.332       40.872       36.112     1393.659     1670.544     1304.057        0.339        0.218       40.141       24.356        0.368      344.305       21.030      864.287
04/28/2013  11:01:00       61.326       11.208       24.900       65.065       32.713       36.886     4233.404     1070.126     1360.552        0.558        0.333       62.342       26.339        0.178      344.011       20.528      864.268
04/28/2013  11:02:00       65.046       31.441       -5.981       42.546       38.723       31.767     1810.120     1499.479     1009.131        0.479        0.216       72.246       22.165        0.094      344.355       21.116      864.274
04/28/2013  11:03:00       -2.831       70.307       12.924       28.351       50.235       31.978      803.771     2523.590     1022.583        0.473        0.217       70.364       30.665        0.190      345.040       22.287      864.267
04/28/2013  11:04:00       12.224       43.345       21.597       29.891       41.080       28.241      893.469     1687.532      797.575        0.294        0.169       45.035       26.345        0.342      345.311       22.753      864.260
04/28/2013  11:05:00       38.000       21.156       21.255       37.482       34.142       25.690     1404.893     1165.704      659.988        0.279        0.162       43.493       11.770        0.073      344.648       21.617      864.251
04/28/2013  11:06:00       62.377       -0.372       14.296       60.236       50.745       41.610     3628.425     2575.056     1731.372        0.601        0.397       62.378       44.740        0.514      344.227       20.898      864.247
04/28/2013  11:07:00      -11.903        1.193       37.896       16.644       38.305       31.348      277.018     1467.296      982.699        0.215        0.136       11.963       30.582        6.536      345.125       22.432      864.246
04/28/2013  11:08:00      -20.875      -88.716        1.646       46.912       41.110       34.001     2200.749     1690.065     1156.077        0.668        0.252       91.139       27.815        0.093      344.231       20.904      864.244
04/28/2013  11:09:00       40.672       25.249       33.515       47.122       46.030       36.896     2220.517     2118.753     1361.320        0.456        0.285       47.872       29.709        0.385      344.359       21.122      864.226
04/28/2013  11:10:00      -31.086      -79.483       16.402       52.023       69.798       43.403     2706.342     4871.792     1883.800        0.851        0.473       85.345       31.721        0.138      344.590       21.517      864.209
04/28/2013  11:11:00       30.419      -57.718       33.709       51.600      125.433       62.491     2662.529    15733.440     3905.147        1.384        1.115       65.244       58.331        0.799      344.914       22.071      864.188
04/28/2013  11:12:00       78.048     -126.921      -31.904       57.035       79.934       40.244     3253.029     6389.500     1619.609        1.724        0.563      148.998       30.424        0.042      344.436       21.252      864.194
04/28/2013  11:13:00       14.342       28.839       15.611       46.811       80.740       43.975     2191.228     6518.892     1933.791        0.596        0.532       32.208       26.223        0.663      344.722       21.744      864.188
04/28/2013  11:14:00       63.381       96.491       16.745       63.442       57.426       53.660     4024.945     3297.724     2879.345        1.190        0.510      115.446       36.039        0.097      344.945       22.124      864.189
04/28/2013  11:15:00       32.016      142.848       12.269       60.212       98.475       70.671     3625.448     9697.372     4994.345        1.995        0.916      146.392       71.446        0.238      344.701       21.706      864.188
04/28/2013  11:16:00        9.886      251.319      -21.932       65.041       81.274       57.642     4230.386     6605.414     3322.555        3.895        0.708      251.514       47.405        0.036      344.610       21.548      864.182
04/28/2013  11:17:00      -76.569      158.071      -15.341       57.304      104.584       39.979     3283.714    10937.784     1598.328        2.345        0.791      175.639       44.408        0.064      344.660       21.636      864.189
04/28/2013  11:18:00       15.671       54.171       23.686       51.654       44.120       30.876     2668.085     1946.536      953.322        0.465        0.278       56.392       26.046        0.213      345.059       22.319      864.178
04/28/2013  11:19:00       62.459       45.905       72.400       56.362       64.117       59.001     3176.683     4111.046     3481.166        1.101        0.538       77.514       33.475        0.186      344.559       21.464      864.177
04/28/2013  11:20:00      126.289       84.493       96.125       72.833      101.398       64.725     5304.713    10281.602     4189.353        2.605        0.989      151.948       40.230        0.070      344.130       20.728      864.174
04/28/2013  11:21:00       54.768       38.919        4.383       49.006       58.416       51.285     2401.569     3412.455     2630.193        0.649        0.422       67.188       34.153        0.258      344.252       20.938      864.182
04/28/2013  11:22:00      -30.474      -17.790      -25.858      119.775       53.545       31.982    14346.038     2867.058     1022.841        1.007        0.912       35.287       40.127        1.293      344.041       20.579      864.160
04/28/2013  11:23:00     -222.277     -123.746      -27.411       86.406       95.159       49.576     7466.056     9055.150     2457.751        4.222        0.949      254.401       42.161        0.027      344.191       20.832      864.099
04/28/2013  11:24:00     -126.252      -74.445       14.392      141.331       71.275       44.863    19974.482     5080.167     2012.700        2.437        1.353      146.566       64.355        0.193      344.670       21.654      864.078
04/28/2013  11:25:00       -2.136       16.925       39.757       69.070       77.250       39.694     4770.712     5967.488     1575.647        0.709        0.616       17.059       18.397        1.163      344.753       21.796      864.078
04/28/2013  11:26:00       73.598      124.348       -6.889       58.933       75.684       52.527     3473.100     5728.003     2759.107        1.644        0.598      144.496       43.449        0.090      344.833       21.931      864.071
04/28/2013  11:27:00      104.959       79.068       22.925       76.501       58.078       45.245     5852.353     3373.073     2047.133        1.453        0.564      131.408       28.207        0.046      344.894       22.036      864.052
04/28/2013  11:28:00       56.646       80.626        6.041       92.640       52.825       36.275     8582.143     2790.530     1315.908        1.121        0.634       98.535       29.400        0.089      344.741       21.772      864.040
04/28/2013  11:29:00        1.872       79.977       14.728       48.672       60.561       40.204     2368.948     3667.607     1616.402        0.713        0.383       79.999       36.215        0.205      345.503       23.080      864.033
04/28/2013  11:30:00        8.359       60.970       21.153       50.804       54.175       38.782     2581.084     2934.894     1504.075        0.563        0.351       61.540       34.657        0.317      345.417       22.932      864.037
04/28/2013  11:31:00       84.804       40.070       50.128       73.189       64.685       50.531     5356.568     4184.144     2553.356        1.170        0.605       93.794       33.420        0.127      344.784       21.848      864.033
04/28/2013  11:32:00       76.076       89.984       73.018       74.362       39.804       44.029     5529.635     1584.384     1938.538        1.413        0.453      117.834       42.758        0.132      344.530       21.414      864.029
04/28/2013  11:33:00       92.513       95.479        8.515       65.268       33.426       32.692     4259.861     1117.328     1068.795        1.210        0.322      132.947       23.317        0.031      344.584       21.507      864.021
04/28/2013  11:34:00       16.793       78.051       21.178       51.337       63.493       45.071     2635.447     4031.344     2031.362        0.776        0.435       79.837       44.873        0.316      345.217       22.591      864.011
04/28/2013  11:35:00      106.627       98.370       17.568       61.655       56.972       38.517     3801.380     3245.862     1483.584        1.494        0.427      145.073       32.848        0.051      344.586       21.509      864.001
04/28/2013  11:36:00      -88.365       95.555      -28.514       39.202       72.071       34.678     1536.832     5194.175     1202.537        1.284        0.397      130.151       25.607        0.039      344.602       21.537      864.005
04/28/2013  11:37:00      -81.078       85.488      -18.138       55.734       84.419       36.810     3106.274     7126.533     1354.986        1.290        0.579      117.821       47.868        0.165      344.671       21.654      864.002
04/28/2013  11:38:00     -106.552       80.374       -3.466       65.709       71.752       39.076     4317.616     5148.308     1526.903        1.441        0.550      133.466       43.534        0.106      344.809       21.890      863.997
04/28/2013  11:39:00      -42.937      133.543        0.649       44.223       64.008       41.679     1955.648     4096.964     1737.142        1.373        0.389      140.275       33.862        0.058      345.069       22.338      864.000
04/28/2013  11:40:00      -36.248       44.057       14.440       58.620       54.073       40.448     3436.273     2923.885     1636.065        0.573        0.400       57.052       44.689        0.614      345.348       22.815      863.989
04/28/2013  11:41:00     -138.936       45.747      -21.999       33.717       33.503       23.000     1136.849     1122.444      529.016        1.233        0.139      146.274       14.639        0.010      344.374       21.146      863.989
04/28/2013  11:42:00      -42.986      -90.029       -8.546       45.348       51.877       24.111     2056.469     2691.270      581.352        0.768        0.266       99.765       31.747        0.101      344.353       21.112      863.974
04/28/2013  11:43:00        7.684      -42.921       23.271       24.539       50.467       26.949      602.187     2546.924      726.245        0.316        0.194       43.604       28.499        0.427      345.022       22.255      863.952
04/28/2013  11:44:00      -22.398       57.829       -3.627       36.305       58.570       32.954     1318.036     3430.396     1085.967        0.485        0.292       62.015       24.982        0.162      345.137       22.455      863.971
04/28/2013  11:45:00       39.412      106.792       12.800       39.619       82.052       49.103     1569.682     6732.493     2411.105        1.192        0.536      113.833       52.804        0.215      345.247       22.641      863.976
04/28/2013  11:46:00       31.035      102.265       -3.788       58.854       67.236       30.140     3463.795     4520.728      908.421        1.016        0.445      106.871       17.543        0.027      344.735       21.765      863.971
04/28/2013  11:47:00       51.969       35.671       -5.960       76.370       56.751       28.933     5832.303     3220.702      837.118        0.695        0.495       63.033       15.102        0.057      345.179       22.525      863.960
04/28/2013  11:48:00       43.227      114.668       -7.880       64.691       68.736       47.010     4184.942     4724.705     2209.917        1.310        0.556      122.545       36.638        0.089      345.318       22.764      863.959
04/28/2013  11:49:00      -11.541       98.539       11.191       43.422       82.059       43.338     1885.427     6733.605     1878.168        1.023        0.525       99.213       46.687        0.221      345.132       22.445      863.963
04/28/2013  11:50:00       22.413       89.983       11.927       37.304       74.609       35.884     1391.618     5566.542     1287.679        0.849        0.412       92.732       39.036        0.177      345.217       22.592      863.969
04/28/2013  11:51:00      -55.743       34.491      -21.769       40.752       31.929       21.344     1660.688     1019.435      455.551        0.395        0.157       65.550       23.597        0.130      344.730       21.756      863.968
04/28/2013  11:52:00      -37.033      -37.652      -17.660       28.998       29.505       20.839      840.872      870.559      434.244        0.262        0.107       52.812       17.751        0.113      344.600       21.534      863.955
04/28/2013  11:53:00      -53.501      -63.385       -9.521       33.101       30.217       30.024     1095.643      913.090      901.466        0.494        0.146       82.946       23.188        0.078      344.634       21.591      863.948
04/28/2013  11:54:00       28.193       65.480       15.638       29.689       43.137       36.945      881.418     1860.783     1364.923        0.472        0.205       71.291       32.120        0.203      345.366       22.844      863.936
04/28/2013  11:55:00       18.813       61.564        5.430       42.426       60.217       56.882     1799.959     3626.052     3235.586        0.642        0.433       64.374       32.092        0.249      345.179       22.525      863.928
04/28/2013  11:56:00       34.965      -69.269       22.174       59.812       76.476       33.483     3577.455     5848.641     1121.118        0.853        0.527       77.593       30.258        0.152      344.753       21.794      863.899
04/28/2013  11:57:00      -18.836        3.887       21.652       71.955       28.530       25.873     5177.473      813.960      669.398        0.375        0.333       19.233       31.751        2.725      345.165       22.503      863.888
04/28/2013  11:58:00      -49.771       36.657        8.143       63.430       41.437       35.050     4023.424     1717.052     1228.477        0.543        0.348       61.814       38.324        0.384      345.646       23.327      863.884
04/28/2013  11:59:00      -37.713      -10.758       12.469       50.417       52.292       36.807     2541.850     2734.454     1354.738        0.416        0.332       39.218       32.261        0.677      345.633       23.303      863.870
04/28/2013  12:00:00     -106.653      -54.222        9.711       92.930       79.436       43.115     8636.077     6310.007     1858.902        1.560        0.840      119.645       49.712        0.173      345.406       22.913      863.855
04/28/2013  12:01:00     -138.572       -2.337      -21.946       59.930       37.773       33.658     3591.578     1426.770     1132.849        1.292        0.308      138.591       21.373        0.024      345.091       22.373      863.841
04/28/2013  12:02:00      -68.800      -39.425       17.564       99.799       54.279       50.442     9959.867     2946.253     2544.361        1.102        0.773       79.295       46.260        0.340      345.423       22.944      863.821
04/28/2013  12:03:00      -81.486      -16.525        9.828       70.690       38.553       41.397     4997.011     1486.352     1713.747        0.760        0.410       83.145       43.322        0.271      345.202       22.566      863.816
04/28/2013  12:04:00      -42.678      -49.418      -13.029       44.402       21.414       21.199     1971.581      458.552      449.393        0.366        0.144       65.295       10.138        0.024      344.678       21.668      863.814
04/28/2013  12:05:00      -18.080       -7.338       12.014       29.068       30.406       19.224      844.951      924.536      369.551        0.133        0.107       19.512       10.292        0.278      345.231       22.615      863.811
04/28/2013  12:06:00      -12.718       60.483       13.859       34.025       60.618       32.959     1157.712     3674.515     1086.286        0.496        0.296       61.806       34.076        0.304      345.867       23.705      863.789
04/28/2013  12:07:00     -129.699      183.704      -11.629       72.438       99.961       51.198     5247.268     9992.247     2621.213        3.428        0.893      224.876       51.709        0.053      345.250       22.643      863.784
04/28/2013  12:08:00     -156.458      258.886      -33.885       53.424       65.272       46.076     2854.087     4260.440     2122.999        5.094        0.462      302.491       42.704        0.020      344.945       22.121      863.777
04/28/2013  12:09:00     -189.332      143.081      -38.966       54.149       66.522       37.271     2932.138     4425.221     1389.130        3.329        0.437      237.316       34.561        0.021      344.951       22.131      863.772
04/28/2013  12:10:00      -39.014      144.659        0.496       40.078       75.039       40.858     1606.243     5630.833     1669.361        1.568        0.445      149.827       39.023        0.068      345.390       22.886      863.768
04/28/2013  12:11:00      -26.341      158.714        3.739       40.342       70.787       46.473     1627.508     5010.855     2159.719        1.735        0.440      160.885       41.069        0.065      345.492       23.062      863.762
04/28/2013  12:12:00      -10.159       80.241       23.189       34.764       61.839       38.149     1208.546     3824.120     1455.316        0.678        0.324       80.882       36.554        0.204      345.928       23.808      863.759
04/28/2013  12:13:00       21.538       31.613       28.764       31.729       35.364       32.092     1006.740     1250.632     1029.876        0.279        0.164       38.253       21.790        0.324      346.012       23.955      863.756
04/28/2013  12:14:00      -18.911       27.252        8.720       20.736       29.765       27.856      429.985      885.938      775.938        0.163        0.105       33.171       17.304        0.272      345.857       23.688      863.738
04/28/2013  12:15:00       -3.116       14.938       30.204       15.032       18.151       15.821      225.957      329.464      250.307        0.098        0.040       15.259        6.845        0.201      346.459       24.722      863.725
04/28/2013  12:16:00       -4.916      -28.844       18.974       22.945       36.236       20.245      526.460     1313.014      409.859        0.173        0.112       29.260       19.155        0.429      345.684       23.392      863.715
04/28/2013  12:17:00      -37.250        2.096      -30.264       24.463       17.770       24.513      598.427      315.768      600.894        0.191        0.076       37.309       15.090        0.164      345.180       22.526      863.698
04/28/2013  12:18:00       -9.559      -11.945      -24.222       28.067       27.174       19.562      787.779      738.437      382.656        0.136        0.095       15.299       11.858        0.601      345.083       22.362      863.676
04/28/2013  12:19:00       11.443      -76.397        8.885       35.199       65.212       39.761     1238.973     4252.633     1580.943        0.656        0.354       77.249       29.034        0.141      345.256       22.656      863.637
04/28/2013  12:20:00       10.506       18.546       17.579       30.958       34.529       20.784      958.372     1192.280      431.982        0.167        0.129       21.315       20.759        0.949      345.916       23.789      863.614
04/28/2013  12:21:00       -6.454       44.479       10.312       34.123       43.314       32.564     1164.401     1876.083     1060.442        0.311        0.205       44.945       30.346        0.456      345.825       23.633      863.600
04/28/2013  12:22:00      -46.300       25.690       -7.985       34.309       49.630       46.460     1177.082     2463.097     2158.508        0.433        0.290       52.950       16.021        0.092      345.358       22.833      863.580
04/28/2013  12:23:00       13.305       20.859       32.022       59.275       54.608       38.495     3513.555     2981.997     1481.847        0.481        0.399       24.741       20.059        0.657      345.284       22.706      863.557
04/28/2013  12:24:00       37.970      -19.439       22.012       36.462       17.582       25.046     1329.481      309.115      627.304        0.228        0.113       42.657       16.124        0.143      345.316       22.761      863.532
04/28/2013  12:25:00       28.336      -20.007       20.292       35.883       44.957       29.711     1287.581     2021.146      882.762        0.290        0.210       34.687       27.252        0.617      345.369       22.852      863.517
04/28/2013  12:26:00       16.132      -30.250       16.494       29.292       30.656       29.251      857.999      939.810      855.612        0.205        0.133       34.282       17.061        0.248      345.343       22.808      863.511
04/28/2013  12:27:00      -19.125       -2.961       40.034       22.858       31.680       22.472      522.505     1003.594      505.003        0.200        0.102       19.353       12.183        0.396      346.144       24.182      863.493
04/28/2013  12:28:00       18.003      -19.972       24.755       43.606       48.122       40.921     1901.442     2315.702     1674.564        0.361        0.295       26.888       13.912        0.268      346.091       24.089      863.480
04/28/2013  12:29:00       -0.160       21.363       47.220       31.749       31.037       28.398     1008.015      963.296      806.440        0.273        0.139       21.364       13.689        0.411      346.002       23.937      863.484
04/28/2013  12:30:00       32.673       18.021       35.551       39.882       42.422       34.017     1590.534     1799.601     1157.152        0.360        0.227       37.313       25.907        0.482      345.444       22.980      863.476
04/28/2013  12:31:00      233.196      123.124       30.860      151.512       83.769       67.019    22955.829     7017.294     4491.490        5.247        1.723      263.704       50.879        0.037      345.371       22.851      863.458
04/28/2013  12:32:00      178.661       89.914       33.684      116.242       78.722       62.052    13512.292     6197.227     3850.487        3.234        1.178      200.010       47.984        0.058      345.554       23.165      863.432
04/28/2013  12:33:00      166.645      146.923       58.513      128.103       89.052       84.668    16410.500     7930.318     7168.715        4.214        1.575      222.164       81.076        0.133      345.547       23.152      863.427
04/28/2013  12:34:00      166.961      130.359       71.677      113.745       58.067       50.420    12937.981     3371.822     2542.171        3.443        0.943      211.824       45.697        0.047      345.469       23.019      863.438
04/28/2013  12:35:00       55.797       69.760       76.675       65.064       54.039       51.699     4233.286     2920.203     2672.738        1.184        0.491       89.329       37.794        0.179      345.262       22.668      863.439
04/28/2013  12:36:00       19.437     -142.889        4.125       64.450       99.749       37.461     4153.824     9949.775     1403.350        1.816        0.775      144.205       35.502        0.061      344.975       22.174      863.420
04/28/2013  12:37:00       23.863     -178.897      -24.262       67.920       68.925       40.982     4613.111     4750.603     1679.532        2.210        0.552      180.481       36.147        0.040      345.396       22.895      863.380
04/28/2013  12:38:00      -73.253      -83.401      -10.271       82.121       70.216       38.649     6743.863     4930.296     1493.772        1.279        0.658      111.003       29.506        0.071      345.373       22.858      863.357
04/28/2013  12:39:00      -42.709      -24.491       -9.736       69.050       37.206       35.131     4767.945     1384.317     1234.164        0.495        0.369       49.233       25.646        0.271      345.567       23.189      863.332
04/28/2013  12:40:00      -57.243     -163.938      -15.379      100.735       91.868       51.447    10147.516     8439.739     2646.785        2.581        1.062      173.645       46.897        0.073      345.538       23.138      863.293
04/28/2013  12:41:00      -53.259     -112.635      -14.194       59.237       60.609       40.595     3508.980     3673.497     1647.924        1.228        0.442      124.592       34.092        0.075      345.482       23.042      863.298
04/28/2013  12:42:00       28.465      -44.389        2.257       81.859       66.338       34.636     6700.931     4400.696     1199.657        0.754        0.615       52.732       42.337        0.645      345.235       22.618      863.297
04/28/2013  12:43:00      109.655      106.679       24.494       37.788       64.172       60.155     1427.957     4117.984     3618.569        1.658        0.458      152.986       51.701        0.114      345.127       22.435      863.284
04/28/2013  12:44:00       35.404        3.275       37.987       42.750       69.750       56.302     1827.583     4865.035     3169.948        0.628        0.493       35.555       23.521        0.438      345.074       22.345      863.273
04/28/2013  12:45:00       85.679      -58.142       13.968       62.250       69.818       48.660     3875.027     4874.565     2367.797        1.101        0.556      103.544       48.775        0.222      344.969       22.165      863.257
04/28/2013  12:46:00       40.559      -87.648      -16.242       41.793       54.910       37.670     1746.644     3015.061     1418.999        0.788        0.309       96.577       20.101        0.043      344.769       21.823      863.231
04/28/2013  12:47:00      -13.877        2.890       -8.223       26.071       38.129       23.586      679.681     1453.789      556.291        0.148        0.134       14.175       15.257        1.159      345.526       23.121      863.241
04/28/2013  12:48:00      -58.044       52.784        6.054       57.508       41.400       32.463     3307.210     1713.951     1053.827        0.613        0.304       78.455       37.540        0.229      346.085       24.080      863.231
04/28/2013  12:49:00     -165.456        0.123      -30.609       83.317       63.000       31.830     6941.749     3968.996     1013.144        2.012        0.596      165.456       21.383        0.017      345.546       23.152      863.232
04/28/2013  12:50:00      -48.952      -52.032       10.365      108.560       51.880       47.663    11785.343     2691.547     2271.792        1.098        0.837       71.440       62.764        0.772      345.945       23.840      863.209
04/28/2013  12:51:00        6.902     -128.152        7.438       53.971       59.991       33.887     2912.907     3598.878     1148.336        1.209        0.383      128.338       35.234        0.075      345.449       22.988      863.169
04/28/2013  12:52:00       20.483      -72.625        2.050       61.694       61.494       39.963     3806.208     3781.465     1597.031        0.744        0.459       75.458       35.228        0.218      345.963       23.871      863.135
04/28/2013  12:53:00       71.783      -38.864       61.081       87.026       56.641       40.657     7573.580     3208.220     1652.979        1.141        0.622       81.629       41.853        0.263      345.884       23.734      863.143
04/28/2013  12:54:00       47.500      -11.287      -24.389       69.460       68.253       26.123     4824.699     4658.482      682.389        0.657        0.508       48.822       20.104        0.170      345.243       22.635      863.130
04/28/2013  12:55:00      -31.450      -26.180       -0.018       46.226       30.311       35.025     2136.869      918.730     1226.752        0.298        0.214       40.921       17.438        0.182      345.863       23.699      863.098
04/28/2013  12:56:00       -4.635       14.252       22.660       51.920       39.763       31.589     2695.674     1581.125      997.870        0.301        0.264       14.986       29.209        3.799      346.265       24.388      863.068
04/28/2013  12:57:00      -30.193       54.345       21.151       70.517       54.791       41.156     4972.685     3002.093     1693.799        0.699        0.483       62.169       43.143        0.482      346.232       24.332      863.070
04/28/2013  12:58:00      -98.844       42.483      -12.475       73.394       48.832       32.943     5386.708     2384.530     1085.252        1.029        0.443      107.587       29.914        0.077      346.048       24.016      863.048
04/28/2013  12:59:00      -25.381       30.531        6.074       58.149       42.775       37.019     3381.271     1829.680     1370.380        0.410        0.329       39.703       22.851        0.331      346.213       24.299      863.040
04/28/2013  13:00:00     -113.650       -7.408        8.431      129.634       70.823       56.077    16805.039     5015.880     3144.636        1.900        1.248      113.891       70.191        0.380      345.881       23.725      863.020
04/28/2013  13:01:00     -219.001      -30.566      -22.562      100.726       73.002       43.538    10145.672     5329.359     1895.537        3.338        0.869      221.124       40.096        0.033      345.761       23.520      863.013
04/28/2013  13:02:00       30.613       20.030      -11.061      103.393       44.898       39.027    10690.184     2015.833     1523.097        0.784        0.711       36.584       27.417        0.562      345.519       23.107      863.001
04/28/2013  13:03:00     -104.638      -57.376       -5.238       35.782       41.558       23.016     1280.372     1727.041      529.728        0.890        0.177      119.336       16.348        0.019      345.748       23.501      862.992
04/28/2013  13:04:00      -41.732       14.359       22.365       42.999       23.745       19.675     1848.948      563.832      387.104        0.262        0.140       44.133       13.253        0.090      346.234       24.334      862.974
04/28/2013  13:05:00      -55.540       13.865       -6.211       40.198       31.183       18.754     1615.878      972.402      351.707        0.313        0.147       57.245       13.988        0.060      345.849       23.672      862.965
04/28/2013  13:06:00      -58.131       39.106       -1.856       51.685       72.961       33.760     2671.357     5323.340     1139.728        0.702        0.457       70.061       29.230        0.174      346.063       24.041      862.942
04/28/2013  13:07:00      -24.888      121.711      -10.158       59.167       81.136       47.310     3500.780     6583.084     2238.283        1.393        0.616      124.229       44.716        0.130      345.801       23.590      862.939
04/28/2013  13:08:00      -26.911       93.950        4.620       32.462       79.232       41.525     1053.783     6277.765     1724.345        0.931        0.453       97.728       47.425        0.235      346.020       23.968      862.940
04/28/2013  13:09:00      -56.005       39.096      -12.548       39.105       46.300       38.837     1529.200     2143.679     1508.334        0.500        0.259       68.301       30.153        0.195      345.764       23.527      862.925
04/28/2013  13:10:00      -97.247        6.829      -25.633       23.743       17.190       16.479      563.712      295.495      271.563        0.565        0.057       97.486       11.929        0.015      345.404       22.911      862.896
04/28/2013  13:11:00      -16.504       46.654       44.569      156.233      151.608       92.716    24408.601    22984.953     8596.280        3.020        2.799       49.487      105.146        4.514      345.657       23.342      862.846
04/28/2013  13:12:00      150.882      114.000        8.941       92.290       66.608       56.494     8517.526     4436.649     3191.622        2.599        0.807      189.107       39.093        0.043      345.831       23.641      862.886
04/28/2013  13:13:00       54.592      155.129        2.224       61.017       99.246       65.738     3723.124     9849.670     4321.448        2.247        0.895      164.454       68.458        0.173      345.760       23.520      862.905
04/28/2013  13:14:00       -9.048       82.269       -7.693       57.081       83.382       39.445     3258.258     6952.521     1555.941        0.934        0.588       82.765       36.355        0.193      345.815       23.616      862.887
04/28/2013  13:15:00      112.987       81.307       20.578       65.363       45.425       43.703     4272.377     2063.417     1909.956        1.402        0.412      139.201       26.374        0.036      345.728       23.464      862.879
04/28/2013  13:16:00       38.562       84.296        0.149       60.875       65.530       42.808     3705.739     4294.215     1832.543        0.921        0.492       92.698       42.845        0.214      345.756       23.514      862.873
04/28/2013  13:17:00      187.281       98.625       62.882       99.455       66.873       74.480     9891.199     4472.060     5547.210        3.433        0.996      211.663       48.617        0.053      345.779       23.551      862.857
04/28/2013  13:18:00      158.476      123.115       69.582       99.394       61.700       55.179     9879.241     3806.940     3044.706        3.092        0.837      200.679       48.425        0.058      345.644       23.319      862.858
04/28/2013  13:19:00       26.342      -18.814       -2.144       45.803       61.794       45.971     2097.917     3818.447     2113.312        0.454        0.401       32.371       36.128        1.246      345.282       22.701      862.849
04/28/2013  13:20:00      -41.126      -10.145       13.616       40.269       25.494       26.454     1621.589      649.937      699.811        0.247        0.149       42.359       16.975        0.161      345.831       23.642      862.831
04/28/2013  13:21:00       16.313      -13.622       21.021       27.102       34.332       25.871      734.521     1178.715      669.306        0.174        0.129       21.253       19.690        0.858      345.965       23.873      862.818
04/28/2013  13:22:00      -59.885      -48.873        6.635       44.875       33.548       25.233     2013.787     1125.452      636.685        0.490        0.189       77.296       21.245        0.076      345.713       23.440      862.801
04/28/2013  13:23:00       -8.671      -40.520       26.161       29.477       34.671       22.335      868.918     1202.078      498.835        0.249        0.128       41.437       17.882        0.186      346.199       24.276      862.790
04/28/2013  13:24:00        9.678       24.571       15.466       41.189       36.237       25.919     1696.525     1313.119      671.780        0.231        0.184       26.408       20.069        0.578      346.496       24.787      862.765
04/28/2013  13:25:00       51.367       16.645       -3.578       37.030       25.835       26.835     1371.232      667.454      720.122        0.284        0.138       53.997       13.468        0.062      345.786       23.567      862.743
04/28/2013  13:26:00        9.234      -35.213       15.529       28.891       28.845       21.165      834.682      832.058      447.973        0.184        0.106       36.404       19.768        0.295      346.111       24.124      862.718
04/28/2013  13:27:00       -6.873      -38.077        3.695       38.820       48.015       33.456     1506.981     2305.420     1119.298        0.322        0.247       38.692       22.539        0.339      345.668       23.362      862.686
04/28/2013  13:28:00       28.394       11.464       17.686       35.416       87.440       39.534     1254.300     7645.770     1562.965        0.585        0.523       30.621       19.691        0.414      346.018       23.964      862.664
04/28/2013  13:29:00      -20.707       68.878       -1.073       59.224       54.279       29.341     3507.424     2946.222      860.874        0.624        0.366       71.923       22.194        0.095      346.565       24.903      862.652
04/28/2013  13:30:00       -2.107       96.923       -1.552       42.438       77.368       35.374     1801.000     5985.780     1251.331        0.922        0.452       96.946       42.714        0.194      346.849       25.394      862.643
04/28/2013  13:31:00     -125.442       26.072       -4.930       80.949       37.186       29.374     6552.713     1382.780      862.846        1.262        0.440      128.122       37.278        0.085      346.416       24.647      862.652
04/28/2013  13:32:00     -108.704      -25.030        0.957       52.771       59.109       29.470     2784.789     3493.911      868.499        0.979        0.357      111.549       24.205        0.047      346.006       23.942      862.646
04/28/2013  13:33:00       31.485       81.552       20.063       52.598       57.099       42.039     2766.594     3260.287     1767.244        0.792        0.390       87.419       36.191        0.171      346.333       24.506      862.648
04/28/2013  13:34:00       70.880       69.238       10.210       95.456       48.295       45.902     9111.837     2332.397     2106.951        1.173        0.678       99.085       33.439        0.114      346.295       24.440      862.628
04/28/2013  13:35:00      -22.822      264.063      -22.963       68.601      141.051       47.781     4706.051    19895.480     2283.045        4.883        1.344      265.047       63.674        0.058      346.227       24.321      862.631
04/28/2013  13:36:00       57.202      208.654        3.680      103.432      136.224       69.238    10698.277    18556.958     4793.884        4.043        1.702      216.353       71.311        0.109      346.306       24.457      862.632
04/28/2013  13:37:00      -41.844      255.424      -29.779       87.127       96.445       60.727     7591.105     9301.693     3687.724        4.423        1.029      258.829       51.610        0.040      346.271       24.394      862.653
04/28/2013  13:38:00      -73.047      133.085      -12.957       90.578      100.424       53.192     8204.383    10084.984     2829.362        2.216        1.056      151.814       60.197        0.157      346.318       24.478      862.663
04/28/2013  13:39:00     -171.789      -60.145       -2.939      147.630       85.732       48.130    21794.702     7349.996     2316.527        3.229        1.573      182.014       27.041        0.022      346.219       24.307      862.637
04/28/2013  13:40:00     -112.574      -29.949        3.701       83.115       70.830       31.021     6908.048     5016.842      962.296        1.323        0.644      116.490       24.522        0.044      346.001       23.934      862.625
04/28/2013  13:41:00       17.237       17.536       31.396       36.673       30.870       32.566     1344.911      952.985     1060.531        0.247        0.168       24.588       23.917        0.946      346.217       24.307      862.611
04/28/2013  13:42:00       36.177       50.349       13.937       33.593       34.636       28.087     1128.502     1199.677      788.877        0.358        0.156       61.999       22.179        0.128      345.755       23.512      862.583
04/28/2013  13:43:00       10.999       61.434        3.266       56.388       42.860       33.035     3179.569     1836.999     1091.285        0.501        0.305       62.411       29.381        0.222      346.164       24.214      862.591
04/28/2013  13:44:00       34.541      146.547        8.427       91.077       76.599       49.475     8294.969     5867.470     2447.814        1.967        0.831      150.562       47.251        0.098      346.302       24.450      862.552
04/28/2013  13:45:00     -175.958      288.478      -46.176      110.616      106.756       66.648    12235.922    11396.845     4442.021        7.219        1.404      337.906       73.994        0.048      346.410       24.634      862.551
04/28/2013  13:46:00     -144.515      203.377      -14.860      128.784      130.740       81.260    16585.363    17092.898     6603.268        5.137        2.014      249.493       78.765        0.100      346.833       25.364      862.536
04/28/2013  13:47:00     -113.547      251.259      -28.544       81.710      118.205       60.278     6676.481    13972.433     3633.485        5.056        1.214      275.724       64.233        0.054      346.562       24.895      862.543
04/28/2013  13:48:00     -111.218      277.967      -23.550      128.330      141.547       73.451    16468.696    20035.627     5394.992        6.604        2.095      299.391       55.196        0.034      346.396       24.609      862.524
04/28/2013  13:49:00     -197.338       93.139      -14.224      135.151      139.139       65.721    18265.707    19359.640     4319.240        4.487        2.097      218.214       68.521        0.099      346.523       24.830      862.529
04/28/2013  13:50:00     -219.038      -38.029      -45.912       90.215       82.377       54.023     8138.721     6785.894     2918.458        3.468        0.892      222.314       43.097        0.038      346.270       24.395      862.511
04/28/2013  13:51:00     -384.221     -126.027      -31.975      145.325      111.681       70.574    21119.441    12472.640     4980.656       10.154        1.929      404.362       62.029        0.024      346.202       24.278      862.480
04/28/2013  13:52:00     -185.334      -64.445        8.162      166.504      169.712       64.410    27723.674    28802.058     4148.590        4.961        3.034      196.219       69.203        0.124      346.352       24.537      862.479
04/28/2013  13:53:00     -139.449      247.218      -22.044      114.508      123.065       64.072    13112.008    15145.086     4105.265        5.670        1.618      283.836       61.430        0.047      346.407       24.631      862.534
04/28/2013  13:54:00      -57.375      206.533        2.527       92.563      121.076       52.898     8567.978    14659.345     2798.166        3.598        1.301      214.354       55.939        0.068      346.585       24.936      862.532
04/28/2013  13:55:00     -121.487       84.203        2.032       62.178       84.942       46.909     3866.051     7215.083     2200.470        1.756        0.664      147.815       45.212        0.094      346.811       25.327      862.517
04/28/2013  13:56:00      -32.810       34.267       22.832       56.535       43.207       36.469     3196.209     1866.834     1329.994        0.458        0.320       47.442       30.799        0.421      346.898       25.478      862.487
04/28/2013  13:57:00       42.908      151.793       -7.886       74.734      102.245       58.260     5585.212    10454.102     3394.270        2.219        0.972      157.741       52.668        0.111      346.311       24.466      862.449
04/28/2013  13:58:00        4.234      146.383       15.463       59.980      162.106       69.622     3597.644    26278.213     4847.220        2.820        1.736      146.444       93.155        0.405      346.333       24.504      862.430
04/28/2013  13:59:00       84.098      113.036       -6.296       84.453       71.231       46.777     7132.252     5073.917     2188.098        1.714        0.720      140.888       44.450        0.100      346.229       24.325      862.412
04/28/2013  14:00:00      104.123       94.672       33.029       78.615       51.636       57.610     6180.244     2666.327     3318.948        1.653        0.608      140.729       33.754        0.058      346.055       24.026      862.343
04/28/2013  14:01:00      -20.453       96.218       -7.998       83.307       44.241       37.683     6940.031     1957.289     1419.978        1.003        0.516       98.367       28.901        0.086      346.257       24.375      862.326
04/28/2013  14:02:00      237.374      125.183       20.271      136.007       90.971       61.510    18497.977     8275.726     3783.428        5.149        1.528      268.360       51.805        0.037      346.237       24.337      862.306
04/28/2013  14:03:00      213.636      116.029       50.994      123.261       75.343       72.802    15193.188     5676.512     5300.116        4.393        1.308      243.111       56.946        0.055      346.071       24.051      862.274
04/28/2013  14:04:00       43.627      107.520       32.077       80.506       73.824       60.890     6481.199     5450.022     3707.561        1.506        0.782      116.034       39.411        0.115      346.549       24.876      862.275
04/28/2013  14:05:00      201.589      153.523       37.444      201.467       97.803       78.443    40588.991     9565.371     6153.377        6.095        2.815      253.392       39.389        0.024      346.839       25.372      862.220
04/28/2013  14:06:00       -3.144      150.787      -18.870       55.747       59.261       44.829     3107.711     3511.879     2009.661        1.586        0.431      150.820       25.164        0.028      346.911       25.498      862.265
04/28/2013  14:07:00     -130.132      211.063      -33.770       72.886       98.949       49.652     5312.353     9790.996     2465.303        4.009        0.878      247.956       50.585        0.042      346.419       24.649      862.267
04/28/2013  14:08:00     -157.667      220.742      -22.045      110.907      109.271       70.819    12300.338    11940.099     5015.262        5.166        1.463      271.267       90.990        0.113      346.605       24.969      862.259
04/28/2013  14:09:00     -138.267      -35.487       -7.309       95.909       47.506       42.753     9198.506     2256.834     1827.786        1.685        0.664      142.748       32.276        0.051      346.615       24.989      862.210
04/28/2013  14:10:00     -162.082      -42.450       -6.348      102.641       62.021       42.158    10535.083     3846.585     1777.274        2.213        0.808      167.548       39.014        0.054      346.763       25.243      862.190
04/28/2013  14:11:00     -273.906      171.452      -34.947      209.273      190.011       92.511    43795.368    36104.029     8558.197        9.703        4.423      323.141       96.524        0.089      346.727       25.179      862.138
04/28/2013  14:12:00      -32.550      281.720      -26.431       91.752      166.042       76.533     8418.439    27569.936     5857.279        6.148        2.092      283.594       83.133        0.086      346.995       25.640      862.181
04/28/2013  14:13:00      -50.476      209.149      -22.028      102.100      127.523       56.952    10424.364    16262.143     3243.485        3.835        1.496      215.154       66.098        0.094      346.969       25.597      862.191
04/28/2013  14:14:00     -139.047      376.221      -36.531       97.519      109.698       58.732     9509.997    12033.702     3449.456        9.360        1.250      401.094       54.697        0.019      346.348       24.526      862.151
04/28/2013  14:15:00      -63.573      310.611      -39.775      123.582      135.771       63.158    15272.569    18433.709     3988.917        6.989        1.885      317.050       65.044        0.042      346.555       24.884      862.096
04/28/2013  14:16:00       33.676      174.376       -5.831      186.488      128.416       87.630    34777.681    16490.656     7679.009        4.525        2.947      177.598       70.590        0.158      346.758       25.233      862.042
04/28/2013  14:17:00       87.243      165.081       -0.350       93.124      122.318       69.115     8672.088    14961.646     4776.869        3.163        1.421      186.716       71.992        0.149      346.608       24.976      862.040
04/28/2013  14:18:00     -108.710      225.449      -22.452      140.994      108.994       70.771    19879.343    11879.652     5008.465        4.995        1.838      250.290       69.649        0.077      346.744       25.207      862.030
04/28/2013  14:19:00      -95.313      206.559      -22.173      100.490      114.560       71.714    10098.284    13124.053     5142.892        4.030        1.418      227.489       72.956        0.103      347.003       25.657      862.048
04/28/2013  14:20:00      -23.064      196.192      -13.327       70.318       71.184       45.567     4944.553     5067.129     2076.308        2.564        0.604      197.543       41.755        0.045      346.649       25.047      862.035
04/28/2013  14:21:00     -118.200        9.719        1.710      107.266       93.284       42.479    11505.915     8701.912     1804.463        1.804        1.101      118.599       45.907        0.150      346.977       25.612      862.000
04/28/2013  14:22:00      -70.896        0.547        3.509       83.076       39.642       37.378     6901.631     1571.512     1397.092        0.745        0.494       70.899       38.586        0.296      346.969       25.599      861.962
04/28/2013  14:23:00      -10.219       48.006       24.103      100.659       63.899       38.006    10132.198     4083.041     1444.439        0.932        0.783       49.082       34.831        0.504      347.004       25.660      861.929
04/28/2013  14:24:00       11.888      209.361      -16.817       61.961      115.150       52.499     3839.186    13259.604     2756.108        3.205        0.993      209.698       62.103        0.088      346.828       25.353      861.921
04/28/2013  14:25:00      -44.264      131.922      -11.778       65.809      101.220       47.056     4330.777    10245.469     2214.279        1.814        0.840      139.149       52.006        0.140      346.887       25.458      861.887
04/28/2013  14:26:00      -81.450      228.933      -31.287      163.827      119.338       75.584    26839.132    14241.533     5712.888        5.340        2.340      242.991       77.494        0.102      346.735       25.195      861.872
04/28/2013  14:27:00     -127.295      165.540      -12.093       79.742      114.422       51.059     6358.737    13092.367     2607.022        3.290        1.103      208.824       43.749        0.044      347.036       25.712      861.873
04/28/2013  14:28:00     -150.304      126.650      -16.501       91.995      111.797       54.885     8463.072    12498.479     3012.390        3.143        1.199      196.549       60.960        0.096      347.090       25.804      861.849
04/28/2013  14:29:00      -96.997       75.331       11.434      108.269       86.849       54.790    11722.109     7542.755     3001.962        1.874        1.113      122.813       61.405        0.250      347.344       26.245      861.821
04/28/2013  14:30:00     -143.005       65.357      -10.261      116.095       94.096       63.495    13478.158     8854.039     4031.558        2.559        1.318      157.232       74.525        0.225      347.109       25.839      861.818
04/28/2013  14:31:00     -172.638       51.201       -7.079      118.210      130.245       65.085    13973.648    16963.714     4235.999        3.382        1.759      180.070       62.734        0.121      346.991       25.634      861.807
04/28/2013  14:32:00      -61.684      116.733       14.597       75.700      118.768       69.126     5730.492    14105.815     4778.407        2.112        1.231      132.029       63.331        0.230      347.119       25.857      861.790
04/28/2013  14:33:00     -237.235       22.331      -29.954       80.418      131.751       63.646     6466.987    17358.201     4050.788        4.277        1.394      238.284       58.742        0.061      347.038       25.715      861.787
04/28/2013  14:34:00     -173.197       48.948      -25.055      102.061       92.264       54.864    10416.533     8512.695     3010.079        2.748        1.097      179.981       54.176        0.091      347.052       25.740      861.787
04/28/2013  14:35:00     -213.848      237.287      -35.589      130.531      134.371       69.836    17038.264    18055.513     4877.131        7.163        1.999      319.431       66.343        0.043      346.726       25.175      861.777
04/28/2013  14:36:00     -226.056      242.206      -35.478      131.010      124.433       67.937    17163.518    15483.567     4615.503        7.414        1.863      331.308       76.463        0.053      346.711       25.152      861.790
04/28/2013  14:37:00     -184.105      334.291      -38.397      126.999      119.140       77.709    16128.841    14194.238     6038.765        9.173        1.818      381.635       81.808        0.046      346.509       24.804      861.754
04/28/2013  14:38:00      -71.485      132.653        6.692       95.697      109.985       48.138     9157.909    12096.686     2317.313        2.316        1.179      150.689       49.739        0.109      347.044       25.727      861.736
04/28/2013  14:39:00      -93.339      192.429       -6.615       94.660      114.920       61.668     8960.564    13206.561     3802.911        3.587        1.299      213.871       66.328        0.096      347.020       25.685      861.737
04/28/2013  14:40:00     -173.790      197.207      -34.217      120.914      121.440       67.365    14620.107    14747.760     4537.996        5.208        1.695      262.857       63.592        0.059      346.649       25.045      861.745
04/28/2013  14:41:00     -107.665      198.517      -21.040       88.721      122.861       60.020     7871.466    15094.940     3602.370        3.900        1.328      225.833       58.251        0.067      346.699       25.133      861.719
04/28/2013  14:42:00     -235.031      254.252      -34.115      101.643      148.440       73.489    10331.337    22034.377     5400.561        7.940        1.888      346.242       74.867        0.047      346.727       25.179      861.718
04/28/2013  14:43:00     -147.913       72.833      -28.139       85.472      142.304       59.132     7305.477    20250.432     3496.597        2.951        1.553      164.873       48.184        0.085      346.855       25.401      861.694
04/28/2013  14:44:00     -278.218       23.337      -44.467       97.989      118.882       59.354     9601.942    14132.859     3522.918        5.359        1.363      279.195       55.900        0.040      346.705       25.142      861.665
04/28/2013  14:45:00     -187.731      270.802      -39.692      109.015      106.242       57.518    11884.326    11287.417     3308.335        6.831        1.324      329.510       55.089        0.028      346.531       24.841      861.649
04/28/2013  14:46:00     -180.053      189.954      -31.151       78.322      139.505       50.738     6134.262    19461.776     2574.351        4.882        1.409      261.728       52.212        0.040      346.475       24.746      861.628
04/28/2013  14:47:00     -107.227      144.157      -18.816       94.399      136.563       56.760     8911.136    18649.397     3221.673        3.170        1.539      179.663       67.200        0.140      346.921       25.513      861.605
04/28/2013  14:48:00     -103.392      236.609       -6.854       94.971      127.072       64.958     9019.546    16147.226     4219.584        4.805        1.469      258.212       62.409        0.058      346.901       25.481      861.590
04/28/2013  14:49:00      -95.079      187.760      -21.572       67.976       96.100       53.983     4620.676     9235.270     2914.169        3.076        0.839      210.461       51.682        0.060      346.960       25.581      861.566
04/28/2013  14:50:00      -39.735      285.693      -19.519       65.732      108.528       47.484     4320.705    11778.345     2254.754        5.096        0.918      288.443       54.194        0.035      346.781       25.272      861.545
04/28/2013  14:51:00       -5.265       69.175       24.562       80.806       67.000       54.267     6529.639     4489.061     2944.942        0.969        0.698       69.375       46.421        0.448      347.024       25.694      861.500
04/28/2013  14:52:00        0.784       84.442       18.805       64.966       75.085       51.832     4220.603     5637.806     2686.550        1.001        0.627       84.446       37.769        0.200      347.153       25.916      861.487
04/28/2013  14:53:00     -102.309       83.429      -28.212      115.092       78.277       47.210    13246.243     6127.299     2228.789        1.991        1.080      132.013       56.452        0.183      347.024       25.693      861.431
04/28/2013  14:54:00     -116.089      116.502      -16.321      137.461      110.824       67.086    18895.527    12281.897     4500.592        3.149        1.784      164.467       90.093        0.300      347.076       25.783      861.397
04/28/2013  14:55:00      -37.161      156.677       -6.550      107.207      106.084       59.134    11493.265    11253.713     3496.844        2.610        1.312      161.024       54.193        0.113      347.282       26.137      861.392
04/28/2013  14:56:00        9.325      205.617       -8.780       93.197      125.791       59.580     8685.717    15823.369     3549.778        3.525        1.403      205.828       60.921        0.088      347.257       26.093      861.362
04/28/2013  14:57:00      -64.014      303.671      -36.963       82.644      128.365       56.953     6830.036    16477.656     3243.616        6.211        1.328      310.345       58.288        0.035      347.122       25.861      861.360
04/28/2013  14:58:00     -105.430      345.348      -36.739      134.315      157.310       78.299    18040.601    24746.593     6130.743        9.031        2.446      361.083       61.986        0.029      346.971       25.599      861.329
04/28/2013  14:59:00     -111.455      375.954      -26.551      123.238      204.564       89.227    15187.522    41846.596     7961.419       10.972        3.250      392.127       99.289        0.064      346.979       25.614      861.315
04/28/2013  15:00:00     -256.658      263.935      -61.196      128.810      105.072       76.657    16591.972    11040.220     5876.328        8.639        1.675      368.151       74.242        0.041      346.956       25.573      861.304
04/28/2013  15:01:00     -112.633      345.635      -34.675       87.536      112.266       60.576     7662.609    12603.738     3669.451        7.864        1.197      363.524       56.121        0.024      346.946       25.555      861.296
04/28/2013  15:02:00     -106.011      357.262      -35.578       84.151      112.115       56.714     7081.309    12569.770     3216.520        8.150        1.143      372.658       56.540        0.023      346.831       25.358      861.268
04/28/2013  15:03:00      -99.717      352.959      -29.409       73.381      140.263       54.691     5384.779    19673.658     2991.085        8.171        1.402      366.775       64.328        0.031      346.756       25.229      861.245
04/28/2013  15:04:00     -190.463      332.230      -39.069      111.924      115.919       68.518    12527.078    13437.283     4694.710        8.941        1.533      382.953       66.915        0.031      346.897       25.471      861.228
04/28/2013  15:05:00      -69.362      326.388      -23.296       91.022      116.456       56.189     8285.078    13561.913     3157.184        6.844        1.250      333.677       58.868        0.031      346.961       25.581      861.223
04/28/2013  15:06:00      -40.551      348.964      -48.459       66.650       82.072       45.155     4442.274     6735.866     2038.999        6.949        0.661      351.313       34.363        0.010      346.737       25.195      861.208
04/28/2013  15:07:00     -107.616      206.944      -22.325       96.028      134.246       60.049     9221.437    18022.030     3605.932        4.287        1.542      233.253       62.151        0.071      347.134       25.880      861.199
04/28/2013  15:08:00     -274.059      206.407      -52.657      133.014      115.107       63.531    17692.769    13249.540     4036.247        7.773        1.749      343.092       62.930        0.034      347.003       25.654      861.208
04/28/2013  15:09:00     -179.501      320.526      -31.391      123.123      148.379       67.720    15159.274    22016.374     4586.006        8.884        2.088      367.365       64.829        0.031      346.881       25.444      861.229
04/28/2013  15:10:00     -212.434      266.437      -60.317       90.600      102.414       42.705     8208.409    10488.596     1823.716        7.013        1.026      340.760       43.934        0.017      346.723       25.172      861.247
04/28/2013  15:11:00     -137.586       58.358      -32.868       75.281      108.473       38.825     5667.171    11766.403     1507.409        2.117        0.947      149.451       50.653        0.115      346.609       24.979      861.253
04/28/2013  15:12:00      -56.050      -45.790       11.296       93.787       69.495       43.391     8796.085     4829.591     1882.766        1.043        0.775       72.377       38.671        0.285      346.940       25.549      861.183
04/28/2013  15:13:00      -62.093      -87.079       -3.559       74.282       58.858       50.894     5517.841     3464.230     2590.242        1.151        0.579      106.950       42.222        0.156      346.657       25.062      861.114
04/28/2013  15:14:00      -39.337      -95.600       22.558       67.355       91.679       51.452     4536.739     8405.126     2647.327        1.339        0.779      103.377       53.704        0.270      346.751       25.225      861.038
04/28/2013  15:15:00      -28.438      -97.271       -1.838       67.995       81.034       32.209     4623.296     6566.499     1037.427        1.125        0.611      101.343       25.848        0.065      346.802       25.311      860.985
04/28/2013  15:16:00      -23.009       23.473        0.543       67.062       56.392       38.084     4497.344     3180.064     1450.424        0.510        0.456       32.869       27.249        0.687      346.795       25.300      860.972
04/28/2013  15:17:00      131.915       72.282       13.528       92.055       50.942       44.222     8474.141     2595.090     1955.578        1.791        0.651      150.421       27.626        0.034      346.862       25.414      860.991
04/28/2013  15:18:00       81.389      132.770       -6.800       98.285      128.906       58.325     9659.875    16616.672     3401.805        2.698        1.484      155.731       55.722        0.128      346.943       25.553      860.963
04/28/2013  15:19:00      109.102      115.070        7.848       84.171       75.971       43.561     7084.776     5771.613     1897.570        1.998        0.738      158.570       39.285        0.061      346.747       25.216      860.939
04/28/2013  15:20:00      106.432       90.430        7.284       82.197       61.503       42.978     6756.342     3782.620     1847.086        1.597        0.619      139.662       15.064        0.012      346.880       25.443      860.916
04/28/2013  15:21:00      141.107      104.709       14.396       56.570       53.547       43.517     3200.115     2867.257     1893.694        1.952        0.398      175.713       27.670        0.025      346.768       25.252      860.925
04/28/2013  15:22:00      164.679      122.498       30.819       72.550       53.664       46.510     5263.480     2879.856     2163.192        2.669        0.515      205.243       25.748        0.016      346.966       25.590      860.895
04/28/2013  15:23:00      171.981      196.472       -1.518       79.537      114.795       64.158     6326.196    13177.925     4116.198        4.590        1.181      261.110       63.551        0.059      346.800       25.305      860.891
04/28/2013  15:24:00      140.259      165.305       23.011      105.494      174.047       66.944    11128.933    30292.364     4481.449        4.671        2.295      216.791       79.232        0.134      346.940       25.548      860.861
04/28/2013  15:25:00       65.194      210.191       13.491      103.628      180.442       92.640    10738.824    32559.349     8582.094        5.024        2.594      220.070       99.382        0.204      347.020       25.684      860.852
04/28/2013  15:26:00       21.031      226.715      -23.770       69.804      115.597       59.352     4872.607    13362.641     3522.656        3.708        1.088      227.688       63.132        0.077      347.198       25.990      860.842
04/28/2013  15:27:00       66.572      251.583      -21.795       90.499      120.281       63.546     8190.039    14467.629     4038.044        4.744        1.335      260.242       65.027        0.062      346.899       25.475      860.821
04/28/2013  15:28:00      257.389      145.257       16.659       91.308       72.046       59.006     8337.179     5190.610     3481.754        5.231        0.850      295.548       38.980        0.017      346.923       25.516      860.739
04/28/2013  15:29:00      288.234      185.837       34.694      134.605       93.675       84.250    18118.621     8774.969     7098.053        7.640        1.700      342.949       22.617        0.004      347.059       25.750      860.680
04/28/2013  15:30:00      328.828      224.174       29.576      143.440       98.944       89.887    20575.164     9790.005     8079.652        9.884        1.922      397.972       60.689        0.023      346.910       25.496      860.658
04/28/2013  15:31:00       63.422      202.436       -7.998       98.562      148.001       74.869     9714.424    21904.157     5605.399        4.114        1.861      212.139       71.012        0.112      347.119       25.855      860.682
04/28/2013  15:32:00       86.133      230.365        3.283      126.171      143.685       85.168    15919.089    20645.243     7253.672        5.215        2.191      245.941       75.531        0.094      347.230       26.046      860.635
04/28/2013  15:33:00       93.383      275.614      -22.996      205.378      138.709       76.777    42180.231    19240.239     5894.671        7.625        3.366      291.004       69.370        0.057      347.354       26.259      860.575
04/28/2013  15:34:00      -26.317      132.825       -1.987      129.228      164.350       83.416    16699.792    27010.934     6958.192        3.449        2.533      135.407       72.396        0.286      347.804       27.036      860.581
04/28/2013  15:35:00     -370.058       21.869      -14.588      185.867      137.516       78.441    34546.400    18910.576     6153.043        9.861        2.981      370.704       83.574        0.051      347.481       26.477      860.600
04/28/2013  15:36:00     -223.964      116.647      -27.446      104.883       86.426       53.407    11000.418     7469.456     2852.255        4.292        1.066      252.520       52.436        0.043      347.266       26.107      860.618
04/28/2013  15:37:00      -46.887       74.142       -2.975       61.798       82.845       53.973     3818.939     6863.292     2913.123        1.065        0.680       87.724       30.060        0.117      347.301       26.171      860.625
04/28/2013  15:38:00     -216.611      -40.848      -17.855      131.395      156.278       53.602    17264.751    24422.816     2873.226        4.673        2.228      220.429       62.372        0.080      347.344       26.243      860.579
04/28/2013  15:39:00     -210.988       73.977      -28.018      147.450      105.669       61.055    21741.631    11166.018     3727.746        4.370        1.832      223.581       67.703        0.092      347.439       26.406      860.568
04/28/2013  15:40:00     -146.553      -11.474       -1.719      105.432      108.868       64.092    11115.901    11852.202     4107.726        2.434        1.354      147.001       63.653        0.187      347.853       27.120      860.519
04/28/2013  15:41:00     -176.547      -11.181        3.089      111.182      112.081       62.950    12361.446    12562.178     3962.680        3.009        1.444      176.901       67.098        0.144      347.751       26.944      860.500
04/28/2013  15:42:00     -330.395        8.893      -45.200      131.010      185.471       68.505    17163.624    34399.594     4692.884        8.376        2.813      330.514       59.095        0.032      347.395       26.330      860.478
04/28/2013  15:43:00      -75.296       14.000       24.169      152.892      124.922       88.442    23375.984    15605.542     7821.950        2.662        2.340       76.587       97.487        1.620      347.547       26.592      860.466
04/28/2013  15:44:00      -51.466      175.538      -10.062      136.875      168.968       84.634    18734.717    28550.296     7162.947        4.400        2.722      182.928       72.087        0.155      347.388       26.319      860.373
04/28/2013  15:45:00     -421.653     -288.209      -29.976      254.261      131.579       97.495    64648.688    17312.933     9505.286       17.659        4.573      510.740       87.727        0.030      347.288       26.146      860.337
04/28/2013  15:46:00     -327.678     -229.251       -9.884      171.405      150.150       76.939    29379.637    22545.145     5919.537       10.892        2.892      399.912       85.534        0.046      347.260       26.097      860.549
04/28/2013  15:47:00     -256.671     -122.037        0.974      123.618       94.936       49.276    15281.357     9012.854     2428.097        5.374        1.336      284.206       57.244        0.041      347.160       25.924      860.620
04/28/2013  15:48:00     -186.639       -0.975       12.297       93.662       67.318       43.621     8772.605     4531.769     1902.821        2.509        0.760      186.642       48.618        0.068      347.370       26.287      860.625
04/28/2013  15:49:00      -34.521       42.518       16.992       49.114       74.536       33.246     2412.219     5555.658     1105.277        0.618        0.454       54.768       28.246        0.266      347.699       26.856      860.630
04/28/2013  15:50:00       -6.405       13.962      -11.715       67.074       42.871       18.426     4498.937     1837.931      339.525        0.352        0.334       15.361       11.064        0.519      347.412       26.363      860.609
04/28/2013  15:51:00     -450.257       35.940      -38.623      172.389      128.435       57.210    29718.104    16495.579     3273.001       12.749        2.474      451.689       66.629        0.022      347.464       26.448      860.626
04/28/2013  15:52:00     -329.960      -44.410      -17.935      135.718      141.036       66.175    18419.240    19891.141     4379.138        7.692        2.134      332.936       73.029        0.048      347.366       26.278      860.610
04/28/2013  15:53:00     -482.135     -182.285      -18.460      180.447      140.675       82.727    32561.293    19789.364     6843.739       16.260        2.960      515.443       82.640        0.026      347.207       26.005      860.566
04/28/2013  15:54:00     -371.423     -147.759      -10.445      156.551       80.278       57.961    24508.179     6444.613     3359.517        9.710        1.716      399.735       70.010        0.031      347.068       25.765      860.574
04/28/2013  15:55:00     -141.897       -3.033        2.455       86.897       83.605       42.396     7551.064     6989.746     1797.454        1.824        0.817      141.930       37.871        0.071      347.415       26.367      860.574
04/28/2013  15:56:00     -129.960      -21.853      -20.317      106.172       82.409       44.088    11272.489     6791.203     1943.762        1.889        1.000      131.785       31.563        0.057      347.536       26.576      860.550
04/28/2013  15:57:00      -41.234       94.740        2.957       85.524       74.351       43.065     7314.330     5528.082     1854.551        1.269        0.735      103.324       54.182        0.275      347.513       26.535      860.518
04/28/2013  15:58:00      -61.162       81.133        1.485       84.508       82.177       51.771     7141.613     6753.017     2680.208        1.345        0.829      101.604       52.900        0.271      347.623       26.726      860.503
04/28/2013  15:59:00      -40.537       37.901       33.814       71.789       59.825       42.792     5153.659     3579.001     1831.165        0.739        0.528       55.496       26.403        0.226      347.900       27.205      860.493
04/28/2013  16:00:00      -89.019       67.901        1.700       90.380       77.615       58.813     8168.558     6024.071     3458.987        1.509        0.883      111.960       52.536        0.220      347.684       26.829      860.495
04/28/2013  16:01:00     -170.595      172.981      -16.348       93.760      152.427       67.340     8790.923    23233.908     4534.687        4.792        1.828      242.951       65.360        0.072      347.397       26.335      860.498
04/28/2013  16:02:00      -87.631      121.296      -21.450       61.158       76.906       52.008     3740.288     5914.576     2704.811        1.760        0.618      149.639       27.252        0.033      347.231       26.049      860.488
04/28/2013  16:03:00       92.978       38.176       53.900       72.807       71.028       57.187     5300.807     5045.006     3270.309        1.331        0.681      100.510       40.060        0.159      347.082       25.795      860.392
04/28/2013  16:04:00       89.926        1.100       42.127      104.597      122.145       74.896    10940.592    14919.287     5609.392        2.066        1.573       89.933       60.445        0.452      347.157       25.922      860.232
04/28/2013  16:05:00     -234.333     -260.324      -15.836      231.891      148.129       92.108    53773.465    21942.087     8483.857       10.355        4.210      350.258       75.496        0.046      347.369       26.284      860.120
04/28/2013  16:06:00     -221.250     -203.583        7.252      145.401      120.616       87.999    21141.404    14548.129     7743.760        6.693        2.172      300.662       90.970        0.092      347.266       26.108      860.369
04/28/2013  16:07:00     -302.495     -163.319      -10.767      138.149       98.890       68.574    19085.058     9779.219     4702.450        7.592        1.678      343.768       79.544        0.054      347.322       26.204      860.393
04/28/2013  16:08:00     -206.867      -31.019       15.356      160.662      132.177       78.784    25812.354    17470.791     6206.987        4.673        2.475      209.180       82.565        0.156      347.422       26.378      860.347
04/28/2013  16:09:00      -15.300      128.878       23.166       95.417      127.103       70.347     9104.318    16155.271     4948.750        2.379        1.510      129.784       65.943        0.258      347.431       26.395      860.355
04/28/2013  16:10:00      -87.949      142.338      -13.189       91.363      116.948       53.825     8347.177    13676.912     2897.143        2.654        1.246      167.318       49.712        0.088      347.519       26.546      860.349
04/28/2013  16:11:00      -43.050      231.080       -0.456      104.608      129.442       75.942    10942.887    16755.189     5767.193        4.435        1.673      235.056       66.172        0.079      347.517       26.542      860.283
04/28/2013  16:12:00     -234.553      348.346      -64.127      119.105      166.715       80.761    14186.087    27793.949     6522.286       11.448        2.425      419.952       79.399        0.036      347.461       26.442      860.277
04/28/2013  16:13:00     -231.530      305.895      -39.751      149.098      179.070       78.837    22230.116    32065.971     6215.346       10.462        3.026      383.638       80.605        0.044      347.325       26.209      860.278
04/28/2013  16:14:00     -186.323      279.705      -43.214      166.620      208.892       92.994    27762.330    43635.763     8647.852        9.742        4.002      336.082       79.819        0.056      347.393       26.326      860.277
04/28/2013  16:15:00     -159.503      305.357      -30.059      113.885      145.872       78.134    12969.686    21278.548     6104.939        7.996        2.018      344.505       80.671        0.055      347.383       26.309      860.318
04/28/2013  16:16:00     -154.172      312.308      -31.347      135.579      160.033       74.469    18381.779    25610.535     5545.620        8.590        2.477      348.290       88.661        0.065      347.412       26.359      860.329
04/28/2013  16:17:00     -201.404      315.940      -36.965      164.163      143.479       94.662    26949.584    20586.123     8960.962        9.911        2.825      374.675       88.957        0.056      347.252       26.083      860.321
04/28/2013  16:18:00     -283.186      234.655      -50.504      145.875      160.568       80.042    21279.391    25782.107     6406.670        9.563        2.673      367.774       85.362        0.054      347.187       25.971      860.320
04/28/2013  16:19:00     -208.952      316.776      -48.308      149.439      209.783       86.605    22332.095    44008.992     7500.421       11.008        3.692      379.484       93.793        0.061      347.160       25.925      860.332
04/28/2013  16:20:00     -140.722      393.093      -48.501      125.426      151.211       61.690    15731.733    22864.677     3805.700       10.953        2.120      417.522       56.474        0.018      347.117       25.850      860.329
04/28/2013  16:21:00     -168.762      248.690      -46.479      167.603      165.595       79.345    28090.830    27421.814     6295.633        7.714        3.090      300.545       69.843        0.054      347.302       26.169      860.307
04/28/2013  16:22:00     -189.479      291.986      -26.765      173.292      174.993      100.935    30030.167    30622.575    10187.921        9.634        3.542      348.078      108.735        0.098      347.274       26.123      860.349
04/28/2013  16:23:00     -288.191      343.648      -41.442      141.356      212.192       91.003    19981.437    45025.388     8281.542       13.806        3.664      448.495       84.480        0.035      347.168       25.937      860.355
04/28/2013  16:24:00     -189.082      318.991      -38.806      104.975      150.256       67.212    11019.681    22576.745     4517.424        8.856        1.906      370.820       55.354        0.022      347.300       26.166      860.365
04/28/2013  16:25:00     -250.091      202.548      -47.049      171.498      168.118       95.524    29411.692    28263.738     9124.873        8.628        3.340      321.825       86.724        0.073      347.266       26.107      860.361
04/28/2013  16:26:00     -179.922       13.346      -40.841      192.170      101.353       81.634    36929.337    10272.384     6664.058        4.403        2.693      180.416       76.648        0.180      347.377       26.300      860.298
04/28/2013  16:27:00     -292.371      255.685      -60.002      135.491      146.265       73.373    18357.834    21393.546     5383.606        9.979        2.257      388.402       73.975        0.036      347.386       26.313      860.327
04/28/2013  16:28:00      -94.464      474.200      -44.395      127.212      175.700       87.637    16183.002    30870.662     7680.229       14.524        2.737      483.518       88.460        0.033      347.203       25.999      860.314
04/28/2013  16:29:00     -115.810      357.620      -40.039      113.982      213.153       76.154    12991.846    45434.339     5799.499       10.355        3.211      375.905       89.182        0.056      347.264       26.104      860.292
04/28/2013  16:30:00     -209.614      217.327      -39.436      170.829      159.133       76.899    29182.688    25323.443     5913.454        7.656        3.021      301.942       70.972        0.055      347.347       26.247      860.302
04/28/2013  16:31:00     -280.146      301.414      -48.765      165.004      172.046       95.785    27226.376    29599.873     9174.694       11.884        3.300      411.500       92.673        0.051      347.335       26.227      860.305
04/28/2013  16:32:00     -171.482      177.411      -22.350      106.582      228.696       67.371    11359.694    52301.879     4538.899        6.478        3.410      246.740       58.845        0.057      347.510       26.529      860.331
04/28/2013  16:33:00     -182.110       35.343      -15.046      129.422      131.402       61.648    16749.957    17266.541     3800.493        3.622        1.891      185.508       37.997        0.042      347.264       26.105      860.285
04/28/2013  16:34:00     -176.722      182.193      -23.340       99.439      170.407       60.881     9888.178    29038.465     3706.557        5.379        2.132      253.820       56.939        0.050      347.317       26.195      860.315
04/28/2013  16:35:00     -124.875      359.719      -26.995      107.437      172.600       95.325    11542.796    29790.638     9086.865        9.806        2.521      380.777       99.386        0.068      347.196       25.987      860.302
04/28/2013  16:36:00     -159.265      287.026      -21.661      126.454      133.987       75.352    15990.531    17952.519     5677.857        7.391        1.981      328.251       79.537        0.059      347.274       26.122      860.318
04/28/2013  16:37:00     -174.343      368.148      -43.694      138.059      220.937       79.806    19060.160    48813.213     6369.026       12.103        3.712      407.343       78.870        0.037      347.151       25.908      860.311
04/28/2013  16:38:00     -345.994      131.392      -44.525      208.042      173.912       95.561    43281.488    30245.507     9131.853       11.079        4.133      370.103       97.864        0.070      347.167       25.936      860.324
04/28/2013  16:39:00     -320.344      114.567      -39.919      197.910      128.162       97.844    39168.553    16425.620     9573.546        9.124        3.258      340.215      110.069        0.105      347.074       25.777      860.316
04/28/2013  16:40:00     -342.914      -21.870      -38.918      185.205      153.412       84.278    34300.731    23535.315     7102.840        9.225        3.247      343.611       79.983        0.054      347.077       25.782      860.279
04/28/2013  16:41:00     -228.345      240.040      -31.252      130.962      162.367       86.351    17151.047    26362.975     7456.411        8.084        2.549      331.301       68.033        0.042      347.242       26.067      860.288
04/28/2013  16:42:00     -299.694      363.103      -82.920      170.136      195.252       97.613    28946.338    38123.473     9528.327       15.255        3.830      470.808      106.603        0.051      347.064       25.758      860.309
04/28/2013  16:43:00     -231.953      351.002      -50.813      152.997      130.586       86.664    23408.031    17052.827     7510.630       11.377        2.399      420.720       84.640        0.040      347.038       25.714      860.270
04/28/2013  16:44:00     -224.741      322.043      -56.899      134.431      168.295       80.109    18071.644    28323.098     6417.520       10.512        2.641      392.709       73.961        0.035      347.170       25.940      860.245
04/28/2013  16:45:00     -219.306      305.240      -32.388      145.732      161.200       96.553    21237.759    25985.430     9322.449        9.942        2.827      375.855       88.137        0.055      347.171       25.943      860.224
04/28/2013  16:46:00     -244.733       21.379      -29.513      170.289       78.223       73.317    28998.252     6118.831     5375.443        5.085        2.025      245.665       77.459        0.099      347.294       26.157      860.252
04/28/2013  16:47:00     -212.847      101.156      -12.531      117.420      128.654       80.552    13787.484    16551.821     6488.591        4.625        1.841      235.662       54.569        0.054      347.378       26.300      860.232
04/28/2013  16:48:00     -239.254      178.618      -32.857      124.812      121.164       77.304    15578.087    14680.676     5975.927        6.322        1.812      298.574       61.134        0.042      347.227       26.041      860.270
04/28/2013  16:49:00     -194.258      228.198      -32.082       93.201      126.142       59.843     8686.385    15911.781     3581.138        5.950        1.409      299.684       47.555        0.025      347.159       25.922      860.224
04/28/2013  16:50:00     -172.316      121.583      -20.710      107.484      123.378       60.609    11552.747    15222.170     3673.506        3.767        1.522      210.892       66.560        0.100      347.284       26.140      860.221
04/28/2013  16:51:00     -177.860      286.648      -41.371      109.700      206.787       69.943    12034.048    42760.988     4892.076        8.759        2.984      337.344       76.270        0.051      347.170       25.942      860.216
04/28/2013  16:52:00     -172.044      265.937      -33.623      124.742      118.174       67.677    15560.554    13965.206     4580.171        6.777        1.705      316.736       70.345        0.049      347.320       26.199      860.214
04/28/2013  16:53:00     -199.129      337.420      -35.093      101.220      145.297       80.622    10245.566    21111.301     6499.981        9.629        1.893      391.797       74.216        0.036      347.307       26.177      860.213
04/28/2013  16:54:00     -178.161      282.550      -28.823      134.579      141.442       76.175    18111.413    20005.963     5802.695        7.815        2.196      334.030       83.407        0.062      347.329       26.216      860.217
04/28/2013  16:55:00     -189.935       98.832       -5.342      149.088      171.817       72.486    22227.199    29521.166     5254.167        5.143        2.850      214.110       70.915        0.110      347.570       26.631      860.203
04/28/2013  16:56:00     -151.493      253.210      -21.682      107.641      120.357       65.486    11586.642    14485.808     4288.396        5.894        1.518      295.068       67.162        0.052      347.308       26.180      860.221
04/28/2013  16:57:00     -214.355      317.536      -52.744      121.718      160.080       76.097    14815.263    25625.513     5790.744        9.789        2.312      383.115       84.305        0.048      347.113       25.843      860.233
04/28/2013  16:58:00     -277.560      361.695      -53.461      136.426      144.174       86.587    18612.033    20786.212     7497.292       12.880        2.345      455.920       83.135        0.033      347.069       25.767      860.230
04/28/2013  16:59:00     -308.901      397.473      -58.789      170.412      180.036       90.744    29040.349    32412.926     8234.401       16.326        3.484      503.393       86.505        0.030      346.982       25.618      860.228
04/28/2013  17:00:00     -321.254      421.949      -81.593      135.762      165.308       80.563    18431.408    27326.838     6490.431       17.007        2.612      530.325       83.388        0.025      346.948       25.558      860.257
04/28/2013  17:01:00     -251.667      375.811      -49.609      140.843      193.433       93.137    19836.681    37416.518     8674.568       13.647        3.296      452.295       99.593        0.048      346.967       25.592      860.241
04/28/2013  17:02:00     -200.790      366.594      -43.060      132.196      136.430       81.491    17475.693    18613.161     6640.832       10.964        2.136      417.981       78.238        0.035      347.014       25.673      860.231
04/28/2013  17:03:00     -168.814      248.152      -46.182      156.361      117.783       66.128    24448.757    13872.800     4372.946        6.744        2.135      300.129       64.906        0.047      347.114       25.845      860.223
04/28/2013  17:04:00     -165.730      348.848      -43.901      123.863      146.023       79.274    15342.057    21322.721     6284.396        9.701        2.147      386.214       66.887        0.030      347.188       25.972      860.198
04/28/2013  17:05:00     -308.002      309.047      -52.890      161.121      143.496       87.788    25959.947    20591.144     7706.652       12.370        2.713      436.320       80.711        0.034      347.104       25.827      860.204
04/28/2013  17:06:00     -229.206      304.516      -55.052      134.605      132.140       67.177    18118.397    17461.004     4512.736        9.419        2.005      381.137       75.545        0.039      347.094       25.812      860.193
04/28/2013  17:07:00     -136.814      370.979      -42.786      114.754      165.497       76.203    13168.426    27389.121     5806.905       10.226        2.318      395.403       87.171        0.049      347.018       25.680      860.176
04/28/2013  17:08:00      -57.627      541.358      -63.103      106.163      124.471       59.585    11270.644    15493.106     3550.396       16.534        1.516      544.417       54.427        0.010      346.969       25.595      860.169
04/28/2013  17:09:00     -174.542      221.904      -17.198      144.565      133.794       79.959    20899.165    17900.875     6393.518        6.259        2.260      282.323       98.143        0.121      347.222       26.032      860.159
04/28/2013  17:10:00      -76.805      368.830      -41.457       88.319      169.658       57.085     7800.278    28783.727     3258.688        9.174        1.992      376.742       72.382        0.037      347.001       25.651      860.150
04/28/2013  17:11:00      -58.610      293.214      -27.047       75.197      155.069       48.236     5654.593    24046.269     2326.712        6.108        1.601      299.014       43.627        0.021      347.223       26.034      860.122
04/28/2013  17:12:00      -54.373      534.527      -64.312      102.824      168.498       68.166    10572.694    28391.551     4646.581       16.820        2.181      537.286       71.138        0.018      347.030       25.700      860.134
04/28/2013  17:13:00      -57.879      396.180      -44.414       91.342      108.340       49.336     8343.336    11737.552     2434.001        9.239        1.126      400.385       46.941        0.014      347.001       25.651      860.138
04/28/2013  17:14:00      -59.315      286.590      -27.800       86.279      139.335       65.105     7444.099    19414.288     4238.719        5.875        1.555      292.663       70.679        0.058      347.062       25.757      860.170
04/28/2013  17:15:00      -69.284      196.660      -24.846       57.250       91.324       37.968     3277.542     8340.071     1441.575        2.857        0.653      208.508       29.838        0.020      347.215       26.021      860.148
04/28/2013  17:16:00      -49.680      399.195      -39.161      117.899      197.852       74.434    13900.241    39145.458     5540.404       11.096        2.929      402.274       73.348        0.033      347.143       25.895      860.158
04/28/2013  17:17:00     -135.619      252.579      -39.848      110.890      222.429       61.920    12296.590    49474.588     3834.043        7.468        3.280      286.685       66.336        0.054      347.248       26.076      860.150
04/28/2013  17:18:00     -207.761      289.951      -58.576       93.804       96.768       57.030     8799.265     9364.075     3252.391        7.604        1.071      356.701       56.187        0.025      347.198       25.987      860.157
04/28/2013  17:19:00     -149.557      143.052      -20.918       71.284      131.513       49.503     5081.449    17295.555     2450.588        3.404        1.241      206.957       43.273        0.044      347.314       26.192      860.126
04/28/2013  17:20:00      -64.449      233.458      -22.336       72.115      102.873       49.825     5200.547    10582.930     2482.509        3.871        0.913      242.191       45.042        0.035      347.347       26.246      860.125
04/28/2013  17:21:00     -119.308      205.716      -41.249      106.510      105.096       48.814    11344.322    11045.106     2382.846        4.151        1.239      237.809       49.811        0.044      347.371       26.287      860.135
04/28/2013  17:22:00     -133.994      170.864      -10.865      100.159      144.380       56.674    10031.790    20845.710     3211.981        4.067        1.704      217.138       60.141        0.077      347.363       26.274      860.148
04/28/2013  17:23:00     -114.466      117.302      -10.042       76.667       93.332       52.912     5877.809     8710.777     2799.646        2.217        0.869      163.897       42.472        0.067      347.450       26.426      860.141
04/28/2013  17:24:00     -151.997      202.706      -30.374      128.396      162.976       66.910    16485.422    26561.056     4476.924        5.631        2.376      253.363       68.845        0.074      347.334       26.226      860.155
04/28/2013  17:25:00     -215.741      250.430      -42.173      100.699      116.717       66.796    10140.224    13622.974     4461.706        6.963        1.411      330.544       65.003        0.039      347.066       25.762      860.167
04/28/2013  17:26:00     -118.823      222.154      -10.882       71.008      112.541       50.279     5042.076    12665.523     2527.990        4.191        1.012      251.935       50.463        0.040      347.092       25.809      860.151
04/28/2013  17:27:00     -129.563       20.741      -19.191       50.098       63.345       39.001     2509.767     4012.617     1521.103        1.281        0.402      131.213       27.031        0.042      347.457       26.440      860.155
04/28/2013  17:28:00      -98.129       57.995       -1.245       98.054       68.679       45.978     9614.536     4716.818     2113.948        1.472        0.822      113.986       49.045        0.185      347.300       26.169      860.154
04/28/2013  17:29:00      -83.647      129.781       -8.859       70.753       64.867       56.667     5005.943     4207.790     3211.192        1.817        0.621      154.402       43.507        0.079      347.289       26.149      860.128
04/28/2013  17:30:00      -55.846      163.341      -18.216       73.456      118.922       55.766     5395.755    14142.548     3109.849        2.638        1.132      172.624       36.876        0.046      347.370       26.287      860.123
04/28/2013  17:31:00      -52.379      411.908      -26.674       97.698      138.492       74.250     9544.901    19180.151     5513.039       10.367        1.712      415.225       72.071        0.030      347.017       25.677      860.128
04/28/2013  17:32:00      -80.105      425.920      -44.224       75.047      110.067       60.467     5632.123    12114.704     3656.263       10.559        1.070      433.388       55.560        0.016      347.018       25.680      860.138
04/28/2013  17:33:00     -118.610      232.764      -32.351       93.634       94.618       57.400     8767.294     8952.572     3294.791        4.515        1.051      261.242       52.846        0.041      347.123       25.861      860.134
04/28/2013  17:34:00     -166.622      182.409      -35.500      131.768      105.434       63.981    17362.718    11116.367     4093.613        4.743        1.629      247.054       59.063        0.057      347.212       26.015      860.140
04/28/2013  17:35:00     -278.973      135.865      -43.444      148.459      165.863       83.620    22040.013    27510.690     6992.256        7.735        2.827      310.298       94.998        0.094      347.104       25.829      860.140
04/28/2013  17:36:00     -193.623      312.924      -47.963       68.484      110.401       57.530     4690.053    12188.455     3309.671        7.895        1.009      367.983       46.157        0.016      346.944       25.553      860.123
04/28/2013  17:37:00     -158.358      121.337      -23.036       80.452      163.744       51.691     6472.500    26811.976     2671.993        3.814        1.798      199.500       44.599        0.050      347.227       26.040      860.097
04/28/2013  17:38:00     -177.306      -74.286       10.074      149.274      111.272       58.959    22282.751    12381.354     3476.156        3.759        1.907      192.239       74.392        0.150      347.257       26.092      860.077
04/28/2013  17:39:00      -79.006       67.974        0.265       57.220       72.785       60.734     3274.167     5297.614     3688.610        1.156        0.613      104.223       43.568        0.175      347.121       25.860      860.091
04/28/2013  17:40:00     -138.036      229.985      -39.173      102.333      118.069       54.843    10472.024    13940.355     3007.782        5.045        1.371      268.229       51.831        0.037      347.057       25.747      860.098
04/28/2013  17:41:00      -75.446      288.359      -16.032       58.479      111.862       52.082     3419.767    12513.115     2712.495        5.387        0.932      298.066       57.880        0.038      346.892       25.463      860.085
04/28/2013  17:42:00      -46.015      184.006       -4.268       83.631      116.522       51.211     6994.121    13577.296     2622.546        2.959        1.160      189.672       62.633        0.109      346.954       25.571      860.071
04/28/2013  17:43:00     -211.042       92.476      -31.838      149.000      205.992       74.757    22201.021    42432.880     5588.640        6.215        3.511      230.414       61.966        0.072      347.222       26.032      860.059
04/28/2013  17:44:00     -209.194       -5.331      -15.129      124.421       89.343       67.541    15480.577     7982.198     4561.844        3.602        1.401      209.262       73.404        0.123      347.296       26.158      860.066
04/28/2013  17:45:00     -325.060       67.279      -48.509      111.341      125.035       69.928    12396.786    15633.651     4889.952        7.273        1.646      331.950       53.627        0.026      347.148       25.904      860.100
04/28/2013  17:46:00     -277.797       64.550      -30.374      154.479      130.128       73.354    23863.725    16933.401     5380.797        6.421        2.309      285.198       66.313        0.054      346.977       25.609      860.101
04/28/2013  17:47:00     -202.676      -18.117      -25.342      130.153       80.491       48.915    16939.784     6478.837     2392.651        3.392        1.291      203.485       53.937        0.070      347.142       25.894      860.082
04/28/2013  17:48:00     -199.440       73.028      -34.627      136.222      124.752       77.355    18556.441    15563.138     5983.788        4.320        2.005      212.390       67.268        0.100      347.201       25.996      860.106
04/28/2013  17:49:00     -249.033       98.762      -27.277      134.696       98.167       77.727    18142.969     9636.708     6041.519        5.316        1.691      267.902       66.702        0.062      347.000       25.650      860.101
04/28/2013  17:50:00     -116.885      142.155      -25.475       89.325      139.656       60.919     7978.927    19503.775     3711.084        3.285        1.560      184.039       50.598        0.076      347.101       25.824      860.105
04/28/2013  17:51:00     -171.930      154.936      -30.521       97.354      147.483       57.479     9477.857    21751.371     3303.865        4.451        1.727      231.442       69.008        0.089      346.955       25.573      860.106
04/28/2013  17:52:00     -105.410      138.298      -13.428       68.768       75.744       51.240     4729.049     5737.190     2625.552        2.175        0.655      173.890       36.572        0.044      347.035       25.713      860.102
04/28/2013  17:53:00     -172.516      187.445      -45.121       68.568       95.928       45.317     4701.561     9202.114     2053.661        4.144        0.798      254.750       46.973        0.034      347.008       25.663      860.081
04/28/2013  17:54:00     -194.969      140.431      -30.603       91.788      115.876       49.491     8425.102    13427.353     2449.352        4.148        1.215      240.278       47.535        0.039      347.031       25.702      860.082
04/28/2013  17:55:00     -159.934      127.024       -8.924       86.878       82.104       55.121     7547.792     6741.145     3038.336        2.956        0.866      204.240       41.789        0.042      347.070       25.770      860.067
04/28/2013  17:56:00     -190.213      208.325      -27.804      122.444      123.943       68.724    14992.647    15361.979     4722.964        5.771        1.754      282.100       66.432        0.055      346.940       25.546      860.078
04/28/2013  17:57:00     -145.210      284.976      -31.751       94.551      104.276       57.473     8939.895    10873.588     3303.162        6.321        1.156      319.840       46.134        0.021      346.903       25.480      860.063
04/28/2013  17:58:00     -230.413      232.063      -43.161       97.513      108.645       66.123     9508.835    11803.799     4372.309        6.724        1.284      327.022       59.730        0.033      346.947       25.557      860.060
04/28/2013  17:59:00     -203.312      267.267      -51.320       84.501       92.952       59.887     7140.471     8639.994     3586.445        6.738        0.968      335.809       62.524        0.035      346.909       25.492      860.039
04/28/2013  18:00:00     -154.013      228.789      -41.114       89.735      108.019       48.774     8052.454    11668.130     2378.856        4.992        1.105      275.798       41.141        0.022      347.045       25.728      860.037
04/28/2013  18:01:00     -185.784      165.484      -30.199      110.579      103.137       61.386    12227.634    10637.312     3768.296        4.472        1.332      248.799       51.612        0.043      347.082       25.790      860.040
04/28/2013  18:02:00     -181.079      197.464      -25.669      125.062       84.893       63.226    15640.499     7206.761     3997.531        4.964        1.342      267.921       73.433        0.075      347.039       25.716      860.045
04/28/2013  18:03:00     -213.764      227.695      -54.002       82.845      110.170       60.035     6863.292    12137.388     3604.228        6.153        1.130      312.314       52.000        0.028      346.975       25.606      860.075
04/28/2013  18:04:00     -158.306      251.350      -35.863       81.986      120.859       65.048     6721.668    14606.999     4231.190        5.754        1.278      297.048       63.610        0.046      346.941       25.548      860.059
04/28/2013  18:05:00     -242.903      256.961      -46.007      104.133      118.584       61.904    10843.721    14062.228     3832.103        7.794        1.437      353.597       61.889        0.031      346.931       25.529      860.054
04/28/2013  18:06:00     -142.448      332.108      -37.481       90.564      123.339       62.513     8201.821    15212.513     3907.907        7.965        1.366      361.368       55.505        0.024      346.855       25.400      860.035
04/28/2013  18:07:00     -187.460      247.100      -36.032      140.051      126.706       66.315    19614.365    16054.501     4397.626        6.877        2.003      310.161       76.785        0.061      346.887       25.455      860.016
04/28/2013  18:08:00     -160.522      153.335      -29.712       97.544       86.495       56.510     9514.823     7481.329     3193.398        3.517        1.009      221.988       57.117        0.066      347.070       25.770      860.022
04/28/2013  18:09:00     -102.913      171.878      -26.486      120.775      153.007       62.610    14586.604    23411.257     3919.958        4.137        2.096      200.333       50.769        0.064      347.071       25.771      860.016
04/28/2013  18:10:00     -216.845      382.974      -55.816      114.280      143.746       77.066    13059.920    20663.006     5939.136       11.823        1.983      440.103       53.826        0.015      346.868       25.421      860.033
04/28/2013  18:11:00     -167.290      229.837      -38.167       94.954      107.075       59.647     9016.346    11465.063     3557.749        5.315        1.202      284.273       55.941        0.039      346.946       25.555      860.054
04/28/2013  18:12:00     -123.916      161.051      -17.997       53.220       81.119       41.274     2832.339     6580.275     1703.543        2.636        0.556      203.206       23.132        0.013      346.981       25.618      860.050
04/28/2013  18:13:00     -137.361       92.317      -18.514       76.585      108.497       50.338     5865.299    11771.545     2533.906        2.395        1.009      165.500       17.948        0.012      347.046       25.729      860.041
04/28/2013  18:14:00     -122.343       94.040      -25.140       89.861      146.525       54.532     8075.082    21469.494     2973.697        2.847        1.626      154.309       36.036        0.055      347.046       25.729      860.051
04/28/2013  18:15:00     -157.208      243.103      -22.687      126.233      109.473       68.042    15934.769    11984.431     4629.722        5.843        1.627      289.505       65.987        0.052      346.853       25.397      860.046
04/28/2013  18:16:00     -152.111      181.633      -26.359       87.618      114.097       52.853     7676.917    13018.144     2793.474        4.015        1.174      236.914       42.931        0.033      347.003       25.654      860.057
04/28/2013  18:17:00     -127.887      166.885      -18.460       63.983      111.584       51.970     4093.785    12450.984     2700.927        3.189        0.962      210.251       34.233        0.027      347.033       25.706      860.051
04/28/2013  18:18:00     -223.598      187.739      -49.582      182.376      141.254       66.984    33261.026    19952.577     4486.878        7.269        2.885      291.962      103.628        0.126      346.987       25.628      860.049
04/28/2013  18:19:00     -207.057      202.117      -34.543      127.532      102.202       63.870    16264.352    10445.160     4079.359        5.785        1.539      289.351       78.357        0.073      346.963       25.586      860.061
04/28/2013  18:20:00     -118.060      114.412      -20.567       71.386       94.360       36.442     5096.008     8903.873     1328.039        2.139        0.766      164.403       33.833        0.042      347.095       25.814      860.053
04/28/2013  18:21:00      -96.741      114.025      -22.954       84.850       91.916       59.724     7199.554     8448.600     3566.948        2.105        0.961      149.534       50.204        0.113      347.029       25.701      860.060
04/28/2013  18:22:00      -31.426      149.682      -11.651       68.578      125.781       48.787     4702.986    15820.915     2380.167        2.321        1.145      152.946       55.702        0.133      346.999       25.648      860.036
04/28/2013  18:23:00     -130.191      128.583      -12.569       85.132      105.673       58.897     7247.388    11166.882     3468.854        2.776        1.094      182.984       53.645        0.086      347.034       25.709      860.044
04/28/2013  18:24:00     -129.191       10.512      -20.460       68.267       93.709       41.857     4660.387     8781.317     1751.976        1.620        0.760      129.618       38.972        0.090      347.145       25.902      860.039
04/28/2013  18:25:00     -207.540      100.306      -19.333      143.344      170.460       73.115    20547.476    29056.600     5345.869        5.422        2.747      230.509       90.014        0.152      346.987       25.628      860.034
04/28/2013  18:26:00     -246.231      351.603      -62.868      119.930      126.806       70.726    14383.184    16079.730     5002.214       11.183        1.773      429.248       80.958        0.036      346.810       25.322      860.049
04/28/2013  18:27:00     -266.668      272.923      -51.101      124.277      120.846       64.311    15444.867    14603.712     4135.905        9.119        1.709      381.574       65.082        0.029      346.803       25.310      860.021
04/28/2013  18:28:00     -260.920      231.697      -57.664      113.289       96.981       62.769    12834.462     9405.326     3939.980        7.563        1.309      348.945       64.098        0.034      346.841       25.373      860.022
04/28/2013  18:29:00     -181.851      178.678      -45.640       88.896       95.354       39.589     7902.497     9092.432     1567.316        4.282        0.928      254.943       40.907        0.026      346.968       25.594      860.023
04/28/2013  18:30:00      -95.809      209.025      -25.098      137.262      134.021       57.168    18840.750    17961.621     3268.192        4.678        2.004      229.937       50.489        0.048      346.807       25.319      860.001
04/28/2013  18:31:00     -160.689      366.905      -37.625      121.302      167.765       73.184    14714.227    28145.156     5355.957       10.503        2.411      400.550       59.844        0.022      346.777       25.266      860.003
04/28/2013  18:32:00     -105.530      282.067      -22.416       82.135      142.603       64.069     6746.140    20335.655     4104.828        6.119        1.559      301.161       66.754        0.049      346.715       25.159      859.998
04/28/2013  18:33:00     -216.363      245.519      -49.933      102.079      142.377       58.227    10420.061    20271.262     3390.414        7.183        1.704      327.250       68.873        0.044      346.769       25.250      859.997
04/28/2013  18:34:00     -245.429      121.120      -14.663      140.072      158.404       82.006    19620.169    25091.672     6725.047        6.327        2.572      273.689       72.669        0.071      346.837       25.369      859.981
04/28/2013  18:35:00     -211.019      252.594      -52.821       99.409      110.509       62.439     9882.191    12212.233     3898.673        6.855        1.300      329.140       53.156        0.026      346.733       25.189      859.957
04/28/2013  18:36:00     -119.025      233.748      -24.863       49.768       98.960       50.522     2476.838     9793.052     2552.508        4.212        0.741      262.308       36.941        0.020      346.793       25.291      859.972
04/28/2013  18:37:00      -93.054      245.426      -22.959       80.372       86.353       55.822     6459.609     7456.797     3116.091        4.322        0.852      262.475       40.987        0.024      346.746       25.211      859.966
04/28/2013  18:38:00     -137.328       82.397      -21.374       58.905       85.784       44.874     3469.848     7358.853     2013.720        1.947        0.642      160.151       20.693        0.017      346.958       25.580      859.969
04/28/2013  18:39:00     -167.699       30.547      -18.426      115.337       80.040       44.117    13302.575     6406.445     1946.318        2.552        1.083      170.458       53.440        0.098      346.854       25.399      859.978
04/28/2013  18:40:00     -127.329       22.440       -8.169       97.209       87.509       52.727     9449.562     7657.864     2780.179        1.833        0.994      129.291       51.939        0.161      346.896       25.472      859.979
04/28/2013  18:41:00     -187.194      185.599      -37.081      116.438      147.456       77.232    13557.699    21743.418     5964.718        5.606        2.063      263.607       55.702        0.045      346.822       25.343      860.005
04/28/2013  18:42:00     -245.374      232.449      -43.557      159.263      160.032       95.194    25364.803    25610.286     9061.901        8.808        3.002      337.996      116.386        0.119      346.713       25.155      859.984
04/28/2013  18:43:00     -228.769      176.323      -50.895      119.597      127.564       51.850    14303.357    16272.613     2688.448        5.963        1.663      288.834       72.788        0.064      346.736       25.195      859.984
04/28/2013  18:44:00     -141.033       45.159      -17.598       92.090       81.215       53.964     8480.647     6595.927     2912.123        2.011        0.899      148.086       35.425        0.057      346.924       25.520      859.960
04/28/2013  18:45:00     -154.168      -36.271      -19.507       98.475       74.594       57.528     9697.390     5564.249     3309.443        2.201        0.929      158.377       47.493        0.090      346.926       25.522      859.971
04/28/2013  18:46:00     -170.546       27.736      -29.803       72.823      139.159       51.552     5303.205    19365.283     2657.565        2.903        1.366      172.787       45.777        0.070      346.875       25.436      859.971
04/28/2013  18:47:00     -164.067      -23.679       -8.530      126.394       89.343       55.585    15975.507     7982.129     3089.683        2.729        1.352      165.767       57.748        0.121      346.882       25.448      859.971
04/28/2013  18:48:00     -303.069      -33.305      -39.159      136.378      105.455       46.123    18598.959    11120.697     2127.300        6.316        1.592      304.893       44.363        0.021      346.688       25.112      859.962
04/28/2013  18:49:00      -84.070       21.195        2.237      111.579       88.904       48.375    12449.948     7903.895     2340.165        1.510        1.135       86.701       55.718        0.413      346.699       25.134      859.967
04/28/2013  18:50:00      -90.023       27.266       -9.797      100.799      127.080       48.953    10160.501    16149.413     2396.377        1.882        1.435       94.062       36.094        0.147      346.671       25.084      859.960
04/28/2013  18:51:00     -158.070       69.167      -12.500       90.519      105.064       55.664     8193.663    11038.422     3098.482        2.612        1.117      172.540       46.056        0.071      346.743       25.208      859.970
04/28/2013  18:52:00     -203.435       89.644      -25.509      109.196       95.296       64.530    11923.724     9081.264     4164.082        3.762        1.258      222.311       51.612        0.054      346.650       25.046      859.975
04/28/2013  18:53:00     -285.939      -43.167      -22.358       94.279       98.029       60.932     8888.460     9609.610     3712.713        5.316        1.111      289.179       54.855        0.036      346.694       25.121      859.974
04/28/2013  18:54:00     -147.391      187.041      -26.376       89.684      100.589       53.408     8043.271    10118.231     2852.409        3.920        1.051      238.135       67.591        0.081      346.612       24.981      859.991
04/28/2013  18:55:00     -157.520      114.270      -33.212       77.820      102.958       41.918     6055.935    10600.395     1757.103        2.869        0.921      194.603       40.325        0.043      346.620       24.997      859.997
04/28/2013  18:56:00     -148.385      147.305      -32.227       77.145       77.586       43.085     5951.423     6019.615     1856.349        2.929        0.691      209.086       41.566        0.040      346.611       24.981      859.998
04/28/2013  18:57:00     -130.524      166.065      -25.680       55.546       81.222       39.341     3085.327     6596.953     1547.696        2.825        0.561      211.221       33.494        0.025      346.637       25.025      860.019
04/28/2013  18:58:00     -122.729      180.052      -15.352       84.594       94.558       43.428     7156.167     8941.227     1886.010        3.285        0.899      217.902       49.529        0.052      346.590       24.944      860.017
04/28/2013  18:59:00     -120.298      114.813      -23.890       94.887       81.572       52.114     9003.595     6653.922     2715.828        2.330        0.919      166.294       52.662        0.100      346.574       24.919      860.012
04/28/2013  19:00:00     -140.602       84.963      -20.780       89.583       72.774       45.871     8025.058     5296.114     2104.116        2.142        0.771      164.279       43.401        0.070      346.658       25.061      860.006
04/28/2013  19:01:00     -109.892      149.826      -10.179       66.514       88.504       46.336     4424.074     7832.949     2147.013        2.451        0.720      185.807       35.183        0.036      346.609       24.978      859.987
04/28/2013  19:02:00     -109.719        8.108       -8.224       69.353      108.423       41.296     4809.795    11755.462     1705.320        1.522        0.914      110.018       26.617        0.059      346.634       25.022      859.966
04/28/2013  19:03:00      -59.811       52.427       18.684       63.640       60.999       54.726     4049.988     3720.868     2994.888        0.872        0.538       79.536       27.308        0.118      346.649       25.047      859.961
04/28/2013  19:04:00      -97.907       51.086       -8.482       67.279       88.336       33.549     4526.448     7803.201     1125.536        1.286        0.673      110.434       35.727        0.105      346.631       25.016      859.982
04/28/2013  19:05:00     -111.921       30.061       -1.825       94.538       69.327       40.525     8937.513     4806.232     1642.238        1.441        0.769      115.888       47.206        0.166      346.604       24.970      859.984
04/28/2013  19:06:00     -226.168      185.405      -47.419       78.544       85.924       44.758     6169.185     7382.858     2003.268        5.166        0.778      292.450       40.586        0.019      346.505       24.797      860.004
04/28/2013  19:07:00     -164.472      172.688      -29.271       84.288       82.880       51.701     7104.410     6869.150     2672.959        3.718        0.832      238.479       35.978        0.023      346.475       24.746      860.012
04/28/2013  19:08:00     -238.594      229.596      -45.266      136.308      104.486       79.482    18579.926    10917.272     6317.327        7.375        1.791      331.121       72.683        0.048      346.446       24.695      860.020
04/28/2013  19:09:00     -140.749      196.075      -32.256       68.920       93.555       52.323     4749.989     8752.462     2737.740        3.777        0.812      241.362       41.252        0.029      346.443       24.691      860.032
04/28/2013  19:10:00     -171.483      225.933      -35.508       88.812      106.681       53.186     7887.578    11380.903     2828.714        5.190        1.105      283.641       49.138        0.030      346.395       24.607      860.033
04/28/2013  19:11:00     -198.247      244.178      -50.658      118.153      120.166       61.609    13960.053    14439.833     3795.728        6.684        1.610      314.523       66.291        0.044      346.395       24.606      860.044
04/28/2013  19:12:00      -98.879      267.340      -18.605       94.012      143.529       64.556     8838.183    20600.628     4167.413        5.759        1.680      285.040       73.655        0.067      346.358       24.545      860.036
04/28/2013  19:13:00     -177.948      179.852      -36.979       95.619       96.528       50.989     9142.978     9317.638     2599.879        4.322        1.053      253.007       54.273        0.046      346.441       24.687      860.042
04/28/2013  19:14:00     -111.553      175.786      -22.907       84.357       98.613       55.792     7116.138     9724.536     3112.796        3.191        0.998      208.194       52.414        0.063      346.383       24.589      860.045
04/28/2013  19:15:00      -76.901      104.440      -15.359       57.926       72.461       38.012     3355.388     5250.602     1444.938        1.355        0.503      129.698       38.667        0.089      346.383       24.590      860.044
04/28/2013  19:16:00     -113.651       87.696      -14.530       73.119       80.468       39.534     5346.370     6475.030     1562.904        1.710        0.669      143.552       38.876        0.073      346.402       24.622      860.042
04/28/2013  19:17:00     -175.690      141.412      -21.209      122.081      116.207       61.665    14903.764    13504.016     3802.518        4.176        1.611      225.531       69.841        0.096      346.378       24.581      860.044
04/28/2013  19:18:00      -31.760      110.470       -0.014       45.804       99.671       47.488     2097.988     9934.303     2255.069        1.375        0.714      114.945       52.858        0.211      346.260       24.378      860.057
04/28/2013  19:19:00      -86.065       91.409       -4.013       74.120       99.359       44.191     5493.779     9872.307     1952.823        1.655        0.866      125.550       33.740        0.072      346.354       24.539      860.057
04/28/2013  19:20:00      -86.051      186.291      -14.511       79.584       92.884       50.738     6333.589     8627.431     2574.341        2.992        0.877      205.205       41.796        0.041      346.274       24.402      860.062
04/28/2013  19:21:00     -158.999      162.207      -15.440       91.125       86.847       62.219     8303.711     7542.362     3871.232        3.577        0.986      227.138       38.189        0.028      346.301       24.446      860.074
04/28/2013  19:22:00     -172.998      302.675      -32.934      108.279      106.809       70.550    11724.265    11408.159     4977.366        7.536        1.405      348.627       62.251        0.032      346.265       24.384      860.084
04/28/2013  19:23:00     -122.057      356.138      -48.550       78.571      105.138       60.653     6173.432    11054.051     3678.742        8.249        1.045      376.474       52.059        0.019      346.235       24.333      860.095
04/28/2013  19:24:00      -84.136      292.300      -28.698       62.520      104.381       49.092     3908.782    10895.431     2410.055        5.527        0.861      304.168       43.082        0.020      346.215       24.298      860.109
04/28/2013  19:25:00     -104.247      258.208      -11.489       96.146      140.281       68.490     9244.130    19678.809     4690.840        5.564        1.681      278.458       64.013        0.053      346.223       24.312      860.113
04/28/2013  19:26:00     -122.984      144.261      -14.994      113.493      140.706       47.895    12880.722    19798.189     2293.922        3.556        1.749      189.568       51.228        0.073      346.212       24.294      860.124
04/28/2013  19:27:00     -143.149      372.211      -35.848      115.802      134.375       65.273    13410.057    18056.549     4260.610        9.802        1.786      398.789       57.403        0.021      346.172       24.222      860.137
04/28/2013  19:28:00     -157.545      308.581      -51.138       95.499      137.282       57.232     9120.069    18846.367     3275.462        7.694        1.562      346.472       53.759        0.024      346.150       24.186      860.151
04/28/2013  19:29:00     -164.287      290.187      -36.574       82.751      125.218       61.531     6847.737    15679.663     3786.020        6.942        1.316      333.465       65.181        0.038      346.147       24.183      860.149
04/28/2013  19:30:00      -96.324      224.492      -27.422       62.525      130.008       49.428     3909.355    16902.149     2443.103        4.184        1.163      244.284       55.844        0.052      346.106       24.112      860.173
04/28/2013  19:31:00     -153.922      279.374      -41.571       82.919       94.264       60.126     6875.576     8885.765     3615.103        6.142        0.969      318.970       53.379        0.028      346.107       24.113      860.175
04/28/2013  19:32:00      -78.242      143.118      -13.993       46.047       97.022       32.874     2120.316     9413.275     1080.672        1.970        0.631      163.109       33.452        0.042      346.085       24.076      860.177
04/28/2013  19:33:00      -83.488      140.750      -11.006       73.446       83.244       39.272     5394.382     6929.553     1542.321        2.038        0.693      163.648       39.253        0.058      346.089       24.084      860.189
04/28/2013  19:34:00     -105.255      170.100      -23.754       79.353       64.198       44.981     6296.836     4121.445     2023.321        2.651        0.622      200.032       45.388        0.051      346.078       24.063      860.188
04/28/2013  19:35:00      -81.755      260.030      -35.008       54.400       73.219       41.946     2959.316     5361.043     1759.461        4.280        0.504      272.579       37.077        0.019      346.064       24.039      860.192
04/28/2013  19:36:00      -75.497      186.789      -20.581       52.199       71.897       42.973     2724.691     5169.216     1846.639        2.538        0.487      201.470       21.229        0.011      346.045       24.007      860.192
04/28/2013  19:37:00     -167.618      282.946      -38.787      109.379      136.309       60.219    11963.774    18580.029     3626.349        7.191        1.709      328.868       61.154        0.035      346.038       23.994      860.188
04/28/2013  19:38:00     -181.798      243.375      -43.761      111.084      143.957       66.074    12339.728    20723.507     4365.724        6.581        1.871      303.780       82.161        0.073      346.023       23.970      860.194
04/28/2013  19:39:00     -131.877      329.782      -45.184       85.362      122.018       59.489     7286.668    14888.275     3538.971        7.695        1.286      355.172       51.814        0.021      345.993       23.917      860.204
04/28/2013  19:40:00     -111.352      178.561       -2.708      103.915      156.865       52.165    10798.353    24606.492     2721.235        4.120        1.906      210.436       44.373        0.044      345.953       23.850      860.211
04/28/2013  19:41:00     -151.196      178.462      -36.615       92.862       79.155       49.922     8623.279     6265.460     2492.164        3.671        0.869      233.899       50.428        0.046      345.948       23.842      860.214
04/28/2013  19:42:00     -152.152      180.093      -39.412       89.632       66.209       49.237     8033.857     4383.598     2424.314        3.599        0.742      235.762       51.404        0.048      345.942       23.829      860.216
04/28/2013  19:43:00     -150.346      187.799      -34.274       86.466       81.700       53.453     7476.315     6674.870     2857.238        3.802        0.850      240.567       62.552        0.068      345.952       23.847      860.214
04/28/2013  19:44:00     -100.704       92.572      -16.152       33.463       59.534       30.373     1119.778     3544.312      922.544        1.228        0.279      136.788       25.152        0.034      345.982       23.901      860.224
04/28/2013  19:45:00      -78.394      106.817      -25.920       29.621       60.109       25.789      877.376     3613.089      665.061        1.169        0.258      132.497       13.177        0.010      345.926       23.806      860.244
04/28/2013  19:46:00      -88.240       24.769      -11.353       26.639       46.983       19.934      709.662     2207.357      397.347        0.592        0.166       91.650       20.156        0.048      345.968       23.878      860.251
04/28/2013  19:47:00      -57.438       50.170      -17.446       53.493       70.726       27.118     2861.457     5002.235      735.396        0.736        0.430       76.264       23.264        0.093      345.841       23.660      860.260
04/28/2013  19:48:00      -74.737       89.267      -22.137       61.290       57.223       39.245     3756.498     3274.504     1540.209        1.131        0.429      116.423       32.178        0.076      345.775       23.546      860.265
04/28/2013  19:49:00     -139.992       23.010      -21.549       54.015       67.475       52.583     2917.654     4552.894     2764.936        1.541        0.512      141.870       27.281        0.037      345.808       23.604      860.272
04/28/2013  19:50:00     -104.768       60.522      -26.814       69.161       74.893       29.046     4783.238     5608.919      843.658        1.329        0.562      120.993       20.196        0.028      345.606       23.256      860.275
04/28/2013  19:51:00      -84.709       11.659      -17.509       96.143       73.447       50.529     9243.383     5394.505     2553.198        1.240        0.860       85.507       50.384        0.347      345.619       23.278      860.277
04/28/2013  19:52:00      -92.062      -18.088      -14.137       52.287       60.566       29.352     2733.981     3668.231      861.541        0.813        0.363       93.822       20.805        0.049      345.385       22.878      860.285
04/28/2013  19:53:00      -68.890       12.027      -10.955       58.655       37.248       37.750     3440.423     1387.419     1425.096        0.563        0.313       69.932       34.438        0.243      345.357       22.830      860.298
04/28/2013  19:54:00      -81.114      -16.766       -5.979       59.566       35.714       29.539     3548.133     1275.496      872.560        0.630        0.285       82.829       32.717        0.156      345.277       22.693      860.289
04/28/2013  19:55:00     -147.892       -5.259      -20.022       60.348       46.567       28.686     3641.822     2168.467      822.879        1.447        0.332      147.986       26.307        0.032      345.253       22.650      860.292
04/28/2013  19:56:00      -54.869       21.034       -6.194       47.904       39.151       24.408     2294.746     1532.789      595.735        0.396        0.221       58.763       29.076        0.245      345.198       22.557      860.294
04/28/2013  19:57:00     -114.847      -38.893      -16.444       62.169       34.497       24.508     3865.021     1190.062      600.622        1.031        0.283      121.254       12.758        0.011      345.258       22.658      860.303
04/28/2013  19:58:00      -91.904      -13.171      -17.520       20.964       34.900       21.008      439.481     1218.006      441.351        0.551        0.105       92.843       13.736        0.022      345.183       22.533      860.352
04/28/2013  19:59:00      -73.231        6.039        1.496       49.717       39.603       24.486     2471.770     1568.393      599.546        0.502        0.232       73.479       28.540        0.151      345.135       22.451      860.352
04/28/2013  20:00:00      -61.995       -5.326        3.507       51.648       32.951       28.941     2667.493     1085.777      837.558        0.424        0.230       62.224       22.063        0.126      345.111       22.408      860.346
04/28/2013  20:01:00      -77.628       44.734      -19.333       52.010       56.096       30.255     2705.060     3146.765      915.390        0.758        0.338       89.595       31.532        0.124      345.023       22.258      860.330
04/28/2013  20:02:00     -108.181       10.636      -29.511       29.108       28.820       24.958      847.286      830.604      622.904        0.749        0.115      108.702       10.784        0.010      345.147       22.471      860.350
04/28/2013  20:03:00      -91.808       -9.944       -6.158       45.749       43.017       25.992     2092.978     1850.420      675.577        0.659        0.231       92.345        9.181        0.010      345.110       22.406      860.372
04/28/2013  20:04:00     -163.493       24.026      -38.057      111.886       87.526       39.628    12518.495     7660.844     1570.405        2.525        1.087      165.249       51.258        0.096      345.121       22.423      860.389
04/28/2013  20:05:00     -146.974       50.402       -5.667       87.927       94.181       54.955     7731.230     8870.040     3020.083        2.189        0.981      155.376       43.414        0.078      345.132       22.441      860.392
04/28/2013  20:06:00     -104.569      124.021      -17.730       82.329       84.393       44.221     6778.020     7122.120     1955.524        2.124        0.793      162.221       44.162        0.074      345.127       22.434      860.408
04/28/2013  20:07:00      -96.366      127.976      -14.279       58.817       65.040       40.272     3459.402     4230.157     1621.822        1.759        0.466      160.201       38.819        0.059      345.128       22.435      860.415
04/28/2013  20:08:00     -110.376       90.447      -19.803       57.436       59.769       42.538     3298.937     3572.325     1809.513        1.472        0.434      142.701       30.038        0.044      345.151       22.477      860.424
04/28/2013  20:09:00      -85.131       98.853       -2.879       63.192       79.217       41.306     3993.212     6275.389     1706.186        1.450        0.599      130.458       35.543        0.074      345.156       22.485      860.433
04/28/2013  20:10:00     -123.656      192.825      -29.980       69.728      114.336       50.425     4862.049    13072.757     2542.631        3.692        1.024      229.068       49.735        0.047      345.252       22.647      860.440
04/28/2013  20:11:00     -194.711      229.132      -43.225       96.704      109.612       61.400     9351.617    12014.822     3770.001        5.870        1.257      300.689       64.127        0.045      345.292       22.713      860.457
04/28/2013  20:12:00     -140.871      127.583      -30.515       62.388       58.856       35.611     3892.314     3464.081     1268.178        2.284        0.431      190.058       25.027        0.017      345.253       22.651      860.482
04/28/2013  20:13:00     -131.871      108.964       -8.802       85.981       79.955       41.509     7392.684     6392.834     1723.002        2.242        0.775      171.065       37.463        0.048      345.238       22.622      860.493
04/28/2013  20:14:00     -117.432      131.629       -4.596       75.898       70.489       46.587     5760.445     4968.692     2170.333        2.202        0.645      176.398       43.132        0.060      345.209       22.573      860.499
04/28/2013  20:15:00     -141.688      189.324      -27.129       89.617      109.388       49.095     8031.211    11965.832     2410.351        3.953        1.120      236.472       51.764        0.048      345.221       22.592      860.511
04/28/2013  20:16:00     -233.697      261.490      -51.753       99.310      138.528       62.006     9862.388    19190.119     3844.797        7.928        1.645      350.701       53.184        0.023      345.363       22.836      860.507
04/28/2013  20:17:00     -112.395      198.733      -20.815       77.813       84.890       47.251     6054.817     7206.336     2232.703        3.402        0.775      228.315       48.534        0.045      345.289       22.710      860.514
04/28/2013  20:18:00     -143.323      276.285      -48.265      121.203       80.271       53.211    14690.231     6443.440     2831.409        6.158        1.198      311.248       61.408        0.039      345.371       22.849      860.508
04/28/2013  20:19:00     -217.870      259.867      -50.574      113.538      145.845       67.634    12890.957    21270.884     4574.423        7.814        1.937      339.114       71.713        0.045      345.378       22.861      860.509
04/28/2013  20:20:00     -177.957      194.205      -47.113      105.613       91.681       51.905    11154.094     8405.438     2694.080        4.692        1.113      263.409       56.967        0.047      345.351       22.816      860.520
04/28/2013  20:21:00     -256.802      248.692      -65.392      139.362      138.292       66.187    19421.775    19124.764     4380.697        8.749        2.146      357.485       72.709        0.041      345.435       22.958      860.537
04/28/2013  20:22:00     -160.999      299.166      -45.201       76.486      135.077       70.532     5850.114    18245.880     4974.752        7.326        1.454      339.737       55.169        0.026      345.378       22.863      860.547
04/28/2013  20:23:00     -216.729      220.240      -30.822      118.439      103.396       69.222    14027.830    10690.770     4791.702        6.296        1.476      308.994       68.294        0.049      345.333       22.785      860.582
04/28/2013  20:24:00     -158.606      201.340      -41.244       61.397       73.372       49.482     3769.653     5383.473     2448.434        3.950        0.580      256.308       40.163        0.025      345.281       22.693      860.605
04/28/2013  20:25:00     -168.203      123.944      -27.951      100.061       95.782       61.168    10012.116     9174.260     3741.506        3.368        1.146      208.936       63.634        0.093      345.231       22.611      860.612
04/28/2013  20:26:00     -177.049      112.575      -21.628       82.416       90.889       51.634     6792.350     8260.754     2666.084        3.110        0.886      209.808       41.935        0.040      345.205       22.565      860.620
04/28/2013  20:27:00     -111.267      134.275      -23.258       54.874       92.180       42.205     3011.163     8497.184     1781.286        2.212        0.664      174.385       26.405        0.023      345.136       22.450      860.628
04/28/2013  20:28:00      -88.152       39.165      -11.510       42.548       54.731       34.949     1810.342     2995.451     1221.413        0.773        0.301       96.461       21.183        0.048      345.136       22.451      860.635
04/28/2013  20:29:00      -71.519       94.076       -9.509       36.532       49.463       27.594     1334.587     2446.616      761.456        0.930        0.227      118.175       20.208        0.029      345.042       22.290      860.646
04/28/2013  20:30:00      -87.392       68.774      -14.749       68.168       46.600       29.185     4646.862     2171.522      851.770        1.013        0.384      111.208       31.096        0.078      345.048       22.301      860.659
04/28/2013  20:31:00      -95.719       19.035      -12.382       40.931       49.330       27.111     1675.335     2433.495      735.000        0.726        0.242       97.593       20.125        0.043      345.109       22.405      860.676
04/28/2013  20:32:00      -79.368       58.440        3.065       59.251       78.043       37.204     3510.706     6090.665     1384.116        1.035        0.549       98.562       45.796        0.216      344.994       22.208      860.692
04/28/2013  20:33:00      -67.585       10.875        2.447       53.654       55.297       32.168     2878.727     3057.708     1034.794        0.583        0.349       68.454       23.192        0.115      344.980       22.182      860.701
04/28/2013  20:34:00      -35.301       17.047       -8.429       46.832       29.473       31.714     2193.257      868.672     1005.768        0.284        0.203       39.202        7.618        0.038      344.903       22.053      860.720
04/28/2013  20:35:00      -97.116      132.333      -16.740       59.930       93.546       54.694     3591.616     8750.849     2991.479        2.128        0.767      164.145       54.795        0.111      344.912       22.067      860.736
04/28/2013  20:36:00      -93.848       89.016      -15.818       41.828       82.687       41.244     1749.588     6837.067     1701.055        1.363        0.514      129.349       17.125        0.018      344.890       22.030      860.743
04/28/2013  20:37:00     -121.381       71.199        6.117       82.237      133.727       55.201     6762.986    17882.830     3047.184        2.376        1.385      140.721       41.234        0.086      344.936       22.106      860.759
04/28/2013  20:38:00     -147.061      202.098      -28.130       86.498       85.857       54.045     7481.932     7371.341     2920.908        4.051        0.889      249.941       51.202        0.042      344.895       22.035      860.753
04/28/2013  20:39:00     -123.164      133.784      -24.320       54.727       62.338       37.112     2995.058     3885.979     1377.270        2.096        0.413      181.845       34.609        0.036      344.882       22.015      860.757
04/28/2013  20:40:00      -85.060      110.246      -15.744       39.933       47.522       28.856     1594.676     2258.299      832.679        1.216        0.234      139.245       20.132        0.021      344.869       21.993      860.768
04/28/2013  20:41:00      -89.687       30.915       -5.938       53.039       57.714       38.302     2813.160     3330.874     1467.065        0.832        0.381       94.866       30.253        0.102      344.938       22.113      860.780
04/28/2013  20:42:00     -212.963      208.981      -49.335      113.515       98.877       57.703    12885.630     9776.736     3329.657        5.872        1.300      298.373       50.502        0.029      344.963       22.151      860.805
04/28/2013  20:43:00     -183.231      147.615      -41.652       58.932       73.326       38.836     3472.967     5376.689     1508.227        3.373        0.518      235.295       19.300        0.007      344.963       22.151      860.818
04/28/2013  20:44:00     -101.410       76.205      -16.088       58.735       40.800       41.604     3449.810     1664.634     1730.912        1.160        0.342      126.851       23.909        0.036      344.880       22.013      860.835
04/28/2013  20:45:00      -87.007       64.102      -21.487       59.299       47.444       27.172     3516.428     2250.899      738.302        0.932        0.325      108.071       26.063        0.058      344.904       22.054      860.853
04/28/2013  20:46:00      -94.950      123.433      -12.138       65.282       53.714       33.056     4261.732     2885.220     1092.670        1.632        0.412      155.728       29.418        0.036      344.866       21.989      860.868
04/28/2013  20:47:00      -95.040      132.282      -16.382       57.254       84.496       41.210     3278.062     7139.572     1698.226        1.946        0.606      162.884       36.986        0.052      344.861       21.979      860.870
04/28/2013  20:48:00      -96.538      116.953      -19.021       36.567       86.327       31.659     1337.151     7452.409     1002.303        1.657        0.490      151.650       19.670        0.017      344.857       21.971      860.881
04/28/2013  20:49:00      -38.080       32.370        2.362       39.901       73.368       30.118     1592.105     5382.854      907.071        0.519        0.394       49.979       19.854        0.158      344.858       21.975      860.891
04/28/2013  20:50:00      -31.655       22.431       -0.319       47.457       24.011       24.271     2252.193      576.541      589.083        0.246        0.171       38.797       19.444        0.251      344.823       21.916      860.892
04/28/2013  20:51:00      -91.358       44.944       -3.739       47.309       69.506       39.354     2238.106     4831.117     1548.773        0.950        0.431      101.815       36.397        0.128      344.838       21.940      860.902
04/28/2013  20:52:00     -123.141       24.330      -23.447       77.826       60.259       33.000     6056.852     3631.188     1088.979        1.354        0.539      125.521       34.502        0.076      344.745       21.779      860.916
04/28/2013  20:53:00     -135.625       45.599      -17.736       78.397       50.681       34.171     6146.136     2568.572     1167.689        1.533        0.494      143.085       39.186        0.075      344.753       21.794      860.919
04/28/2013  20:54:00      -99.160       81.223      -23.932       97.605       75.244       34.828     9526.657     5661.638     1212.992        1.670        0.820      128.179       41.067        0.103      344.749       21.786      860.928
04/28/2013  20:55:00     -128.778       99.993      -29.717       71.038      116.399       49.262     5046.352    13548.704     2426.792        2.424        1.051      163.041       53.403        0.107      344.784       21.846      860.955
04/28/2013  20:56:00     -122.436      173.379      -26.587       76.418       68.016       59.521     5839.763     4626.235     3542.760        2.988        0.700      212.252       50.314        0.056      344.814       21.897      860.974
04/28/2013  20:57:00     -140.817      139.674      -18.115      127.340      134.767       70.031    16215.461    18162.191     4904.315        3.947        1.964      198.338       60.771        0.094      344.864       21.983      860.987
04/28/2013  20:58:00     -101.243       99.441      -20.539       77.020       65.687       44.895     5932.027     4314.763     2015.591        1.641        0.613      141.911       37.786        0.071      344.857       21.973      861.003
04/28/2013  20:59:00     -138.149      160.130      -29.569       72.638       93.351       45.187     5276.247     8714.477     2041.910        3.081        0.802      211.486       38.398        0.033      344.865       21.984      861.031
04/28/2013  21:00:00     -119.766      123.999      -26.555       91.617       76.458       42.939     8393.695     5845.837     1843.728        2.325        0.804      172.394       51.362        0.089      344.830       21.927      861.035
04/28/2013  21:01:00     -153.118      106.845      -35.469      106.547       87.941       47.826    11352.360     7733.591     2287.350        2.874        1.069      186.711       47.324        0.064      344.835       21.932      861.056
04/28/2013  21:02:00     -126.761       73.073       -8.822       76.209      129.751       53.467     5807.880    16835.338     2858.758        2.349        1.275      146.315       43.659        0.089      344.789       21.857      861.078
04/28/2013  21:03:00      -81.869      -20.811        6.596       69.127       46.603       36.362     4778.548     2171.808     1322.227        0.772        0.414       84.472       32.647        0.149      344.794       21.864      861.094
04/28/2013  21:04:00     -108.388       88.300      -20.414       66.537       82.635       33.668     4427.195     6828.549     1133.562        1.617        0.619      139.803       22.902        0.027      344.758       21.803      861.118
04/28/2013  21:05:00     -173.526      164.829      -19.519      140.103      144.583       82.608    19628.789    20904.143     6824.151        5.250        2.368      239.332       85.783        0.128      344.813       21.895      861.120
04/28/2013  21:06:00     -157.823      174.799      -24.316       87.352       75.942       49.461     7630.327     5767.121     2446.346        3.595        0.792      235.505       44.928        0.036      344.783       21.843      861.140
04/28/2013  21:07:00     -129.022       21.047       -3.082      106.322       59.523       43.191    11304.387     3542.993     1865.451        1.690        0.836      130.727       50.946        0.152      344.862       21.981      861.157
04/28/2013  21:08:00     -117.958       87.063      -14.874       87.747       69.306       45.424     7699.489     4803.323     2063.374        1.814        0.728      146.608       45.957        0.098      344.842       21.946      861.182
04/28/2013  21:09:00     -135.490      189.343      -36.917      107.348       67.044       46.246    11523.502     4494.857     2138.686        3.686        0.908      232.827       44.571        0.037      344.873       21.998      861.195
04/28/2013  21:10:00     -123.887      105.215      -17.619      110.569       59.113       48.565    12225.610     3494.383     2358.548        2.240        0.904      162.536       55.931        0.118      344.842       21.947      861.224
04/28/2013  21:11:00     -119.499      269.494      -22.387       74.362      108.876       48.109     5529.685    11853.976     2314.490        5.355        0.985      294.800       51.817        0.031      344.785       21.846      861.251
04/28/2013  21:12:00      -78.896      194.965      -22.790       96.341       96.383       49.041     9281.643     9289.696     2405.024        3.286        1.049      210.324       41.395        0.039      344.741       21.771      861.269
04/28/2013  21:13:00     -173.227      276.795      -32.742       94.700      109.655       71.092     8968.128    12024.171     5054.055        6.687        1.302      326.532       59.042        0.033      344.755       21.796      861.301
04/28/2013  21:14:00     -139.259      164.252      -19.800      102.209      133.603       57.727    10446.584    17849.710     3332.412        3.919        1.581      215.341       62.899        0.085      344.717       21.731      861.328
04/28/2013  21:15:00     -110.637      165.854      -21.733       81.759      117.562       46.184     6684.473    13820.932     2133.004        3.143        1.132      199.370       55.377        0.077      344.688       21.681      861.345
04/28/2013  21:16:00     -231.339      181.533      -51.402       59.945       98.413       43.926     3593.411     9685.148     1929.466        5.216        0.760      294.061       37.847        0.017      344.717       21.730      861.397
04/28/2013  21:17:00     -325.673      169.421      -45.298      170.864      129.506       68.344    29194.418    16771.690     4670.863        9.372        2.532      367.105       71.539        0.038      344.831       21.925      861.397
04/28/2013  21:18:00     -169.466      148.809      -16.294       90.616      114.349       62.597     8211.321    13075.807     3918.397        3.816        1.260      225.528       70.627        0.098      344.814       21.896      861.430
04/28/2013  21:19:00     -134.373      192.600      -25.379      115.635      128.343       66.087    13371.536    16471.908     4367.493        4.500        1.711      234.842       75.460        0.103      344.785       21.847      861.439
04/28/2013  21:20:00      -88.989       51.878        3.638       73.950       81.472       33.667     5468.621     6637.640     1133.441        1.193        0.662      103.006       32.837        0.102      344.696       21.697      861.454
04/28/2013  21:21:00     -162.422      -15.134      -19.589       71.903       70.294       30.559     5170.043     4941.268      933.835        1.902        0.552      163.126       32.620        0.040      344.706       21.713      861.466
04/28/2013  21:22:00     -119.767       34.586       -7.727       84.374       82.081       47.315     7118.978     6737.341     2238.711        1.584        0.805      124.661       49.469        0.157      344.691       21.689      861.488
04/28/2013  21:23:00     -106.641      144.744      -10.902      127.010      110.979       61.510    16131.665    12316.242     3783.508        3.233        1.612      179.786       61.284        0.116      344.677       21.664      861.497
04/28/2013  21:24:00     -133.432      167.710      -19.730       69.271      108.882       43.338     4798.436    11855.240     1878.196        3.242        0.927      214.315       35.772        0.028      344.635       21.593      861.506
04/28/2013  21:25:00      -54.179       76.144      -14.330       38.822       41.764       27.744     1507.135     1744.199      769.753        0.648        0.201       93.452       20.651        0.049      344.561       21.468      861.515
04/28/2013  21:26:00      -65.962       49.230      -17.276       51.784      108.174       47.081     2681.544    11701.639     2216.595        1.183        0.830       82.308       28.546        0.120      344.589       21.514      861.532
04/28/2013  21:27:00      -98.195       37.706      -14.006       46.268       54.625       29.499     2140.773     2983.872      870.202        0.863        0.300      105.186       24.004        0.052      344.627       21.578      861.528
04/28/2013  21:28:00      -29.562       25.992      -12.804       50.559       44.457       26.518     2556.213     1976.431      703.226        0.347        0.262       39.363       30.253        0.591      344.576       21.493      861.544
04/28/2013  21:29:00      -53.478       43.558       -8.046       58.462      114.413       41.521     3417.776    13090.349     1724.019        1.152        0.912       68.973       36.126        0.274      344.585       21.506      861.536
04/28/2013  21:30:00     -113.568      -30.252       -1.226       84.558       55.999       29.919     7150.062     3135.930      895.120        1.250        0.559      117.528       21.429        0.033      344.520       21.396      861.559
04/28/2013  21:31:00     -119.856      -24.051        2.788       87.941       62.561       31.353     7733.612     3913.831      983.021        1.379        0.632      122.246       27.826        0.052      344.436       21.252      861.581
04/28/2013  21:32:00      -68.430      -26.759      -13.293       67.232       51.812       26.294     4520.084     2684.533      691.399        0.673        0.395       73.476       24.171        0.108      344.416       21.219      861.594
04/28/2013  21:33:00     -129.419      -69.853      -10.807       64.514       46.236       28.391     4162.101     2137.771      806.069        1.442        0.355      147.067       32.185        0.048      344.355       21.115      861.621
04/28/2013  21:34:00     -108.740      -14.349       -3.749       54.985       41.868       27.617     3023.301     1752.968      762.683        0.879        0.277      109.683       28.329        0.067      344.324       21.061      861.633
04/28/2013  21:35:00     -108.488      -43.087      -10.681       50.580       32.524       24.796     2558.386     1057.817      614.823        0.898        0.212      116.731       21.944        0.035      344.344       21.096      861.646
04/28/2013  21:36:00      -54.366       -0.050       -6.864       27.010       31.838       15.516      729.561     1013.628      240.758        0.249        0.099       54.366        5.244        0.009      344.300       21.021      861.666
04/28/2013  21:37:00      -64.496       27.992      -15.072       46.047       49.628       29.150     2120.350     2462.985      849.703        0.530        0.272       70.309       19.548        0.077      344.273       20.975      861.690
04/28/2013  21:38:00      -78.908      -22.281       -7.544       57.420       40.923       20.729     3297.089     1674.704      429.706        0.609        0.270       81.993       22.912        0.078      344.188       20.829      861.714
04/28/2013  21:39:00      -71.275      -12.730       -5.715       40.281       26.998       20.462     1622.542      728.905      418.674        0.402        0.139       72.403       19.684        0.074      344.237       20.913      861.717
04/28/2013  21:40:00      -56.552      -44.261        3.817       53.446       40.309       23.416     2856.504     1624.781      548.313        0.510        0.251       71.813       21.835        0.092      344.211       20.869      861.725
04/28/2013  21:41:00      -18.516        2.294        1.314       38.005       21.646       20.352     1444.370      468.530      414.213        0.134        0.116       18.658       17.950        0.926      344.265       20.960      861.732
04/28/2013  21:42:00      -90.467       43.497      -17.756       75.554       59.961       34.740     5708.434     3595.301     1206.851        1.045        0.526      100.380       25.879        0.066      344.326       21.065      861.746
04/28/2013  21:43:00     -153.090      114.262      -42.146       86.935       68.283       40.177     7557.681     4662.602     1614.167        2.605        0.692      191.029       46.072        0.058      344.420       21.223      861.738
04/28/2013  21:44:00     -111.792      186.527      -28.177       89.986       98.800       47.963     8097.512     9761.503     2300.486        3.412        1.008      217.462       52.587        0.058      344.357       21.117      861.743
04/28/2013  21:45:00     -156.539      133.045      -41.670       73.949       74.585       42.380     5468.476     5562.897     1796.067        2.838        0.641      205.439       44.138        0.046      344.389       21.170      861.748
04/28/2013  21:46:00     -130.486      222.094      -28.814       40.307       91.072       48.024     1624.664     8294.039     2306.301        3.970        0.611      257.589       37.199        0.021      344.377       21.149      861.747
04/28/2013  21:47:00     -103.699       61.120      -23.576       63.051       50.483       27.256     3975.395     2548.566      742.898        1.115        0.363      120.371       28.235        0.055      344.395       21.182      861.750
04/28/2013  21:48:00      -80.740       77.996      -12.779       33.434       91.284       33.424     1117.858     8332.680     1117.179        1.166        0.528      112.260       31.893        0.081      344.313       21.041      861.764
04/28/2013  21:49:00      -62.767      -13.430       -7.028       32.471       30.789       16.763     1054.365      947.973      281.014        0.323        0.114       64.188       16.316        0.065      344.281       20.990      861.777
04/28/2013  21:50:00      -73.189      -42.848        0.258       40.445       36.229       22.159     1635.816     1312.525      491.036        0.532        0.172       84.808       23.359        0.076      344.230       20.901      861.791
04/28/2013  21:51:00      -79.570      -56.604        6.288       73.221       43.379       31.937     5361.321     1881.741     1019.984        0.892        0.413       97.649       37.022        0.144      344.161       20.783      861.791
04/28/2013  21:52:00      -39.664      -47.941        9.835       59.744       33.904       29.467     3569.293     1149.480      868.301        0.478        0.279       62.222       31.048        0.249      344.122       20.715      861.781
04/28/2013  21:53:00      -55.750      -48.878       -0.683       44.201       30.151       19.339     1953.743      909.070      373.998        0.437        0.162       74.142        6.689        0.008      344.117       20.709      861.794
04/28/2013  21:54:00     -100.376      -57.173       -0.724       33.088       33.076       24.597     1094.829     1094.048      605.016        0.807        0.140      115.517       20.544        0.032      344.106       20.689      861.798
04/28/2013  21:55:00      -62.711      -41.890        7.743       58.382       25.307       25.188     3408.485      640.468      634.452        0.521        0.234       75.415       28.088        0.139      344.008       20.522      861.821
04/28/2013  21:56:00      -91.003      -78.240       -4.295       45.542       47.602       20.017     2074.116     2265.943      400.673        0.958        0.237      120.012       18.372        0.023      343.960       20.440      861.831
04/28/2013  21:57:00      -53.021      -64.154       -1.306       45.703       29.269       16.740     2088.744      856.650      280.233        0.508        0.161       83.228       13.577        0.027      343.952       20.427      861.831
04/28/2013  21:58:00      -86.663      -79.575       -2.937       77.645       38.863       25.652     6028.810     1510.335      658.042        1.102        0.410      117.655       33.620        0.082      343.908       20.351      861.849
04/28/2013  21:59:00     -107.335      -46.885       -1.732       53.823       33.830       23.773     2896.957     1144.467      565.162        0.916        0.230      117.128       29.150        0.062      343.857       20.265      861.846
04/28/2013  22:00:00      -55.494      -61.838        8.706       46.843       44.600       33.098     2194.222     1989.198     1095.494        0.613        0.264       83.088       32.767        0.156      343.828       20.214      861.864
04/28/2013  22:01:00      -44.649      -51.276       13.749       40.577       42.079       27.589     1646.523     1770.628      761.161        0.449        0.209       67.991       31.181        0.210      343.837       20.230      861.865
04/28/2013  22:02:00      -58.128      -41.594        3.390       34.159       26.939       21.599     1166.808      725.700      466.516        0.374        0.118       71.477       18.103        0.064      343.891       20.323      861.870
04/28/2013  22:03:00      -23.167      -56.034        4.101       31.187       27.911       17.751      972.634      779.028      315.085        0.288        0.103       60.634       13.697        0.051      343.870       20.285      861.870
04/28/2013  22:04:00      -19.454      -66.428        5.062       39.137       33.135       24.176     1531.724     1097.921      584.498        0.401        0.161       69.218       23.108        0.111      343.903       20.342      861.874
04/28/2013  22:05:00      -40.266      -62.806       13.152       48.008       48.682       31.652     2304.790     2369.960     1001.869        0.571        0.284       74.605       29.086        0.152      343.812       20.188      861.869
04/28/2013  22:06:00      -72.752      -55.266       -1.152       34.740       31.385       26.383     1206.889      985.027      696.086        0.562        0.144       91.363       22.222        0.059      343.839       20.235      861.859
04/28/2013  22:07:00      -75.701       23.632       -0.180       20.354       15.978       15.211      414.284      255.292      231.387        0.359        0.045       79.304        9.422        0.014      343.828       20.214      861.870
04/28/2013  22:08:00      -52.839        0.527       -6.672       30.408       23.662       13.074      924.647      559.884      170.928        0.225        0.083       52.841       10.196        0.037      343.794       20.156      861.870
04/28/2013  22:09:00       -5.595       18.767        0.311       11.992       14.660        8.077      143.804      214.920       65.239        0.040        0.021       19.583        5.760        0.087      343.715       20.020      861.852
04/28/2013  22:10:00        7.434       38.606        1.294       12.580        9.182        7.329      158.250       84.315       53.720        0.092        0.015       39.315        2.909        0.005      343.633       19.883      861.841
04/28/2013  22:11:00        5.318       33.226       -2.364       16.636       12.788       11.289      276.747      163.527      127.448        0.085        0.028       33.649       10.551        0.098      343.536       19.716      861.841
04/28/2013  22:12:00       38.548        4.136       -4.591        9.649       13.285        8.410       93.097      176.488       70.734        0.093        0.017       38.769        8.976        0.054      343.735       20.058      861.829
04/28/2013  22:13:00       22.934       -1.415       -4.530       30.857       13.404       10.069      952.167      179.659      101.392        0.089        0.062       22.978       11.797        0.264      343.828       20.215      861.812
04/28/2013  22:14:00      -11.250       10.286       -3.317       10.680        6.234        6.507      114.065       38.867       42.346        0.022        0.010       15.244        5.711        0.140      343.849       20.251      861.811
04/28/2013  22:15:00      -13.967       -0.851       -7.209        5.510        4.705        5.800       30.364       22.141       33.643        0.017        0.004       13.993        3.540        0.064      343.844       20.244      861.802
04/28/2013  22:16:00      -14.149       -9.236        0.535       11.342        6.398        5.538      128.649       40.936       30.666        0.024        0.010       16.897        3.581        0.045      343.855       20.262      861.806
04/28/2013  22:17:00      -19.884      -16.631       -2.620       14.772        7.110        6.364      218.221       50.547       40.506        0.049        0.015       25.922        5.534        0.046      343.706       20.005      861.808
04/28/2013  22:18:00        2.844       -6.665       -1.361       15.203        8.543        9.353      231.126       72.986       87.484        0.022        0.020        7.247        8.084        1.245      343.583       19.798      861.810
04/28/2013  22:19:00       18.202       -0.862       -0.674        8.092        4.778        4.175       65.484       22.829       17.430        0.022        0.005       18.222        2.631        0.021      343.760       20.100      861.828
04/28/2013  22:20:00        3.341       19.429       27.849       17.174       25.373       24.986      294.940      643.785      624.287        0.136        0.078       19.715       21.085        1.144      343.651       19.913      861.837
04/28/2013  22:21:00       -9.717       39.100       70.004       14.691       30.098       16.417      215.814      905.911      269.534        0.396        0.070       40.289       17.034        0.179      343.613       19.850      861.835
04/28/2013  22:22:00      -10.085       15.671       54.065       12.691       24.512       16.474      161.070      600.831      271.392        0.215        0.052       18.636       14.485        0.604      343.578       19.788      861.854
04/28/2013  22:23:00        5.673       14.874       52.788       22.794       28.248       15.700      519.548      797.974      246.501        0.230        0.078       15.919       14.423        0.821      343.582       19.795      861.863
04/28/2013  22:24:00       30.384       50.353       51.366       30.131       32.756       31.808      907.866     1072.927     1011.772        0.454        0.150       58.810       26.771        0.207      343.687       19.973      861.883
04/28/2013  22:25:00       75.243       45.404       33.715       34.784       17.123       18.300     1209.895      293.208      334.885        0.535        0.092       87.881       14.096        0.026      343.759       20.098      861.894
04/28/2013  22:26:00       21.275      -14.784       24.022       31.384       32.088       24.405      984.970     1029.619      595.610        0.193        0.131       25.907       22.154        0.731      343.590       19.808      861.910
04/28/2013  22:27:00      -11.761      -25.103        1.822       27.161       26.937       16.173      737.730      725.619      261.577        0.125        0.086       27.721       13.770        0.247      343.579       19.788      861.926
04/28/2013  22:28:00      -27.482      -10.324        0.171       11.648        9.989        7.368      135.674       99.771       54.294        0.058        0.014       29.357        5.219        0.032      343.470       19.604      861.937
04/28/2013  22:29:00      -11.187       -2.431       -4.486        7.172        4.736        6.434       51.442       22.428       41.390        0.013        0.006       11.448        4.747        0.172      343.426       19.528      861.957
04/28/2013  22:30:00       -3.736       10.595       -4.417       10.039        8.603        5.565      100.790       74.009       30.973        0.018        0.010       11.234        1.972        0.031      343.487       19.634      861.960
04/28/2013  22:31:00       -4.788       39.340       -7.660       24.195       19.959       10.767      585.394      398.348      115.927        0.136        0.055       39.630       10.913        0.076      343.584       19.799      861.962
04/28/2013  22:32:00      -28.059       15.582       -4.364       29.652       23.014       12.119      879.218      529.657      146.872        0.130        0.078       32.095        8.694        0.073      343.487       19.633      861.972
04/28/2013  22:33:00        8.439       57.457       -0.349       24.573       22.859       13.640      603.833      522.544      186.049        0.234        0.066       58.073       12.423        0.046      343.476       19.615      861.958
04/28/2013  22:34:00      -69.435      118.321      -26.458       41.898       29.279       15.985     1755.480      857.256      255.519        1.119        0.143      137.190       19.846        0.021      343.473       19.609      861.967
04/28/2013  22:35:00      -90.173       67.030      -23.494       27.854       28.531       11.414      775.872      814.010      130.270        0.745        0.086      112.358       13.971        0.015      343.373       19.441      861.968
04/28/2013  22:36:00      -30.951       93.009      -14.566       23.978       22.108       10.668      574.922      488.765      113.805        0.550        0.059       98.023        8.524        0.008      343.418       19.514      861.962
04/28/2013  22:37:00      -41.917       70.255       -7.816       23.477       31.753       14.199      551.159     1008.270      201.604        0.426        0.088       81.809        8.969        0.012      343.368       19.429      861.964
04/28/2013  22:38:00      -41.471        1.616       -4.688       18.472       19.974       11.709      341.198      398.959      137.099        0.131        0.044       41.502        7.539        0.033      343.327       19.361      861.950
04/28/2013  22:39:00      -23.298       86.850      -13.096       19.957       35.096       15.213      398.297     1231.717      231.438        0.506        0.093       89.921       17.032        0.036      343.406       19.495      861.951
04/28/2013  22:40:00      -78.850       14.836       -7.761       37.741       68.129       18.356     1424.349     4641.559      336.952        0.645        0.320       80.234       20.871        0.068      343.430       19.536      861.949
04/28/2013  22:41:00      -32.023       84.114      -13.379       31.660       28.533       21.526     1002.376      814.154      463.350        0.528        0.114       90.003       20.703        0.053      343.361       19.418      861.940
04/28/2013  22:42:00      -67.146       70.580      -18.355       44.845       34.915       17.264     2011.035     1219.028      298.035        0.668        0.176       97.417       21.559        0.049      343.353       19.404      861.933
04/28/2013  22:43:00     -114.113      150.939      -36.163       58.855       41.674       29.355     3463.968     1736.715      861.718        2.159        0.303      189.221       34.307        0.033      343.386       19.459      861.945
04/28/2013  22:44:00      -72.295       95.573       -8.744       51.401       37.502       27.691     2642.013     1406.399      766.803        0.963        0.241      119.837       25.794        0.046      343.310       19.331      861.959
04/28/2013  22:45:00      -98.233       54.810      -14.113       44.417       31.216       23.229     1972.839      974.465      539.572        0.817        0.174      112.489       21.804        0.038      343.384       19.458      861.973
04/28/2013  22:46:00      -97.404      116.587      -17.446       40.647       73.017       34.102     1652.186     5331.422     1162.917        1.576        0.407      151.921       40.008        0.069      343.357       19.410      861.978
04/28/2013  22:47:00      -88.035      107.989      -27.130       49.944       62.373       30.277     2494.366     3890.412      916.668        1.372        0.365      139.326       27.037        0.038      343.373       19.438      861.989
04/28/2013  22:48:00     -114.805      136.181      -30.205       46.278       47.325       29.252     2141.692     2239.674      855.659        1.894        0.262      178.116       28.117        0.025      343.308       19.327      861.998
04/28/2013  22:49:00      -71.177       97.657      -19.969       35.890       41.778       22.262     1288.073     1745.424      495.583        0.926        0.176      120.844       22.682        0.035      343.330       19.366      862.006
04/28/2013  22:50:00      -33.895       71.896      -15.557       32.981       42.774       20.918     1087.735     1829.629      437.577        0.496        0.168       79.485       24.624        0.096      343.287       19.293      862.008
04/28/2013  22:51:00      -23.931       41.921       -4.038       24.881       37.321       13.868      619.048     1392.821      192.323        0.227        0.110       48.271       16.160        0.112      343.281       19.282      862.002
04/28/2013  22:52:00      -20.734       39.845        2.776       36.616       36.656       19.975     1340.754     1343.693      399.016        0.255        0.154       44.917       18.633        0.172      343.232       19.198      862.003
04/28/2013  22:53:00      -59.266       25.112       -7.881       48.216       43.606       21.342     2324.788     1901.503      455.471        0.444        0.234       64.367       23.585        0.134      343.286       19.291      862.000
04/28/2013  22:54:00      -78.992       56.904       -9.790       53.159       54.067       29.405     2825.846     2923.262      864.639        0.809        0.331       97.353       21.237        0.048      343.265       19.255      861.989
04/28/2013  22:55:00      -55.013       50.761       -2.946       45.722       34.970       27.290     2090.510     1222.933      744.736        0.483        0.203       74.854       24.320        0.106      343.185       19.120      861.970
04/28/2013  22:56:00      -65.166       65.428      -17.585       42.664       86.847       26.341     1820.190     7542.479      693.867        0.944        0.503       92.344       22.119        0.057      343.229       19.195      861.967
04/28/2013  22:57:00      -90.657       61.987      -25.616       27.221       51.180       21.121      740.962     2619.398      446.098        0.826        0.190      109.823       17.079        0.024      343.175       19.103      861.957
04/28/2013  22:58:00     -157.707      143.683      -40.743       61.413       88.788       36.194     3771.527     7883.309     1310.013        3.007        0.648      213.346       50.795        0.057      343.275       19.271      861.942
04/28/2013  22:59:00      -92.742       94.493      -25.196       39.609       66.274       32.408     1568.870     4392.293     1050.297        1.259        0.351      132.401       33.686        0.065      343.233       19.201      861.931
04/28/2013  23:00:00      -88.667       66.612       -4.203       48.161       57.245       32.954     2319.440     3276.970     1085.975        0.950        0.334      110.901       35.256        0.101      343.228       19.192      861.914
04/28/2013  23:01:00     -122.039       31.008      -12.420       64.781       47.943       31.136     4196.525     2298.497      969.477        1.174        0.373      125.917       21.479        0.029      343.312       19.334      861.925
04/28/2013  23:02:00     -130.999       92.649      -22.667       52.568       59.043       39.397     2763.401     3486.093     1552.090        1.703        0.390      160.451       31.787        0.039      343.238       19.208      861.928
04/28/2013  23:03:00     -149.209      163.840      -41.180      102.089       72.169       42.404    10422.166     5208.410     1798.134        3.411        0.871      221.600       49.330        0.050      343.216       19.168      861.938
04/28/2013  23:04:00      -67.789       83.549       -6.573       64.393       58.878       38.922     4146.403     3466.654     1514.893        1.037        0.456      107.590       33.436        0.097      343.178       19.106      861.935
04/28/2013  23:05:00     -122.568       65.202      -13.641       47.547       38.644       33.373     2260.670     1493.392     1113.762        1.216        0.243      138.832       20.853        0.023      343.183       19.116      861.941
04/28/2013  23:06:00     -136.244      171.716      -25.682       89.595       92.793       54.173     8027.264     8610.539     2934.752        3.414        0.979      219.201       59.965        0.075      343.166       19.084      861.934
04/28/2013  23:07:00     -123.926      148.282      -42.366       57.269       53.673       30.081     3279.698     2880.745      904.880        2.310        0.353      193.249       28.506        0.022      343.265       19.252      861.935
04/28/2013  23:08:00     -106.736      114.510      -24.702       54.038       50.833       37.645     2920.108     2584.004     1417.140        1.602        0.346      156.541       33.851        0.047      343.178       19.105      861.925
04/28/2013  23:09:00      -32.497      106.168      -10.776       27.787       59.468       23.882      772.122     3536.500      570.345        0.866        0.244      111.030       27.751        0.062      343.131       19.026      861.920
04/28/2013  23:10:00      -49.543      131.935      -19.996       30.316       41.975       19.200      919.067     1761.920      368.623        1.165        0.152      140.930       13.667        0.009      343.159       19.073      861.928
04/28/2013  23:11:00      -68.576       86.742       -8.854       35.339       39.339       31.020     1248.873     1547.550      962.265        0.803        0.188      110.574       19.540        0.031      343.093       18.962      861.934
04/28/2013  23:12:00      -22.342      157.759      -16.392       53.149       58.872       30.804     2824.857     3465.924      948.881        1.645        0.362      159.333       16.279        0.010      343.096       18.966      861.946
04/28/2013  23:13:00      -71.720      119.778       -8.126       55.412       72.000       32.819     3070.519     5184.038     1077.058        1.444        0.467      139.609       33.613        0.058      343.058       18.901      861.936
04/28/2013  23:14:00      -85.064      169.392      -21.116       84.920       60.069       40.435     7211.371     3608.263     1635.016        2.441        0.623      189.551       40.436        0.046      343.089       18.952      861.939
04/28/2013  23:15:00      -58.698      138.931      -10.347       47.073       69.772       41.444     2215.837     4868.139     1717.602        1.583        0.440      150.822       38.419        0.065      343.057       18.901      861.928
04/28/2013  23:16:00     -126.734      122.983      -21.238       85.203       59.799       51.000     7259.487     3575.925     2601.037        2.253        0.672      176.596       42.961        0.059      343.074       18.927      861.927
04/28/2013  23:17:00     -117.003      137.462      -21.612       66.457       50.195       42.076     4416.511     2519.561     1770.421        2.088        0.435      180.515       35.327        0.038      343.062       18.909      861.929
04/28/2013  23:18:00      -68.688      117.335      -10.968       59.772       61.812       41.167     3572.671     3820.758     1694.747        1.385        0.454      135.962       33.577        0.061      343.057       18.900      861.930
04/28/2013  23:19:00      -51.310       89.019       -8.172       46.014       57.784       25.944     2117.273     3339.005      673.100        0.838        0.306      102.747       21.317        0.043      343.091       18.958      861.921
04/28/2013  23:20:00      -84.000      156.744      -20.541       50.586       51.909       32.393     2558.956     2694.580     1049.309        1.917        0.315      177.834       30.973        0.030      343.084       18.946      861.907
04/28/2013  23:21:00      -78.318      170.078      -25.487       39.989       53.009       36.085     1599.109     2809.999     1302.137        2.071        0.286      187.244       32.838        0.031      343.011       18.822      861.899
04/28/2013  23:22:00      -34.583      170.204      -16.340       36.892       77.580       30.635     1361.024     6018.700      938.479        1.937        0.416      173.682       36.558        0.044      342.964       18.741      861.873
04/28/2013  23:23:00      -44.408      207.785      -27.822       39.603       61.426       30.380     1568.395     3773.201      922.939        2.609        0.313      212.477       31.614        0.022      342.972       18.754      861.868
04/28/2013  23:24:00      -39.915      200.915      -23.687       26.805       42.883       18.931      718.492     1838.931      358.364        2.272        0.146      204.842        9.634        0.002      342.924       18.672      861.851
04/28/2013  23:25:00      -35.238      142.281       -4.796       35.093       71.294       24.906     1231.531     5082.770      620.294        1.422        0.347      146.580       33.895        0.053      342.887       18.611      861.836
04/28/2013  23:26:00      -72.298       87.335      -15.451       34.620       36.299       23.010     1198.531     1317.623      529.461        0.807        0.152      113.377       18.471        0.027      342.847       18.543      861.831
04/28/2013  23:27:00      -58.755       61.841      -13.996       40.776       53.622       22.374     1662.691     2875.328      500.613        0.625        0.252       85.302       22.351        0.069      342.858       18.563      861.835
04/28/2013  23:28:00      -41.586       54.286       -6.677       52.360       46.759       18.880     2741.522     2186.445      356.469        0.500        0.264       68.384       22.027        0.104      342.804       18.471      861.837
04/28/2013  23:29:00      -67.529       81.169      -16.362       19.303       42.111       17.005      372.588     1773.359      289.184        0.693        0.122      105.587       19.252        0.033      342.788       18.444      861.851
04/28/2013  23:30:00      -20.399      125.257      -22.249       38.748       38.171       16.936     1501.424     1457.020      286.817        0.992        0.162      126.907       12.545        0.010      342.858       18.562      861.854
04/28/2013  23:31:00      -46.597      119.068      -16.094       36.971       32.296       16.944     1366.830     1043.022      287.083        0.965        0.135      127.861        9.150        0.005      342.830       18.514      861.865
04/28/2013  23:32:00       -1.187      106.147      -18.704       24.387       36.951       14.973      594.719     1365.388      224.191        0.690        0.109      106.154       14.459        0.019      342.748       18.376      861.873
04/28/2013  23:33:00      -12.705      137.937      -20.836       23.133       22.355       15.201      535.147      499.741      231.082        1.044        0.063      138.521        7.970        0.003      342.757       18.388      861.885
04/28/2013  23:34:00      -76.077       99.382      -28.371       28.164       32.310       17.170      793.225     1043.952      294.824        0.930        0.107      125.158       17.539        0.020      342.684       18.265      861.894
04/28/2013  23:35:00      -34.597       83.427       -4.880       53.453       41.102       26.638     2857.172     1689.345      709.563        0.672        0.263       90.316       24.891        0.076      342.699       18.290      861.907
04/28/2013  23:36:00      -63.842       77.658      -13.523       36.368       54.289       24.843     1322.659     2947.321      617.167        0.759        0.244      100.531       23.238        0.053      342.712       18.313      861.901
04/28/2013  23:37:00      -61.836       60.788      -11.152       45.256       30.096       26.416     2048.077      905.769      697.781        0.565        0.183       86.712       27.522        0.101      342.777       18.425      861.908
04/28/2013  23:38:00      -63.065       35.798       -7.900       26.227       23.659       16.108      687.877      559.728      259.456        0.341        0.075       72.517       11.586        0.026      342.749       18.376      861.922
04/28/2013  23:39:00      -86.933       70.319      -16.742       56.637       57.243       34.362     3207.759     3276.739     1180.774        1.022        0.383      111.813       36.382        0.106      342.811       18.483      861.938
04/28/2013  23:40:00      -82.411       54.006       -6.241       57.668       41.057       31.198     3325.603     1685.672      973.303        0.786        0.299       98.530       32.213        0.107      342.781       18.430      861.945
04/28/2013  23:41:00      -87.112       58.922      -21.164       28.459       38.812       24.307      809.887     1506.337      590.815        0.721        0.145      105.168       22.443        0.046      342.728       18.341      861.957
04/28/2013  23:42:00      -79.486       91.879      -18.203       64.950       73.584       32.630     4218.462     5414.616     1064.738        1.289        0.535      121.490       34.718        0.082      342.672       18.244      861.958
04/28/2013  23:43:00      -95.188      108.175      -27.120       32.254       38.496       21.261     1040.304     1481.935      452.020        1.224        0.149      144.093       16.454        0.013      342.678       18.253      861.937
04/28/2013  23:44:00     -129.545       53.411      -24.727       35.529       62.256       27.573     1262.343     3875.789      760.252        1.307        0.295      140.123       22.462        0.026      342.685       18.266      861.931
04/28/2013  23:45:00      -72.427       -4.088        1.522       48.715       38.759       25.350     2373.173     1502.261      642.636        0.489        0.226       72.542       31.151        0.184      342.508       17.966      861.915
04/28/2013  23:46:00      -64.928      -43.111        1.458       61.840       34.281       23.954     3824.198     1175.204      573.798        0.582        0.279       77.938       23.254        0.089      342.477       17.916      861.895
04/28/2013  23:47:00     -116.183       -3.867      -20.358       43.034       44.171       23.881     1851.908     1951.087      570.293        0.915        0.219      116.247       10.485        0.008      342.427       17.829      861.886
04/28/2013  23:48:00      -61.352      -54.893        6.879       70.264       47.797       34.250     4936.998     2284.592     1173.095        0.761        0.420       82.325       28.922        0.123      342.389       17.764      861.897
04/28/2013  23:49:00     -133.888      -96.828        7.162      112.326       80.295       56.439    12617.035     6447.219     3185.396        2.480        1.112      165.233       58.842        0.127      342.267       17.555      861.885
04/28/2013  23:50:00      -95.982      -30.029       -2.659       62.641       46.873       38.723     3923.864     2197.049     1499.444        0.887        0.381      100.570       33.699        0.112      342.289       17.595      861.907
04/28/2013  23:51:00      -24.742      -18.439       23.711       64.473       45.928       32.318     4156.749     2109.388     1044.479        0.441        0.366       30.857       35.766        1.343      342.258       17.542      861.914
04/28/2013  23:52:00      -35.095      -40.067        5.037       42.107       62.747       35.631     1772.988     3937.221     1269.584        0.492        0.349       53.264       34.030        0.408      342.391       17.769      861.923
04/28/2013  23:53:00      -20.642       -9.058        9.813       49.856       34.979       22.529     2485.601     1223.520      507.560        0.241        0.211       22.542       22.457        0.992      342.463       17.889      861.929
04/28/2013  23:54:00      -10.991        8.342        5.831       34.371       36.198       18.022     1181.383     1310.326      324.805        0.152        0.141       13.798       14.455        1.098      342.440       17.851      861.952
04/28/2013  23:55:00        1.958       30.768        3.632        8.440       14.168        9.500       71.238      200.731       90.256        0.066        0.018       30.830        6.403        0.043      342.364       17.723      861.968
04/28/2013  23:56:00      -42.944       75.263      -13.540       36.199       35.217       13.480     1310.345     1240.222      181.723        0.521        0.137       86.653       17.262        0.040      342.376       17.742      862.000
04/28/2013  23:57:00      -63.963       41.481      -12.419       16.335       19.059       10.085      266.837      363.263      101.701        0.335        0.037       76.237        6.919        0.008      342.314       17.638      862.014
04/28/2013  23:58:00      -98.998        5.450      -14.085       36.364       27.964       16.218     1322.371      782.003      263.024        0.620        0.118       99.148       18.393        0.034      342.365       17.722      862.036
04/28/2013  23:59:00     -124.080      -19.912      -13.720       25.639       29.696       16.892      657.366      881.835      285.343        0.890        0.091      125.667       13.049        0.011      342.404       17.790      862.035
